GFSGBSN_850_thetae_000.txt.gz
Theta_e
316 316 317 316 315 315 313 313 311 305 304 305 307 307 306 306 308 306 306 307 307 309 311 311 309 311 313 315 315 315 316 315 313 318 320 317 324 326 330 329 327 327 326 326 325 326 325
315 316 317 316 315 314 311 314 313 309 304 304 307 307 309 310 310 310 307 307 308 308 308 309 309 310 312 314 313 312 314 314 314 317 320 317 323 325 325 328 328 326 326 326 326 326 326
314 315 315 316 315 314 312 310 312 308 303 303 306 307 308 310 311 311 310 308 306 307 307 309 310 309 312 311 310 309 310 311 312 314 318 318 319 326 325 329 328 327 328 328 327 327 327
314 315 315 316 316 315 315 312 309 311 310 303 304 310 308 309 311 311 311 311 309 307 307 309 310 310 310 310 310 311 310 311 312 312 315 318 319 322 327 327 328 330 329 331 327 327 327
314 315 315 315 315 315 315 313 312 310 312 306 304 307 307 309 309 308 310 312 311 308 309 309 309 310 310 309 309 309 310 311 313 312 313 317 319 323 326 328 330 331 332 330 328 327 327
313 315 315 315 315 315 315 315 311 307 311 307 303 305 310 310 309 310 311 311 313 310 310 309 308 309 309 310 310 310 309 310 312 315 316 317 318 324 327 328 334 331 330 329 329 326 323
312 314 314 314 314 314 314 314 311 306 307 306 303 305 308 308 309 309 311 310 311 310 310 309 309 309 310 309 310 310 310 310 312 315 317 317 320 323 327 327 327 326 328 329 327 324 323
312 313 314 314 314 314 314 314 314 309 305 303 303 304 308 308 309 307 311 312 310 310 310 309 308 308 310 310 311 310 311 311 312 315 316 317 320 322 325 326 327 327 327 327 326 322 323
313 313 313 314 314 314 314 314 314 313 307 304 303 304 306 309 308 308 311 312 312 310 308 309 308 309 309 309 311 311 311 310 312 313 316 318 319 322 326 327 328 327 327 326 327 324 323
313 313 313 313 314 314 314 313 314 314 312 306 304 304 308 309 308 311 312 312 312 310 308 309 310 308 309 310 310 310 311 310 313 314 315 315 318 324 326 327 327 328 326 326 327 329 332
312 312 312 313 314 315 314 314 314 314 314 311 306 304 308 307 312 311 311 312 309 308 315 310 309 308 309 309 310 311 312 310 313 315 313 315 321 320 326 326 326 327 325 327 327 328 328
312 312 312 312 313 314 315 314 315 314 315 314 312 306 305 307 309 311 311 308 307 310 313 312 310 310 311 310 310 312 312 310 313 314 313 315 320 320 326 324 325 323 324 324 323 325 331
313 312 312 312 313 314 315 315 315 315 315 315 314 312 307 307 310 311 311 307 311 314 310 313 312 311 310 310 310 312 313 312 314 318 317 313 313 324 325 326 320 325 327 332 333 331 331
313 313 312 312 313 315 315 314 315 315 315 314 314 313 310 308 309 311 309 309 316 313 313 311 311 311 311 311 311 312 312 312 312 317 315 318 326 324 325 325 324 325 328 329 331 331 328
313 313 313 313 314 315 314 314 315 315 315 314 314 313 311 310 310 310 308 312 315 315 311 312 312 313 312 311 311 313 312 311 314 313 317 319 321 321 325 322 323 324 327 323 323 321 325
305 313 312 314 315 314 314 314 315 315 315 314 313 310 310 311 310 309 307 314 313 313 310 312 311 312 312 311 314 314 312 311 313 315 317 317 322 321 319 322 318 325 324 326 324 329 328
304 310 312 313 315 314 313 314 314 315 314 314 314 310 312 312 311 308 312 313 315 314 312 311 311 311 312 312 314 314 312 314 313 316 317 319 321 317 321 323 324 324 326 326 324 323 327
303 306 313 313 315 314 313 313 314 315 314 314 311 314 314 311 312 311 312 313 314 317 313 311 312 312 311 312 313 314 313 317 312 318 319 319 320 323 321 315 320 323 324 324 327 324 321
303 304 311 313 315 314 313 313 313 314 314 313 311 314 314 312 315 314 314 314 313 317 315 313 315 315 313 313 315 315 316 313 315 318 321 318 321 324 322 319 315 321 321 325 322 319 323
303 303 307 313 314 314 313 313 313 314 314 313 311 317 314 313 314 316 316 316 319 317 316 318 318 317 315 314 314 316 317 319 319 317 318 316 321 321 324 323 322 323 320 322 324 325 324
304 304 304 313 313 314 313 312 312 313 313 313 309 316 315 315 314 315 316 317 318 321 319 320 319 318 316 317 319 319 319 320 319 320 320 319 321 321 319 320 320 321 321 319 321 323 323
303 304 304 311 314 314 312 312 312 312 313 313 311 312 312 316 315 317 316 318 317 320 318 318 321 318 318 319 319 321 321 321 322 320 321 319 321 317 318 317 319 320 320 321 321 322 321
301 302 303 310 313 314 313 312 311 312 312 313 312 309 310 314 313 318 317 319 317 316 316 317 319 318 319 319 318 319 320 320 320 321 321 320 319 320 321 315 316 321 319 319 319 319 319
300 301 302 306 313 314 313 312 311 311 312 313 310 310 311 314 314 314 315 317 318 317 320 313 312 319 316 315 315 317 317 316 318 317 320 320 318 317 318 315 322 319 313 318 319 319 318
300 301 303 305 313 315 313 312 310 311 312 312 313 309 310 313 312 311 312 314 311 310 310 310 308 310 313 312 319 319 317 318 313 310 313 318 319 320 319 322 317 314 313 314 317 319 314
299 300 301 303 312 313 313 311 310 311 311 312 313 311 309 308 312 309 309 313 315 314 310 307 307 308 310 313 322 323 325 322 318 314 309 313 319 321 316 318 320 316 314 312 314 317 312
298 299 300 303 309 313 313 311 310 311 311 312 313 311 310 308 308 307 311 313 312 311 310 309 309 311 315 315 318 322 322 316 320 319 319 316 316 322 320 323 318 314 313 313 318 319 312
298 299 300 302 305 314 313 312 311 310 311 312 313 311 310 310 309 308 308 307 309 312 314 308 314 312 313 319 319 316 318 314 315 315 318 319 318 318 319 321 322 312 312 317 315 312 311
297 298 300 301 304 314 313 312 310 310 311 312 313 313 311 313 310 309 309 309 311 310 312 309 313 311 314 315 314 313 314 312 315 317 310 316 318 318 317 318 311 309 311 311 311 310 309

GFSGBSN_850_thetae_003.txt.gz
Theta_e
316 315 317 317 316 316 316 315 312 312 309 303 304 308 307 306 307 308 306 307 308 307 308 312 312 311 313 316 316 316 316 315 317 320 321 321 318 321 329 328 327 328 327 326 326 326 326
316 315 316 317 316 316 314 313 310 314 312 305 303 307 308 309 310 311 310 307 308 309 308 310 310 310 314 315 314 315 316 316 315 319 321 321 319 319 324 327 328 328 327 326 326 326 326
315 315 314 316 316 316 316 315 312 310 311 306 302 304 308 308 311 312 311 311 308 307 309 308 311 311 313 313 312 313 313 313 313 315 318 320 320 321 323 327 326 328 328 328 327 326 327
313 314 314 315 316 316 316 315 315 312 308 310 306 303 310 310 310 311 312 312 310 308 307 308 310 312 313 312 312 312 312 312 312 313 314 317 320 319 322 325 327 328 330 331 327 327 327
311 314 314 316 316 316 316 316 315 314 311 310 311 304 304 310 309 310 308 309 312 310 308 308 310 312 312 311 311 311 312 312 312 314 314 315 319 319 321 326 329 330 333 331 330 328 328
311 312 314 315 316 315 315 315 315 315 311 308 312 307 303 308 309 309 309 312 311 312 308 310 311 312 311 311 311 311 311 311 311 312 315 315 317 321 322 326 331 332 332 330 332 328 328
313 311 314 314 314 315 314 314 314 315 313 307 310 308 304 307 310 310 309 310 310 311 310 311 311 311 311 311 311 311 311 311 311 312 316 316 319 321 321 322 327 328 331 330 330 328 329
314 311 313 313 314 315 314 314 314 314 314 309 309 304 304 307 308 309 309 309 311 311 312 310 311 310 310 311 311 311 311 311 311 314 313 316 319 318 319 321 327 329 330 330 328 326 326
315 311 313 313 314 314 314 314 314 314 314 313 306 304 304 307 308 309 310 308 311 311 310 308 310 310 310 310 310 312 311 311 312 313 313 316 317 317 318 320 327 328 330 330 329 327 325
315 312 312 313 313 314 314 314 314 313 314 313 308 305 304 307 309 309 310 310 310 311 308 311 310 310 309 309 311 310 311 311 311 313 313 314 314 318 319 322 323 330 327 326 327 329 330
314 314 312 313 314 314 314 315 315 314 314 313 311 306 304 307 310 311 311 311 311 310 316 312 311 309 310 309 310 310 310 311 312 312 313 314 316 318 320 320 322 329 328 327 328 330 331
308 312 313 312 312 313 314 315 315 315 315 314 312 310 305 307 308 310 310 310 308 310 316 312 310 310 310 310 310 311 310 311 311 311 313 313 315 318 320 321 322 326 328 328 328 328 330
306 307 309 312 312 312 313 314 316 315 315 315 315 311 310 308 310 310 309 307 311 315 311 313 312 311 311 311 311 312 312 312 313 315 318 314 312 313 318 320 322 327 329 332 330 331 329
302 304 306 312 313 312 313 314 315 315 315 316 314 313 312 310 309 311 308 308 315 314 312 311 311 311 313 311 311 311 312 313 312 312 316 316 317 315 315 322 324 327 329 328 329 329 328
302 305 303 307 313 312 313 316 316 315 315 316 314 313 311 311 309 309 308 312 315 315 313 313 312 313 314 311 309 309 312 315 311 312 319 317 318 318 319 324 323 324 331 325 327 326 329
301 304 303 304 312 313 314 315 315 315 316 315 314 313 312 311 310 310 309 313 315 314 311 312 314 312 313 313 311 312 313 313 311 311 311 316 320 319 324 324 321 326 326 328 327 329 329
301 302 303 303 310 313 315 315 314 314 315 315 314 311 312 311 310 310 310 312 314 314 312 313 313 312 312 311 311 312 313 312 311 312 312 317 317 318 324 326 325 326 329 328 326 327 329
301 302 303 303 308 313 315 315 314 314 315 314 312 313 313 311 312 310 312 311 313 314 314 315 311 312 312 311 312 314 313 312 310 312 316 318 319 323 321 319 323 326 327 327 329 327 325
300 302 304 303 303 314 314 314 314 314 315 314 312 313 313 311 315 313 311 312 312 314 316 314 313 312 312 313 313 314 313 312 313 313 320 320 322 327 325 322 322 325 325 326 326 324 327
299 301 304 304 304 311 315 314 313 314 315 314 312 315 313 312 313 315 314 314 315 314 316 314 314 314 314 314 313 314 315 313 315 314 318 318 321 324 325 324 324 326 325 324 325 326 325
298 300 301 302 304 310 314 313 313 313 315 314 311 315 315 315 314 314 315 315 315 318 317 314 318 317 316 314 315 317 314 316 314 317 317 320 323 322 322 322 323 324 325 324 326 326 326
298 299 300 302 303 306 310 313 313 313 314 313 311 312 315 316 314 315 315 315 316 315 319 319 321 318 317 317 314 316 316 317 319 318 319 319 323 321 322 321 322 323 323 324 324 325 325
298 299 300 301 303 305 311 313 312 312 313 313 313 311 312 315 318 316 318 316 316 315 317 318 320 320 319 318 317 318 317 318 320 320 322 321 322 322 323 321 321 323 322 322 323 322 323
297 298 299 300 302 305 311 313 312 312 312 313 313 312 312 312 313 316 316 317 317 316 317 318 318 318 319 318 318 319 319 315 320 321 320 321 322 321 322 320 324 321 317 320 322 322 322
297 297 299 300 301 303 307 312 313 312 312 312 312 309 312 313 313 314 314 317 313 314 316 313 315 316 316 317 320 321 320 318 314 311 320 320 321 323 325 326 325 322 316 318 321 321 320
297 298 298 299 300 303 305 312 313 312 312 311 311 312 310 312 312 312 315 314 314 313 310 310 309 310 311 317 321 323 324 321 318 316 312 319 320 324 322 321 325 317 316 314 317 320 318
297 297 298 299 299 302 305 312 312 311 312 311 311 312 310 311 311 310 313 315 314 313 314 310 311 312 314 315 322 325 324 322 322 321 317 320 322 323 323 325 323 317 315 315 318 321 314
296 297 297 298 299 300 304 311 311 311 311 311 312 312 311 312 312 309 309 309 312 312 316 310 316 315 317 320 321 319 321 320 322 321 319 320 319 323 322 325 324 315 315 318 317 314 314
296 296 297 298 299 300 304 310 312 311 311 311 311 312 310 309 312 309 309 308 312 314 311 311 314 316 318 318 317 316 317 315 320 321 316 322 321 320 321 322 314 314 314 312 314 314 313

GFSGBSN_850_thetae_006.txt.gz
Theta_e
314 314 317 316 317 317 317 316 315 315 312 312 308 304 307 309 306 308 309 308 307 308 307 309 312 311 310 316 317 317 315 314 317 318 321 321 321 319 322 326 326 327 327 326 326 326 326
314 313 315 316 315 317 316 316 316 314 312 314 311 304 305 309 309 310 311 311 308 309 309 309 312 312 313 314 314 315 317 315 316 317 321 321 321 320 319 323 325 327 327 328 327 326 326
314 311 312 314 314 316 316 316 316 315 313 311 311 306 303 307 308 311 311 312 311 308 307 308 309 310 313 313 313 314 314 315 315 315 316 319 320 321 320 320 323 326 328 328 327 327 326
316 313 309 313 314 315 316 316 316 315 315 313 308 310 304 306 312 309 311 312 312 311 309 308 308 312 312 313 313 313 313 312 313 312 313 315 316 319 320 320 323 327 327 329 328 327 326
317 316 312 311 313 315 316 316 316 316 316 315 312 310 311 307 311 310 311 309 309 312 310 310 308 311 311 312 312 312 313 312 312 312 314 313 314 317 320 320 323 326 329 330 329 327 326
318 316 314 312 313 314 315 315 315 315 315 315 313 309 312 305 309 309 310 309 312 312 312 310 311 311 311 311 312 311 312 312 312 312 312 314 314 317 319 321 323 325 329 327 330 328 327
315 317 315 313 312 314 315 315 315 315 315 315 314 308 310 307 308 310 310 309 310 311 312 310 311 311 312 312 311 311 311 312 312 312 312 313 317 318 317 318 320 322 325 330 327 327 328
312 314 316 315 311 313 313 314 315 314 314 314 314 310 309 307 308 309 310 310 310 311 311 312 311 311 311 312 312 311 311 311 312 312 312 314 316 315 316 317 320 321 325 328 327 327 327
308 313 317 315 312 313 313 314 314 314 314 314 314 312 307 305 308 309 310 310 310 309 310 310 311 311 312 311 311 312 312 311 312 312 312 313 314 314 315 316 319 321 324 328 329 327 326
304 307 310 313 314 313 313 314 315 314 314 314 314 312 305 305 307 308 310 311 311 309 310 310 309 311 311 310 310 311 312 311 312 312 312 313 313 313 316 316 316 320 321 325 327 330 331
302 304 306 310 313 312 313 313 314 314 315 314 314 311 305 305 311 310 310 311 310 311 315 311 311 310 311 310 310 310 310 311 312 311 311 313 312 313 314 316 316 320 320 325 326 329 329
302 303 303 307 309 312 313 314 314 315 315 315 314 311 307 307 309 310 311 310 310 311 314 312 310 311 312 310 310 310 310 312 311 312 311 311 312 313 314 314 315 318 320 322 329 327 333
300 302 303 304 307 310 312 313 313 314 316 315 315 313 310 308 308 308 308 309 311 314 311 314 312 311 310 312 311 310 311 312 311 312 313 312 313 313 312 315 317 320 322 326 331 328 329
300 302 302 304 305 309 311 312 313 313 316 315 315 314 311 309 310 311 308 309 313 313 313 311 311 311 313 312 312 311 311 312 311 311 312 313 314 314 312 313 320 321 322 326 333 332 326
299 301 302 305 305 304 307 312 312 313 316 315 316 314 312 310 311 310 308 310 313 314 314 313 311 313 313 313 312 311 311 312 311 311 313 318 315 314 313 313 319 321 319 317 329 323 325
299 301 302 302 305 302 304 312 312 314 316 315 316 314 312 312 310 310 309 311 312 313 311 311 315 311 312 312 310 311 311 311 312 312 310 311 317 316 317 317 319 321 321 324 329 327 330
300 300 301 303 304 302 303 313 314 315 315 316 315 313 313 313 310 310 311 311 311 311 311 312 313 313 312 311 311 309 310 311 312 312 310 311 313 317 316 323 323 325 326 328 329 326 327
299 300 300 302 303 302 304 310 315 315 315 316 313 313 312 311 312 311 312 311 312 313 313 314 313 314 311 312 311 311 312 313 312 311 312 312 314 319 319 319 321 325 327 327 328 327 324
299 299 300 301 302 303 304 308 314 315 315 315 312 313 312 311 313 312 311 312 311 314 315 315 315 313 312 312 311 310 313 313 311 313 314 314 316 321 320 323 323 327 326 326 325 324 325
297 299 299 300 301 303 303 306 315 314 315 315 312 315 312 311 312 314 313 313 312 311 312 314 315 313 312 312 311 315 313 314 314 312 316 318 320 318 326 325 325 327 327 325 325 325 324
296 298 298 300 301 302 302 306 314 314 314 314 312 314 313 313 312 313 314 313 313 314 314 315 315 314 315 314 313 312 314 314 315 313 315 315 323 322 321 324 324 325 325 324 324 323 325
295 297 298 299 300 301 302 304 307 314 314 314 311 311 314 316 312 313 313 315 314 314 315 317 315 318 317 314 313 314 314 314 313 316 315 316 321 322 321 321 323 325 324 324 323 323 323
295 296 297 299 299 300 302 304 311 313 314 313 312 311 313 314 316 315 316 315 316 313 313 314 315 315 319 317 315 314 315 315 317 318 318 319 321 322 320 321 321 322 322 323 323 322 323
295 296 297 298 299 300 301 302 307 313 313 314 313 312 312 313 312 315 316 316 316 316 315 316 317 317 319 318 318 318 317 316 316 318 318 319 321 321 319 320 322 319 316 318 321 321 319
295 295 297 298 298 300 299 302 304 308 312 313 313 312 312 314 313 312 312 316 315 314 316 316 318 318 317 317 320 321 321 320 315 312 314 318 320 322 323 322 322 321 316 318 319 320 319
295 295 297 297 298 299 299 303 305 311 312 312 312 312 311 311 312 311 314 315 314 313 313 314 313 313 316 316 320 322 321 321 319 317 315 319 319 322 318 321 324 317 315 314 316 318 313
294 295 297 297 298 298 299 301 303 309 312 311 311 311 312 310 312 311 311 314 314 312 313 310 310 311 314 315 322 320 323 319 321 320 320 321 321 322 322 322 320 316 314 314 317 319 313
294 295 297 298 298 298 299 301 303 308 311 311 310 311 311 310 312 312 310 309 313 312 314 311 313 313 315 318 321 320 320 321 320 318 320 321 321 322 321 323 322 314 314 317 315 314 314
294 295 296 298 298 298 299 301 303 309 311 310 309 311 311 311 312 312 311 309 310 312 312 312 314 316 318 319 318 317 317 314 320 322 317 321 320 320 319 320 315 314 314 314 315 314 314

GFSGBSN_850_thetae_009.txt.gz
Theta_e
317 315 312 307 315 316 316 317 316 316 315 312 312 310 304 305 309 307 309 310 308 308 308 307 309 312 311 314 317 317 315 315 316 318 319 321 321 321 319 320 323 324 325 327 327 327 326
318 318 316 313 309 315 314 316 316 315 316 314 312 313 307 303 309 309 311 311 311 308 309 308 309 312 312 313 310 313 316 316 316 316 320 319 321 321 321 318 319 322 323 325 325 326 326
319 320 318 316 313 309 314 315 316 315 316 315 313 310 309 303 306 308 310 312 312 311 308 308 308 310 312 312 313 313 314 315 316 315 315 319 319 320 321 320 320 322 325 324 326 326 326
314 317 320 318 316 310 313 314 315 315 315 315 315 312 308 306 303 310 309 311 312 312 310 309 309 309 311 310 311 313 313 315 315 315 314 315 315 315 318 319 320 322 323 327 325 325 326
307 313 316 318 316 314 312 313 315 315 315 315 315 314 309 311 304 311 310 311 309 309 312 310 310 309 310 310 311 312 313 313 312 312 313 312 313 314 317 319 320 320 323 325 326 324 325
305 306 312 315 317 315 311 313 314 315 314 315 315 315 310 312 308 309 309 311 309 312 312 312 310 311 311 310 311 311 312 313 312 312 312 313 314 313 314 319 320 321 322 321 325 324 325
304 305 307 312 314 316 314 313 314 315 315 315 315 315 311 311 310 307 309 310 310 310 312 312 311 310 312 312 312 312 311 312 312 312 311 312 314 315 313 315 317 316 318 323 323 323 326
303 304 304 307 311 315 315 312 313 314 314 314 314 315 312 309 309 307 310 310 310 311 311 312 312 312 311 312 312 311 311 311 312 312 310 311 313 313 314 314 316 317 319 320 319 322 325
301 303 303 304 306 310 314 314 313 312 313 314 314 314 313 309 307 308 309 310 310 310 309 310 311 312 312 312 312 312 311 311 311 311 311 312 312 312 314 314 316 317 319 319 320 322 324
300 301 303 303 304 305 310 313 313 313 314 314 314 314 313 308 306 308 309 309 309 310 310 311 309 311 311 311 311 312 311 311 311 311 311 311 311 311 313 315 314 316 316 318 320 322 327
300 301 301 303 304 303 306 309 313 313 314 314 314 314 312 305 307 307 308 309 310 310 311 309 310 309 311 311 311 311 311 312 312 311 312 312 311 311 312 313 314 315 314 316 319 323 324
299 300 300 301 302 304 305 308 312 313 314 314 315 314 309 306 310 310 310 311 310 310 308 312 310 310 311 311 311 311 310 310 311 312 311 310 310 311 311 311 312 314 316 317 320 321 326
298 300 301 302 302 304 305 306 310 311 314 314 315 314 309 306 309 310 310 308 311 311 309 313 312 311 310 311 311 311 311 312 314 313 312 311 311 311 312 313 313 313 315 320 321 323 324
298 298 300 300 302 303 305 306 308 308 313 314 315 314 310 308 308 308 308 310 311 310 311 311 311 310 313 310 312 311 310 313 312 310 310 308 307 311 311 313 313 314 314 318 320 322 322
298 298 300 300 301 302 304 305 306 310 313 314 315 313 308 309 310 309 308 309 309 311 313 313 312 313 313 311 311 312 311 311 310 309 308 313 311 311 311 312 313 313 316 316 321 324 327
297 298 299 299 301 303 304 304 305 310 313 314 315 313 310 310 311 309 309 308 310 311 312 312 315 312 311 311 312 310 311 310 311 309 309 311 312 311 312 312 313 315 316 319 319 327 331
297 297 298 299 300 302 303 303 304 308 312 313 314 312 311 309 310 309 311 309 310 311 311 312 314 313 310 310 310 310 309 310 311 311 309 311 311 312 311 315 317 315 318 320 320 320 329
296 296 298 299 299 301 301 303 303 306 312 315 313 314 311 310 311 310 311 310 311 311 312 312 312 313 312 310 310 308 309 308 311 311 312 311 313 315 313 317 315 317 320 319 319 322 323
296 297 297 299 298 301 301 302 304 310 312 314 313 312 311 311 311 312 311 311 311 312 313 314 313 314 312 312 313 310 311 311 311 311 312 312 314 315 319 319 319 319 321 322 321 320 324
296 296 296 298 298 300 301 302 303 309 312 314 313 314 312 312 311 312 312 312 313 311 311 313 315 314 313 312 311 312 310 313 311 311 311 311 314 318 324 324 322 324 322 322 321 325 320
296 296 296 297 298 300 301 301 303 304 313 314 312 313 312 312 312 313 313 313 314 313 311 313 313 314 314 312 311 312 313 313 313 314 311 311 314 312 314 317 322 322 322 321 317 322 320
296 295 296 296 298 299 301 300 303 307 311 314 312 312 312 311 311 312 313 315 315 312 313 316 316 314 313 314 311 312 314 313 313 314 312 311 316 318 325 323 324 324 324 324 323 323 322
296 295 296 296 298 299 300 300 302 308 312 313 312 312 314 314 313 313 313 312 314 314 313 313 314 315 316 315 315 312 315 312 312 316 315 317 318 322 320 323 324 325 324 323 322 322 322
296 295 295 296 298 298 299 300 302 304 306 312 312 312 312 314 314 314 314 313 314 315 315 314 314 314 315 316 317 317 317 313 314 314 315 316 319 320 318 317 320 317 315 319 321 321 320
295 295 295 296 297 298 299 299 301 303 309 312 313 312 312 314 313 313 312 311 314 315 315 315 315 313 315 317 318 320 319 318 316 312 315 317 317 320 320 319 319 316 314 317 318 319 317
295 295 294 295 297 298 298 299 301 303 308 310 313 313 312 312 313 312 310 312 311 312 313 313 314 314 317 317 319 321 322 321 320 318 315 318 316 320 311 317 323 316 314 313 314 318 313
295 295 295 295 297 298 298 299 300 304 308 311 312 312 312 311 312 312 311 312 312 312 313 310 311 313 315 317 320 316 318 316 319 321 320 321 320 320 320 320 317 315 314 313 319 317 312
295 295 295 295 297 298 298 299 300 303 308 310 311 311 311 311 311 311 309 310 311 311 313 311 313 313 315 318 319 320 319 317 317 316 320 321 321 322 321 322 321 313 313 314 312 313 312
294 294 294 295 296 297 298 299 300 303 305 309 311 311 311 311 311 311 311 311 311 310 311 312 313 314 315 317 316 318 315 315 315 321 316 321 318 320 319 319 314 313 314 314 314 313 312

GFSGBSN_850_thetae_012.txt.gz
Theta_e
315 317 319 318 317 314 310 313 315 316 316 315 315 312 311 305 305 309 308 310 310 308 308 308 307 310 308 314 316 316 315 315 316 320 322 322 320 320 318 318 320 320 321 324 326 327 326
310 314 317 319 319 318 314 309 315 315 316 315 315 313 313 309 304 309 309 311 311 310 308 309 308 311 311 312 310 315 316 316 315 317 318 320 320 319 320 318 317 319 319 321 323 324 325
305 307 310 315 317 319 317 312 312 314 315 315 315 315 313 309 304 307 309 311 313 311 310 307 308 310 312 311 312 312 314 314 315 315 315 319 316 321 321 319 320 320 321 321 321 323 324
305 305 306 309 313 317 318 315 309 313 314 315 315 315 314 308 306 305 308 312 312 314 311 309 308 309 309 310 310 313 314 314 315 316 315 315 314 314 315 319 318 319 319 323 322 323 324
303 305 305 305 307 312 316 316 315 312 314 315 314 315 315 310 310 305 311 310 310 309 311 310 310 308 308 310 309 310 312 313 313 315 314 314 312 313 314 319 319 318 320 319 322 321 324
302 303 302 304 304 308 311 315 316 312 313 315 315 315 314 312 310 306 311 310 311 310 311 313 310 311 311 310 310 310 312 312 312 312 312 313 313 312 312 318 320 320 319 318 318 322 323
301 301 302 303 304 304 307 311 315 315 313 312 314 314 315 313 311 308 310 309 309 309 312 313 312 311 310 312 311 311 311 312 312 312 310 311 313 313 311 313 315 316 316 316 316 317 319
300 300 301 302 303 303 304 307 311 315 312 313 314 314 315 315 311 310 309 309 310 310 311 311 312 311 311 312 312 311 311 311 312 313 310 311 312 311 311 311 314 314 315 317 316 316 318
298 298 299 301 302 303 303 303 307 312 312 313 313 314 315 314 310 309 307 310 310 309 309 310 311 312 312 312 312 312 311 311 311 312 311 312 310 310 312 313 314 314 315 314 315 316 316
299 299 298 301 301 302 303 305 303 307 313 312 313 313 314 312 310 308 308 310 309 309 308 309 309 311 311 312 312 312 312 311 311 312 310 311 310 310 311 313 313 315 314 316 317 318 319
299 299 298 300 300 301 302 303 305 303 310 313 313 314 314 313 309 307 307 309 309 309 299 307 309 310 311 312 311 311 312 311 312 311 310 312 310 311 311 311 313 314 313 314 315 317 317
298 298 298 299 300 301 302 303 304 305 306 312 314 314 314 311 306 306 307 308 310 301 301 311 310 310 311 311 311 311 311 312 312 312 311 310 310 310 311 310 310 312 314 315 315 317 319
298 297 298 299 299 301 301 302 304 305 305 309 313 314 314 310 306 307 310 311 307 300 307 311 311 310 310 311 311 311 312 312 313 313 312 310 310 310 312 313 312 311 312 314 315 316 318
298 297 298 299 299 300 300 303 304 305 306 306 309 314 314 307 307 309 311 307 300 307 309 311 310 310 311 310 311 311 312 311 311 311 312 312 311 311 310 311 313 313 313 313 313 314 315
297 297 297 298 299 299 300 303 303 305 306 307 307 313 312 307 309 309 309 307 303 308 311 311 310 312 313 311 311 311 312 310 309 309 311 311 309 309 310 310 311 312 313 311 314 316 319
297 297 297 298 298 298 299 301 304 305 306 306 308 313 310 306 308 310 308 306 307 311 312 311 313 311 311 310 311 310 310 309 310 309 308 307 307 309 310 310 310 311 311 313 313 315 318
297 297 297 297 298 298 300 301 302 304 305 306 306 310 309 307 309 308 309 308 309 312 311 312 314 315 311 309 309 309 309 309 309 309 308 308 309 311 309 311 312 312 312 313 312 315 323
297 297 297 296 297 298 299 301 301 302 304 306 311 308 309 309 310 308 311 310 310 310 311 311 311 313 312 309 309 307 309 308 309 309 310 309 312 312 311 310 312 311 312 312 315 313 318
297 297 297 296 297 296 299 301 301 303 306 308 312 311 309 309 310 309 310 310 310 312 312 312 314 313 311 310 311 309 309 309 311 311 312 312 313 313 313 313 312 315 312 313 314 318 320
296 297 297 296 297 297 299 300 301 303 302 309 308 311 310 310 311 311 311 311 312 311 311 313 314 313 313 314 310 311 311 311 310 311 312 311 313 314 314 319 316 319 316 314 314 319 318
296 296 297 296 297 297 299 300 300 302 305 307 309 313 311 310 311 311 311 312 312 313 311 312 312 313 314 312 310 311 311 311 312 312 312 310 313 311 313 314 315 319 318 318 320 318 317
296 296 296 295 296 298 298 300 300 301 306 308 311 312 311 311 311 313 312 313 314 313 313 314 313 314 312 313 311 311 310 312 312 312 311 311 312 312 319 317 316 322 319 320 321 317 316
295 296 296 295 295 297 298 299 300 301 303 306 311 312 312 311 311 312 313 313 313 313 312 312 313 315 314 313 312 314 313 313 313 313 312 312 312 318 323 322 322 325 322 321 315 314 314
296 296 296 296 295 297 297 299 300 301 303 304 310 313 313 314 312 313 313 312 312 312 313 313 313 314 313 315 317 316 316 315 311 313 313 314 318 319 322 322 320 317 318 318 319 321 320
295 296 296 296 295 296 297 299 300 301 303 306 311 312 312 314 314 313 313 311 311 312 313 314 313 314 314 314 317 318 316 318 316 313 315 315 318 318 320 318 317 317 314 318 322 321 315
295 295 295 295 295 296 298 298 300 301 302 307 312 312 312 313 313 314 312 312 312 310 312 313 313 314 313 315 318 318 321 317 318 318 314 315 316 319 311 317 322 317 314 312 313 318 313
295 295 295 295 295 295 297 298 299 300 302 306 311 313 312 312 312 312 311 312 311 311 312 311 311 313 315 317 319 318 318 316 320 317 320 320 319 319 316 319 315 314 313 312 319 316 312
295 295 295 295 295 295 297 298 298 300 301 305 310 312 312 312 312 311 312 312 311 310 312 311 313 313 315 317 318 319 318 314 315 315 318 320 321 320 318 319 316 313 313 314 311 311 311
295 294 295 294 294 295 296 297 298 300 302 306 310 311 311 311 311 312 312 311 311 311 311 311 312 313 315 317 315 318 317 313 314 317 314 319 318 319 316 315 312 312 313 313 313 312 310

GFSGBSN_850_thetae_015.txt.gz
Theta_e
306 308 310 312 315 317 320 318 312 312 314 316 316 315 315 312 309 310 308 308 309 308 308 308 307 307 307 315 317 316 315 316 319 322 323 323 321 319 317 317 318 319 320 322 322 324 326
305 306 305 307 308 313 316 317 317 311 313 314 315 315 315 313 311 308 311 308 311 310 308 309 308 310 310 310 308 315 316 316 317 320 321 322 321 320 319 317 317 317 317 318 319 321 322
304 304 304 304 306 307 311 314 317 316 311 313 314 315 315 315 312 308 311 310 312 311 309 307 308 309 312 310 311 310 316 316 315 315 315 317 317 320 320 319 319 319 318 318 319 320 321
303 303 303 304 303 305 306 310 313 316 315 312 313 314 314 314 313 308 306 309 312 314 312 309 308 309 309 310 310 312 311 314 315 315 316 315 318 315 315 316 318 319 317 320 318 319 321
301 301 302 302 303 304 304 306 309 312 315 313 313 313 314 315 314 308 307 309 311 311 312 311 310 309 309 310 309 311 313 313 314 314 315 315 313 312 314 318 319 318 318 318 318 319 322
301 300 300 301 302 302 303 303 305 309 313 315 313 313 315 314 314 309 306 312 310 310 310 312 310 310 310 310 310 310 310 312 312 312 313 312 313 313 314 317 317 316 318 317 317 320 319
299 299 300 299 300 301 302 303 304 305 310 313 313 314 315 315 314 311 307 312 309 309 312 313 312 312 310 311 311 311 310 311 312 311 310 310 313 315 314 312 313 314 316 316 314 315 315
300 300 299 301 299 300 302 302 303 304 306 311 313 314 314 314 314 312 308 311 309 310 310 312 312 312 311 311 312 311 311 312 312 311 309 311 311 310 310 310 311 312 314 315 313 314 315
299 299 299 299 299 300 301 302 303 304 304 306 311 313 313 314 315 312 310 309 309 310 308 309 310 312 312 312 312 312 311 312 310 311 310 311 310 310 310 311 312 312 312 313 313 312 312
299 299 299 299 299 300 300 301 302 303 303 305 309 313 314 314 313 312 310 308 309 309 299 306 309 310 311 312 312 312 311 311 311 312 312 312 311 310 310 310 311 312 312 313 314 314 314
299 299 299 298 298 299 300 301 301 302 302 307 307 312 314 314 313 311 310 307 310 309 300 306 308 310 312 311 312 311 312 311 312 311 310 312 310 310 310 310 310 312 312 312 314 315 314
299 298 298 298 298 300 299 300 301 302 303 303 305 309 313 314 312 312 310 307 309 300 301 310 309 310 311 311 312 311 312 312 312 313 311 310 309 310 310 310 310 312 312 313 314 314 315
299 298 298 298 298 299 299 299 300 303 303 304 305 309 312 313 311 307 307 309 305 300 307 310 310 310 309 310 311 312 311 313 314 314 312 311 312 309 310 311 310 310 312 315 316 317 315
299 298 298 298 298 299 299 299 299 303 304 305 304 306 308 313 311 306 308 307 303 306 308 309 309 309 310 309 311 311 312 311 311 311 312 312 312 312 309 311 312 311 311 313 314 313 311
298 298 298 298 298 298 298 299 300 302 304 305 305 305 304 312 309 308 309 307 304 305 309 310 310 311 311 311 311 310 310 310 310 309 310 309 310 309 309 310 311 313 314 310 312 312 317
297 298 297 298 298 297 298 301 301 301 304 305 305 303 306 311 307 309 308 305 305 309 310 310 310 311 311 310 310 309 309 308 310 308 308 309 309 308 309 309 309 310 310 313 313 314 314
297 297 297 297 298 297 298 300 300 301 303 303 304 304 308 308 309 309 310 305 307 311 311 311 311 312 310 310 309 309 308 307 308 308 308 309 306 306 308 310 310 311 311 312 311 310 310
297 297 297 297 297 297 297 299 300 301 302 306 305 305 308 309 309 309 310 307 308 311 311 311 311 311 312 309 309 307 308 308 308 308 310 309 310 310 308 310 310 310 310 310 314 308 309
297 296 296 297 296 297 297 299 300 301 302 303 307 306 309 309 309 309 309 309 310 311 311 311 312 311 312 310 310 308 308 308 309 309 310 310 312 312 314 312 310 312 311 310 310 312 311
296 296 296 296 296 296 297 299 300 301 301 304 308 305 308 308 309 308 310 309 311 310 310 311 312 313 313 312 309 310 309 310 309 309 311 310 312 313 313 315 311 313 312 311 310 311 312
296 296 296 296 296 296 297 298 300 301 302 305 305 308 306 308 309 308 308 311 311 313 310 311 312 313 314 312 312 311 311 311 311 312 312 311 311 311 312 312 312 314 313 312 312 311 312
296 296 296 296 296 295 297 298 300 301 304 307 308 311 309 309 309 310 310 311 313 312 312 313 313 313 312 315 310 309 310 311 312 313 312 311 310 311 313 312 313 315 314 315 313 313 313
296 296 296 297 296 295 296 298 299 301 301 301 306 312 311 309 310 312 312 311 312 313 312 312 313 313 314 314 312 311 311 312 312 313 313 310 310 314 319 318 317 318 315 316 315 315 315
296 295 296 296 296 296 296 298 299 301 301 302 305 307 312 311 310 311 312 312 312 312 313 312 312 314 313 314 314 314 313 313 311 312 311 313 313 313 319 317 324 318 319 317 317 317 315
295 296 295 295 295 295 296 297 298 300 301 303 306 309 312 313 311 311 312 312 312 312 312 311 313 313 313 313 315 317 316 315 314 310 311 312 316 320 321 317 318 317 320 319 317 317 316
295 296 295 295 295 295 295 297 298 299 301 304 309 310 311 312 313 313 312 311 313 312 311 313 313 314 313 315 317 318 318 316 316 316 312 313 314 319 317 317 321 315 313 316 315 319 315
295 296 295 294 295 295 295 297 298 299 301 303 309 310 312 312 312 313 312 312 311 310 310 311 311 311 312 315 318 317 317 315 317 316 317 319 319 319 317 319 314 313 312 312 318 316 310
295 295 295 295 295 295 295 296 298 299 301 302 307 310 312 312 312 312 312 312 311 310 311 310 311 313 314 317 317 317 315 314 314 313 316 316 316 315 317 317 315 311 312 314 310 310 311
296 295 295 295 294 295 295 295 297 298 300 301 305 310 312 312 312 311 311 312 312 311 311 311 312 313 314 316 314 314 318 312 312 316 312 317 316 317 314 313 311 312 312 312 311 311 309

GFSGBSN_850_thetae_018.txt.gz
Theta_e
305 305 305 305 305 306 309 312 315 317 318 311 313 315 315 315 314 312 309 309 309 309 308 308 307 307 310 317 318 315 315 316 319 322 323 321 320 317 316 316 317 318 318 320 321 321 321
303 303 304 304 303 304 304 306 308 314 316 317 312 313 315 316 314 313 309 311 310 310 309 309 308 311 310 311 309 315 315 317 320 323 324 322 321 320 318 317 316 316 317 317 318 319 320
302 302 302 302 303 304 304 305 305 308 312 316 315 314 314 315 314 314 311 311 310 312 310 307 309 310 312 309 310 310 316 316 318 322 321 320 321 319 319 318 318 318 318 316 317 318 318
302 302 302 302 301 302 302 303 304 304 307 313 313 313 313 314 315 314 311 309 310 312 313 310 308 309 308 309 309 312 313 316 315 315 315 314 317 318 317 315 316 318 318 318 315 317 318
301 301 301 301 301 302 302 302 302 303 304 308 310 314 313 313 314 313 311 307 309 311 314 312 310 308 309 310 310 310 312 312 315 315 315 315 314 313 313 315 315 317 317 318 317 316 318
300 300 300 301 301 300 300 301 302 303 303 304 308 312 313 314 315 315 311 308 310 310 310 311 310 310 311 310 310 309 312 312 313 313 314 314 312 312 314 316 315 315 317 317 317 315 315
301 300 300 299 300 300 299 301 301 301 303 304 305 310 313 313 315 315 309 310 311 309 310 312 312 311 310 310 310 310 310 311 311 311 311 310 313 315 314 312 313 313 314 315 314 314 314
300 301 300 300 300 300 299 300 301 301 303 304 303 306 312 313 315 315 310 309 310 308 309 311 313 311 311 311 311 311 310 311 311 311 309 311 311 310 311 311 313 313 313 313 311 312 312
301 300 300 300 299 299 299 300 300 301 302 303 303 304 308 313 316 314 310 309 309 309 307 308 310 312 312 311 311 311 311 311 310 310 310 311 310 309 310 310 311 310 311 311 310 310 310
300 300 300 299 299 299 299 300 300 300 301 301 301 303 308 311 315 313 311 309 309 309 298 304 309 310 311 312 311 311 311 311 310 311 311 311 310 310 309 310 309 311 310 311 312 312 312
300 300 299 299 299 299 298 300 301 300 301 303 301 302 306 309 313 313 312 309 308 308 302 306 309 310 311 311 311 311 311 311 312 310 311 312 310 310 311 310 308 310 310 311 312 313 312
300 299 299 299 298 298 299 300 299 300 301 303 302 303 303 306 311 313 312 308 308 300 301 310 309 311 313 311 312 310 312 311 311 312 311 310 309 309 309 309 309 310 310 311 312 313 315
299 299 298 298 298 299 299 299 299 300 301 303 304 304 303 305 311 312 310 309 307 305 307 309 309 310 311 311 311 312 312 313 313 313 313 312 312 310 309 309 309 310 314 314 316 315 313
300 298 298 297 298 298 298 299 300 301 302 304 305 305 303 304 311 311 307 304 306 306 308 309 308 308 309 309 311 311 312 312 312 312 313 312 308 310 310 310 310 310 311 314 315 310 309
298 298 298 298 298 298 298 298 300 301 302 304 305 305 305 304 309 309 307 307 307 305 309 310 309 309 310 310 310 310 312 312 310 311 312 309 307 308 309 309 310 313 311 310 313 312 315
298 298 297 297 298 298 297 298 301 301 302 302 304 304 304 305 308 308 307 306 305 306 308 309 309 309 310 311 311 311 308 307 309 308 307 308 310 306 308 308 309 311 311 314 312 313 313
298 297 297 297 297 297 297 298 300 301 301 304 304 304 305 306 306 308 309 306 305 310 309 310 310 310 310 310 310 309 307 306 307 307 307 308 308 306 308 309 309 311 312 312 311 313 311
297 297 296 297 296 297 297 298 299 301 302 302 304 305 305 306 307 309 309 305 308 310 310 310 310 311 310 309 308 307 307 306 307 307 309 309 311 310 309 308 309 309 310 310 311 307 308
297 297 296 296 296 296 296 298 299 301 302 302 305 306 307 306 308 309 309 308 309 311 311 311 311 310 311 311 310 307 307 307 307 308 309 309 311 312 311 310 310 311 310 310 310 311 310
296 296 296 296 296 296 296 297 299 301 302 302 306 306 307 307 307 309 309 309 309 310 311 311 312 312 311 312 308 309 308 309 307 308 309 309 312 311 313 313 312 313 312 311 311 311 310
295 295 296 296 296 296 296 297 298 301 302 304 306 306 305 306 307 308 308 308 310 312 310 311 312 310 314 314 312 311 308 309 309 309 311 311 312 311 311 311 311 313 313 312 312 310 310
295 295 295 295 296 296 296 296 298 300 301 305 307 309 306 306 308 308 308 308 309 310 311 312 311 312 312 314 311 310 310 310 311 312 312 311 312 311 312 311 311 313 314 313 312 311 311
295 295 296 296 295 296 296 296 298 300 301 301 302 305 309 308 310 308 308 310 311 311 311 311 312 312 313 313 311 312 312 310 311 313 312 311 310 314 314 314 316 318 313 313 312 312 311
296 296 295 296 296 296 295 295 298 299 300 300 301 304 310 310 309 310 311 309 312 312 312 312 311 313 313 313 313 313 312 310 310 311 312 313 312 313 314 316 324 319 317 313 312 313 312
295 296 296 296 295 296 295 296 297 298 300 301 304 305 311 310 310 310 312 311 311 312 312 312 312 312 313 313 314 313 315 314 313 312 311 312 314 318 320 319 318 317 319 317 316 316 313
296 296 296 295 295 295 295 295 297 298 300 302 308 308 310 311 309 310 310 311 312 312 312 311 311 312 312 314 315 316 314 316 314 314 308 309 310 315 317 320 320 314 316 315 316 322 315
296 296 296 295 295 295 295 295 296 298 299 301 306 308 310 311 311 312 311 312 312 310 311 310 310 311 313 314 316 316 318 313 315 316 318 317 317 319 318 318 314 312 310 314 320 317 309
295 295 295 295 295 295 295 295 295 298 298 301 307 308 310 311 312 312 312 312 311 311 312 310 311 311 312 315 316 316 317 313 313 311 314 314 316 315 314 316 314 310 311 313 310 310 310
295 295 295 295 295 295 295 295 295 297 298 300 302 308 310 311 312 312 312 312 312 312 311 310 311 312 312 316 314 314 317 311 310 314 311 315 314 315 312 312 309 311 311 312 310 310 310

GFSGBSN_850_thetae_021.txt.gz
Theta_e
303 304 304 303 303 303 303 305 305 306 307 310 315 314 314 314 316 315 314 311 308 308 308 308 308 306 312 317 317 316 315 316 318 323 322 321 319 316 316 316 317 319 318 319 320 319 320
303 303 303 302 303 303 302 303 303 304 305 306 311 314 314 314 315 316 314 313 310 310 309 309 308 310 309 311 311 315 316 316 318 322 323 321 320 318 317 316 316 316 316 317 317 318 318
303 302 302 302 302 302 302 302 302 303 304 305 306 311 313 314 314 316 314 313 309 310 311 309 309 309 310 309 309 309 315 317 321 321 321 321 320 318 318 318 318 318 318 316 316 317 318
302 302 301 302 301 301 301 301 301 302 303 304 304 307 310 314 314 315 315 313 309 311 312 310 308 309 309 309 309 309 314 317 322 320 317 318 318 319 318 315 315 318 318 318 315 316 317
300 301 301 301 302 301 301 301 300 302 302 302 303 304 308 312 313 314 315 312 308 311 312 313 311 308 309 309 309 309 312 315 315 315 315 315 316 314 313 315 314 316 316 318 316 315 317
301 301 301 301 300 301 301 300 300 301 301 302 302 302 305 308 313 314 316 312 308 311 311 312 311 310 310 310 309 309 312 312 313 314 314 313 313 313 314 315 315 314 316 315 316 315 314
302 301 301 301 301 300 300 300 300 302 301 301 302 303 303 305 310 314 315 309 310 309 310 311 311 310 310 310 310 310 311 312 312 313 312 310 314 314 314 313 313 313 315 315 314 313 313
301 301 301 301 301 301 300 299 300 300 300 302 302 301 302 302 309 313 314 310 310 310 308 309 311 311 311 311 310 311 310 311 311 311 308 311 313 312 310 313 313 314 315 315 313 311 312
301 301 301 301 300 300 300 300 299 299 301 302 301 301 303 301 307 310 311 311 311 310 306 307 309 311 311 311 311 311 310 311 310 310 310 311 310 309 310 311 312 312 313 312 312 310 310
302 301 301 300 300 300 300 299 299 299 300 300 301 302 302 302 306 310 311 309 310 310 299 305 308 310 311 311 311 311 310 311 310 312 311 310 310 310 309 311 310 312 310 311 312 311 311
301 301 301 300 299 299 299 299 300 300 300 300 301 303 304 303 306 310 310 309 309 307 302 305 308 310 311 310 309 311 311 311 311 311 310 311 310 310 311 311 308 311 309 310 311 312 311
301 301 301 299 299 299 299 299 299 299 300 300 303 303 303 303 306 306 310 309 308 304 304 309 308 311 311 310 311 311 311 311 311 311 311 309 309 309 309 309 309 310 310 310 312 313 315
300 300 299 298 298 298 298 299 298 300 301 302 303 305 304 304 303 307 309 308 307 304 307 309 309 311 312 311 312 311 313 312 313 313 313 312 312 310 309 310 309 310 313 315 314 316 314
299 299 299 298 298 298 298 298 298 300 301 302 302 304 305 304 306 309 308 306 307 306 307 308 309 310 311 310 311 312 312 313 312 312 313 311 308 311 310 310 310 311 311 313 314 312 312
299 299 298 298 298 297 298 298 297 299 301 302 302 305 304 304 304 309 305 308 306 305 308 309 309 310 309 309 310 311 311 312 311 312 314 310 310 307 309 308 309 312 312 310 312 311 313
298 299 297 298 297 296 297 297 298 299 302 302 302 304 303 304 306 307 306 309 304 307 308 308 310 309 310 309 310 310 309 307 310 310 309 307 310 305 308 309 309 311 309 312 312 312 313
298 297 297 297 297 296 297 297 298 300 301 302 303 303 304 305 309 304 309 306 306 309 308 309 309 309 309 310 309 311 307 306 307 306 308 307 308 306 307 310 309 311 312 312 311 312 313
297 297 297 297 296 296 296 296 298 299 301 302 302 305 305 306 303 301 306 306 310 309 310 310 309 309 308 308 310 308 307 305 306 306 308 308 309 309 307 308 309 310 311 311 313 311 311
297 297 297 296 296 296 297 296 297 299 301 302 302 305 308 305 307 307 307 308 309 310 310 310 310 310 309 308 309 307 306 306 307 307 308 309 310 309 309 310 309 310 310 310 310 311 312
297 297 297 296 296 296 297 296 297 299 301 302 302 305 303 305 306 308 308 309 309 309 310 310 311 310 311 312 309 308 307 307 306 308 309 308 309 307 311 312 312 311 311 310 310 312 311
297 297 296 296 296 296 296 296 297 299 301 303 305 306 304 306 308 308 307 308 309 310 310 310 311 310 312 313 312 311 307 308 307 308 309 309 312 311 311 311 311 311 312 312 312 310 311
297 297 296 296 296 296 296 295 297 298 300 301 303 306 306 305 308 308 309 307 308 310 310 311 311 312 310 314 312 311 309 308 309 307 310 310 312 312 313 312 312 312 312 311 312 311 311
297 296 296 296 296 296 296 295 296 298 300 301 301 302 306 308 307 307 307 307 308 309 310 311 311 311 312 312 312 312 312 310 310 312 311 312 311 313 315 314 315 318 317 314 313 312 311
297 297 296 296 295 296 296 295 296 297 300 300 300 301 306 309 308 308 307 309 310 309 312 312 311 312 313 312 313 313 312 311 311 310 310 313 313 313 314 316 323 318 316 315 313 312 311
296 296 296 296 295 296 296 295 296 297 299 300 302 302 308 310 309 308 308 308 309 310 312 312 312 312 312 313 313 315 312 313 312 310 311 310 314 316 319 319 318 317 315 316 314 315 311
296 296 296 296 295 295 296 295 295 296 299 301 304 305 306 310 308 309 310 310 310 310 312 311 311 311 312 313 314 317 313 313 313 312 307 310 312 315 315 319 322 315 313 315 315 319 313
296 296 295 295 295 295 295 294 295 296 298 300 304 304 307 310 311 309 309 311 312 311 311 310 311 312 312 314 316 316 314 313 314 315 314 315 314 315 316 319 314 312 309 314 318 316 308
294 295 295 295 294 294 294 295 291 295 297 299 302 304 305 309 311 311 310 311 311 311 312 310 311 311 313 314 315 315 313 311 312 310 312 313 313 315 316 316 314 309 313 314 310 310 309
290 294 294 294 294 294 295 295 290 295 297 298 300 304 308 309 311 311 311 312 312 312 311 310 311 311 312 313 314 315 313 311 309 313 309 314 312 313 311 312 309 312 310 311 310 309 309

GFSGBSN_850_thetae_024.txt.gz
Theta_e
304 304 303 303 303 303 303 303 303 302 304 304 305 306 312 314 314 314 317 314 313 307 308 309 309 306 316 318 319 317 315 317 318 324 323 322 320 320 321 319 320 321 320 320 320 321 321
303 303 303 302 303 303 303 303 302 302 303 304 305 305 307 312 314 314 316 315 313 309 309 309 309 309 311 316 315 316 316 316 320 324 324 321 321 319 319 319 319 318 319 319 319 319 319
302 302 303 303 303 302 302 302 302 302 301 302 303 304 305 309 312 314 315 316 313 309 310 310 309 309 312 311 309 308 312 316 319 323 322 322 321 320 320 320 319 319 320 319 319 318 319
303 303 302 303 302 302 301 302 301 302 301 302 303 303 302 305 310 313 314 317 313 309 311 311 308 309 311 309 309 310 313 318 321 320 322 322 320 319 318 317 317 318 319 321 319 318 318
303 304 303 302 302 302 301 302 301 301 301 302 302 302 303 303 306 310 314 316 312 310 312 312 311 309 311 309 309 309 312 317 318 315 317 319 318 316 316 318 319 318 320 320 319 317 318
304 303 302 302 303 302 302 301 300 301 300 301 300 302 302 303 302 308 313 316 312 309 312 313 311 311 311 311 310 309 312 316 315 314 315 316 315 316 316 318 320 318 319 317 317 317 317
303 303 303 302 302 302 301 301 301 301 300 300 301 302 302 302 303 306 310 315 311 311 312 313 312 311 311 310 309 310 311 312 313 315 316 314 316 316 316 315 316 315 316 317 317 316 316
302 302 303 302 302 302 301 300 300 301 300 299 301 302 301 302 303 302 306 311 309 310 311 311 311 311 311 311 311 311 311 312 314 316 314 314 316 314 313 314 314 314 315 315 315 314 314
302 302 302 302 301 301 300 300 300 300 301 301 301 301 301 301 303 303 302 311 310 309 310 309 311 312 311 311 312 311 312 312 313 314 314 315 313 311 313 314 314 314 314 314 313 314 313
301 301 301 300 300 300 299 299 299 300 300 300 301 300 303 303 303 302 305 307 310 309 313 309 310 310 311 312 312 312 311 312 312 314 313 313 312 311 312 313 313 315 313 313 313 313 314
300 300 300 299 299 299 298 299 299 300 299 300 301 302 303 303 304 306 306 307 309 309 316 309 309 310 311 310 311 311 311 311 313 313 312 313 312 313 312 312 312 313 311 311 312 313 313
300 300 299 299 299 298 298 298 299 299 299 300 301 301 303 303 303 304 308 310 308 309 313 310 309 312 312 310 311 311 311 311 311 312 312 312 310 311 312 312 311 311 312 312 312 313 317
299 299 298 298 298 298 298 298 299 299 300 301 302 302 302 304 304 303 307 306 308 315 308 310 310 312 311 311 312 312 312 313 313 314 314 313 312 311 310 311 311 311 312 314 315 316 315
299 298 298 298 298 299 298 298 298 299 300 302 303 301 303 304 303 304 305 305 314 310 311 309 310 312 312 310 311 311 313 313 312 312 313 313 316 313 311 311 312 312 312 314 314 314 313
299 298 298 298 298 297 298 297 297 299 300 302 302 303 304 304 304 304 304 312 312 309 309 309 310 311 311 310 311 311 312 312 312 312 313 314 311 309 311 311 310 312 313 312 313 313 314
298 298 298 298 298 297 297 297 298 298 300 302 301 302 304 304 303 304 307 312 307 309 309 310 311 310 310 310 311 311 311 311 311 311 311 311 312 308 310 310 311 312 311 313 313 313 313
298 298 298 297 297 296 297 297 297 299 300 302 302 301 303 305 304 304 311 309 310 309 309 310 310 311 311 310 311 311 311 309 310 311 312 310 309 310 310 310 311 311 312 314 312 314 313
298 297 297 297 297 296 296 297 297 298 300 301 302 305 305 305 304 303 310 308 310 310 310 310 310 310 311 311 311 311 311 309 308 309 312 310 310 310 310 309 310 310 311 311 314 314 314
298 297 298 297 297 296 297 296 297 298 300 303 303 303 305 305 309 309 307 310 311 311 311 311 311 311 310 311 312 310 309 308 307 309 310 310 311 312 313 313 310 311 310 311 312 312 315
298 297 297 297 297 296 297 296 297 298 300 303 303 305 304 305 307 309 310 310 311 310 311 312 311 312 312 311 310 311 310 309 308 309 309 309 311 312 315 316 315 314 312 312 312 314 314
298 297 297 297 297 296 297 295 297 298 301 303 305 305 305 308 309 309 309 310 311 311 311 311 312 312 312 313 312 311 310 310 309 308 309 310 312 311 311 311 312 313 313 313 313 312 313
297 298 297 297 297 296 296 295 297 297 301 301 301 303 305 307 308 308 308 310 311 311 311 312 312 312 312 313 312 313 312 312 312 310 311 311 313 313 313 313 314 315 315 315 314 314 313
297 297 296 297 297 296 296 295 296 297 301 300 301 301 303 307 309 309 310 308 310 311 310 311 311 312 312 312 311 312 311 310 311 311 311 312 312 313 316 314 315 320 318 317 316 313 313
297 296 296 296 296 294 296 296 295 296 299 300 301 301 303 309 309 310 309 309 309 310 313 312 311 312 313 312 312 312 313 313 313 313 312 313 313 313 315 316 324 320 316 315 317 315 314
296 296 296 296 296 295 295 295 296 295 298 300 302 302 304 310 309 309 309 310 311 310 311 311 312 312 312 312 313 314 315 314 314 314 314 313 313 317 318 319 317 319 317 318 316 318 314
295 295 295 296 296 295 295 295 295 294 298 301 302 302 304 309 310 309 309 309 310 311 311 311 311 311 311 313 314 317 316 315 316 314 311 313 313 315 317 319 321 320 314 316 314 319 313
294 295 294 295 295 295 293 295 294 292 297 299 301 302 303 307 310 309 310 311 312 311 313 311 312 312 311 313 314 317 315 314 317 317 315 315 314 316 317 318 318 315 312 314 319 317 311
291 294 294 293 293 294 295 295 293 291 296 297 299 302 301 303 310 309 309 310 311 312 313 311 311 311 312 314 315 316 316 315 316 315 316 318 318 318 317 318 320 312 315 318 314 311 310
291 293 294 293 290 293 293 291 291 293 295 296 299 302 303 303 310 311 310 310 310 310 311 310 311 312 312 313 313 314 316 315 315 317 312 318 316 319 318 318 314 312 313 312 310 309 309

GFSGBSN_850_thetae_027.txt.gz
Theta_e
304 303 304 304 304 304 304 304 303 303 303 303 303 305 306 305 310 313 314 315 317 314 311 307 308 306 315 318 320 319 317 318 321 323 323 322 321 320 321 320 319 321 322 320 321 322 322
304 303 304 304 304 304 303 304 303 303 303 303 303 304 304 305 306 311 314 315 317 314 312 308 309 308 314 317 316 318 316 317 320 324 324 323 322 321 321 321 321 321 321 320 321 320 320
304 304 304 304 304 303 303 303 302 303 303 303 302 303 303 304 303 308 312 315 314 314 312 310 310 309 313 313 312 313 316 317 322 323 325 323 322 321 322 321 320 320 322 322 321 320 321
304 304 305 303 303 304 303 302 302 302 302 302 302 302 302 303 303 305 309 314 315 314 311 310 310 313 314 313 313 310 313 319 320 323 323 323 321 321 321 319 319 320 321 323 321 320 320
304 304 304 304 304 303 304 303 302 301 300 301 302 301 300 302 303 303 306 311 314 315 311 311 310 313 314 311 310 312 313 318 318 321 323 322 320 319 318 320 321 321 323 323 322 320 320
303 304 304 304 304 304 303 302 301 301 301 301 301 300 301 302 303 303 303 308 313 315 311 312 313 313 312 312 312 311 313 317 316 319 320 320 316 317 318 320 325 323 322 321 320 319 318
303 304 303 303 303 303 301 301 300 300 301 301 301 301 301 301 302 302 303 306 313 313 314 313 313 313 313 312 311 312 314 316 316 317 318 317 318 320 320 320 319 318 318 319 319 318 317
302 302 302 302 302 301 300 300 299 299 300 300 301 301 301 301 301 302 302 304 305 311 313 313 313 312 312 312 312 312 314 315 315 317 315 316 318 317 316 316 316 317 318 318 317 316 316
301 302 301 301 301 300 299 299 300 299 299 300 300 301 301 301 300 302 303 304 306 309 312 313 312 312 312 312 313 313 313 314 315 316 316 318 316 314 315 316 316 317 316 316 316 315 314
301 301 301 300 299 299 299 299 299 299 299 300 300 300 301 302 304 304 303 304 303 307 313 312 312 312 312 313 314 312 313 313 314 315 315 315 314 313 314 315 315 317 315 315 315 315 317
301 301 300 299 299 299 299 299 298 298 299 299 300 301 303 302 303 305 306 304 306 307 319 311 311 311 312 312 313 313 313 312 314 315 314 316 313 314 313 314 313 314 313 313 314 314 314
300 300 299 299 298 298 299 298 299 299 299 300 301 302 302 303 304 305 306 304 306 310 318 311 310 311 312 311 312 312 312 312 312 312 313 314 312 313 313 313 313 312 312 312 313 312 315
300 300 299 299 298 298 298 298 298 298 299 300 301 302 302 303 305 305 307 303 307 314 310 311 311 312 312 311 312 313 313 313 314 314 314 313 313 312 311 313 312 312 313 315 318 317 316
300 299 298 298 298 298 297 298 298 299 299 300 301 302 303 305 304 303 305 307 313 312 311 309 311 312 313 311 312 312 313 314 312 312 314 313 318 313 312 312 313 313 313 315 316 317 316
299 298 298 298 298 298 298 298 298 298 299 300 301 303 305 304 304 304 303 311 315 312 310 311 312 313 314 311 312 313 313 313 312 312 315 315 314 311 313 312 311 312 313 312 314 313 314
299 299 298 298 298 298 298 298 297 299 299 301 302 302 305 304 304 305 306 312 310 311 310 312 313 311 312 312 313 312 312 313 312 313 312 314 315 311 312 311 311 312 312 313 314 314 315
299 298 298 298 297 298 298 298 297 299 300 302 302 302 304 304 304 305 312 312 311 310 311 312 311 311 310 311 312 311 312 312 312 312 312 311 311 312 310 311 312 312 312 312 313 316 315
299 299 298 298 297 297 298 297 298 299 302 303 302 305 304 305 305 304 311 310 309 311 311 311 311 312 311 311 313 313 313 311 310 311 312 311 310 312 312 310 310 311 311 312 315 314 314
298 298 298 297 297 297 298 296 298 300 302 304 303 302 304 306 310 310 309 311 311 312 312 312 312 311 312 312 313 313 312 310 309 311 312 311 312 313 316 313 311 311 311 311 313 314 315
298 298 298 298 297 296 296 296 298 300 303 304 304 307 305 307 309 311 312 312 312 312 313 312 313 311 312 313 313 313 312 310 309 310 309 311 312 312 316 316 315 315 313 313 313 315 315
297 297 298 297 297 296 297 296 298 300 303 305 303 306 306 310 311 311 311 311 311 312 312 312 313 313 313 313 313 313 312 311 310 310 310 311 314 312 312 312 312 313 314 314 314 314 315
297 297 297 297 297 295 297 296 297 300 302 302 302 303 304 309 310 311 311 312 312 312 312 312 314 313 313 314 313 313 313 312 313 311 311 311 313 314 313 312 314 316 315 315 316 316 316
297 296 297 297 297 295 296 296 296 298 301 301 302 303 303 308 309 311 311 311 312 312 312 312 312 313 313 313 312 312 311 311 312 312 311 312 313 313 314 315 315 320 318 317 318 317 315
296 296 296 296 296 296 296 296 295 297 300 301 301 302 304 310 309 310 310 310 311 311 313 312 312 313 313 313 313 313 313 313 312 312 312 313 314 313 317 316 323 320 317 316 317 317 315
295 295 295 295 295 294 293 296 296 293 298 301 302 302 304 310 309 310 310 310 310 311 312 312 313 312 312 313 314 315 315 315 315 314 314 313 313 316 318 316 317 318 319 317 319 318 314
295 291 294 295 294 295 295 296 295 291 296 300 301 303 303 306 310 310 310 310 311 312 312 312 312 312 312 313 314 315 317 315 317 315 312 313 314 315 317 318 320 319 316 314 315 321 314
296 293 290 293 290 290 292 293 293 291 294 298 300 301 303 304 310 310 310 311 311 312 313 312 312 312 312 314 315 315 315 315 317 317 316 316 315 316 316 318 317 317 315 315 321 319 313
296 295 290 291 290 292 294 293 293 292 293 294 299 301 301 302 308 310 310 311 312 313 313 312 312 311 311 315 315 315 314 315 316 315 317 317 316 315 317 318 320 314 317 319 316 314 313
296 295 294 292 291 293 293 294 294 294 294 293 297 298 301 302 307 310 310 310 311 311 313 312 312 312 313 314 314 314 316 315 315 316 315 318 317 320 319 320 318 317 316 315 313 312 312

GFSGBSN_850_thetae_030.txt.gz
Theta_e
305 305 305 306 306 305 305 305 304 304 304 304 304 304 304 304 304 305 307 312 314 316 315 313 307 308 310 316 319 321 319 322 322 323 323 322 320 320 320 319 320 321 321 321 321 321 321
305 305 306 305 305 305 305 305 304 304 303 303 304 304 303 303 304 304 305 310 313 315 317 313 308 309 311 316 317 319 317 317 320 322 323 323 320 319 319 319 319 319 320 320 320 320 320
305 304 305 305 305 305 305 303 304 303 302 301 303 303 303 303 303 303 304 307 311 315 318 313 308 309 312 315 314 315 317 316 320 322 323 324 323 321 321 321 320 320 321 320 320 320 320
306 305 304 304 306 305 305 304 303 303 302 301 300 302 303 302 302 303 304 304 310 314 316 313 309 311 314 314 314 314 313 316 319 322 322 323 322 321 321 319 320 321 321 322 320 320 320
304 305 305 303 303 303 303 304 302 301 301 302 301 301 301 300 302 303 303 303 304 311 315 314 310 313 313 313 313 314 313 317 320 322 323 322 321 320 319 320 321 320 322 321 321 320 320
305 304 303 303 303 303 303 301 301 301 300 300 300 300 301 301 301 302 302 302 303 309 315 313 312 313 312 313 311 312 314 318 318 321 322 320 317 319 319 320 323 322 322 320 320 320 319
302 302 302 302 302 302 301 301 301 300 300 299 300 300 301 301 301 302 302 302 306 312 315 312 313 313 312 313 312 312 314 317 316 320 319 320 320 321 319 319 319 321 319 318 317 317 316
303 302 302 302 301 301 301 300 299 300 300 299 299 300 301 301 301 302 302 303 304 307 313 311 313 313 313 313 313 312 316 316 317 319 317 317 318 318 319 319 318 317 317 317 316 316 315
302 302 302 301 300 300 300 299 299 299 299 299 299 300 300 301 303 302 302 302 304 303 309 312 314 313 312 313 313 313 316 315 316 316 317 316 316 315 316 317 316 316 316 316 315 314 314
302 302 301 300 300 299 300 299 298 299 299 299 300 300 301 302 304 302 304 305 304 302 308 314 314 313 313 314 314 313 315 315 315 316 316 316 315 314 315 316 315 316 315 315 315 315 314
301 302 300 300 299 300 299 298 299 299 299 299 299 301 301 302 303 304 305 305 303 301 316 313 312 313 313 313 313 313 314 313 315 315 315 315 314 315 314 314 314 314 313 313 314 313 313
301 301 300 299 299 299 298 299 298 299 299 299 300 301 301 303 303 305 306 303 301 304 314 313 311 313 314 313 313 312 313 313 313 314 314 314 312 313 314 313 313 312 313 312 313 313 313
300 301 300 299 299 299 299 299 299 299 299 299 300 301 302 305 304 305 304 305 306 309 310 312 313 313 313 313 313 313 314 313 314 314 315 313 313 312 312 313 313 313 313 313 315 314 311
299 301 299 299 299 299 298 299 299 298 299 299 301 302 304 304 304 304 303 305 308 313 312 309 312 312 312 312 313 313 314 314 313 312 315 313 315 313 311 312 314 314 313 312 315 315 314
300 300 299 299 299 298 298 299 298 298 301 302 302 303 304 305 305 304 306 308 310 312 310 311 312 312 313 312 313 313 313 313 312 312 315 314 314 313 312 312 312 312 312 311 312 311 309
299 299 299 298 298 298 298 299 298 300 302 303 303 303 305 304 303 303 306 311 310 310 311 311 313 312 313 312 313 313 313 312 311 312 311 314 315 312 313 311 311 311 311 312 312 308 312
299 299 298 299 297 298 298 298 298 300 303 303 303 304 304 304 304 305 309 308 311 311 311 312 311 311 311 311 312 312 311 312 311 312 311 312 312 311 309 311 311 311 312 312 312 314 311
299 299 298 298 298 297 297 298 297 301 304 304 303 304 303 304 305 305 309 309 311 312 311 312 311 311 311 311 312 311 313 312 312 312 312 311 311 310 310 310 310 311 311 310 308 309 310
299 298 299 298 298 295 298 297 297 301 303 304 303 303 304 307 309 310 308 311 311 312 312 312 312 312 310 311 312 313 313 309 310 311 312 311 310 308 313 312 310 310 311 311 311 312 312
298 297 298 297 298 296 297 296 295 301 304 304 305 307 306 309 309 309 312 312 313 312 313 312 312 312 311 312 313 313 312 310 310 311 310 311 312 309 311 313 312 311 312 312 312 314 313
298 297 298 298 297 297 297 297 293 301 303 304 305 306 306 311 312 311 311 312 312 313 313 313 313 313 313 313 313 313 312 311 310 310 310 311 312 308 310 311 310 311 312 312 313 313 315
297 297 296 297 297 297 295 296 292 300 303 303 303 304 304 310 311 311 311 311 312 312 313 313 313 313 313 313 313 312 312 312 312 310 310 310 311 309 310 311 311 312 312 314 315 316 316
297 296 296 296 296 296 293 296 293 297 301 302 303 303 304 309 310 311 312 312 312 312 313 313 313 313 314 313 312 312 312 312 312 311 311 313 311 312 308 313 313 317 316 318 317 317 317
297 296 296 296 296 296 295 296 294 292 300 302 301 302 304 310 310 311 310 310 312 313 313 312 312 314 313 312 313 312 312 313 312 312 311 312 312 313 312 313 321 319 317 316 317 317 317
298 296 296 295 294 294 294 294 294 291 295 301 302 302 303 309 309 310 310 310 311 312 311 312 312 312 311 313 314 315 315 315 314 312 313 311 313 315 315 316 314 315 318 317 317 317 315
297 297 296 295 294 292 294 291 290 291 291 299 301 302 303 305 310 311 310 310 311 311 312 312 312 312 312 313 314 314 316 316 317 315 312 313 312 314 314 317 318 318 315 314 314 320 314
297 297 296 295 295 294 294 294 294 291 293 292 300 300 302 304 308 310 310 311 310 311 313 313 312 312 312 313 314 313 315 314 315 317 316 316 315 316 316 317 315 314 315 316 320 318 313
297 295 297 296 295 295 294 294 294 294 293 292 295 300 299 301 307 310 311 311 310 312 313 312 312 311 311 314 314 314 313 314 314 315 315 314 315 315 316 317 316 314 316 318 315 314 314
297 295 296 296 296 295 295 294 295 294 294 294 295 297 296 299 305 309 310 310 311 311 312 312 312 312 312 314 313 313 315 313 314 316 314 315 315 317 315 316 315 317 316 315 314 312 311

GFSGBSN_850_thetae_033.txt.gz
Theta_e
307 307 306 306 305 306 305 306 306 305 304 304 304 304 304 304 304 303 304 305 306 310 315 317 315 308 307 314 316 320 319 321 323 321 319 321 322 320 319 318 319 318 318 320 320 320 320
307 307 306 305 306 307 306 305 304 304 304 304 303 303 303 303 303 303 303 304 305 309 314 317 315 309 308 315 313 318 319 320 322 322 321 322 322 320 319 318 316 318 318 319 320 320 320
306 305 306 305 305 304 304 304 303 303 303 303 303 302 301 303 302 302 302 304 304 307 312 314 315 310 309 311 316 318 318 317 318 321 322 321 322 320 320 320 320 319 320 318 319 320 318
305 306 304 304 303 303 303 303 303 302 302 301 301 301 301 301 301 301 302 303 304 303 310 314 314 310 311 310 314 314 316 317 319 321 322 322 323 321 320 320 320 319 319 321 319 319 319
305 304 304 303 304 303 302 302 301 301 301 301 300 300 300 300 300 301 301 302 302 302 304 314 313 310 312 313 312 314 313 316 319 320 322 322 322 320 319 319 320 319 319 319 319 318 319
303 303 303 304 303 302 302 301 301 300 301 300 299 299 300 300 301 301 301 301 300 301 303 310 311 311 312 313 313 314 313 317 320 322 321 320 319 320 319 320 322 320 319 318 318 318 318
303 302 303 303 302 301 301 301 300 300 300 299 299 299 300 300 301 301 302 301 302 306 305 313 311 312 313 313 312 313 314 316 318 321 322 319 320 321 317 317 318 319 320 317 315 315 314
302 302 303 302 301 301 301 301 300 299 299 300 300 300 300 301 301 302 302 302 302 304 305 308 311 313 312 312 312 312 316 317 318 319 315 318 319 319 318 318 320 318 316 315 314 314 313
302 302 303 301 300 301 300 300 300 299 299 300 300 300 300 301 301 303 302 303 302 302 303 311 312 313 312 313 313 312 316 316 316 318 317 316 315 316 317 317 317 315 315 314 314 312 311
302 302 302 301 300 300 300 300 300 299 299 299 299 300 301 301 303 302 303 304 302 301 305 313 314 313 312 313 313 314 316 315 316 316 316 316 314 313 315 316 315 315 312 313 314 312 312
301 301 301 301 300 300 299 300 299 299 299 299 299 300 300 301 302 303 303 304 303 303 309 312 314 312 312 314 313 314 315 314 315 316 315 316 315 314 313 314 313 314 312 312 312 311 309
301 301 301 300 300 299 299 299 299 299 298 298 300 300 302 303 303 303 304 304 302 304 307 313 312 313 313 313 313 313 313 313 313 315 314 313 312 312 312 312 311 311 311 311 311 310 305
300 299 300 299 299 299 299 299 300 299 301 301 302 304 303 303 303 304 304 301 301 302 305 311 314 313 313 314 313 313 313 314 313 313 312 314 313 311 312 312 311 311 308 303 306 312 309
299 299 299 299 299 299 298 298 299 300 301 304 303 303 304 303 305 304 302 304 304 308 311 313 312 313 314 313 313 314 313 312 311 311 308 308 308 311 310 311 311 311 309 305 310 311 311
299 299 299 299 298 299 298 299 299 301 304 303 303 304 304 305 304 303 304 303 306 312 310 313 312 312 313 312 313 313 313 312 310 311 310 309 312 311 310 311 311 312 309 309 309 308 302
300 299 299 299 299 298 298 298 299 302 304 302 304 304 304 304 304 304 306 310 308 309 311 311 311 312 313 313 313 312 312 311 311 310 309 313 313 312 312 311 311 309 309 309 303 303 309
299 298 299 298 299 298 298 298 299 301 304 303 303 304 304 304 304 304 307 307 311 310 311 312 311 312 311 312 312 312 311 311 310 310 310 311 311 310 311 310 310 310 311 311 308 306 308
298 298 299 298 298 298 297 297 298 301 304 303 303 304 304 305 304 304 306 305 310 310 311 311 308 309 309 310 311 311 310 309 310 310 311 311 310 307 307 307 308 308 308 308 305 304 306
298 298 297 298 297 297 293 295 295 302 304 304 304 304 306 306 308 307 310 311 312 312 312 312 311 310 309 310 310 310 311 308 310 311 312 310 308 302 312 308 308 309 309 309 308 308 310
298 297 297 296 296 296 291 295 292 302 304 304 305 305 306 309 308 309 311 311 313 312 312 310 309 309 310 312 310 311 310 309 310 311 310 310 309 303 307 309 308 305 310 309 309 312 311
298 296 296 296 297 297 294 295 292 302 304 304 304 304 305 303 307 310 311 311 312 312 311 312 312 310 311 313 312 312 311 309 309 310 309 309 309 303 307 309 309 307 309 310 311 311 313
298 297 296 296 296 296 297 295 292 301 304 304 303 303 303 305 309 308 310 310 312 312 312 312 312 312 312 313 312 312 311 310 309 308 308 308 305 308 308 309 309 310 311 311 311 311 312
298 298 296 296 295 294 293 295 293 297 302 302 303 303 304 306 307 310 310 312 312 311 311 311 312 313 314 313 312 311 311 311 309 308 309 311 310 303 303 309 311 316 313 313 315 316 316
296 297 297 296 295 294 293 292 292 292 300 302 302 303 304 306 306 310 309 310 311 311 311 312 312 313 312 312 313 312 312 311 311 310 308 311 311 311 310 310 316 318 315 315 316 316 316
296 297 297 296 296 295 293 294 294 292 292 301 301 303 303 306 308 309 309 310 311 311 312 312 311 311 312 313 312 313 313 314 313 311 311 311 312 314 314 313 313 315 318 316 316 316 315
296 298 295 297 297 295 293 294 295 294 292 294 301 302 303 304 307 308 310 310 309 310 311 312 311 311 311 311 312 313 315 315 315 314 312 311 311 314 313 314 316 316 314 314 314 319 313
296 298 296 296 296 296 296 294 296 295 294 292 300 301 302 303 306 307 309 309 310 310 311 312 312 312 312 310 312 309 312 313 315 316 314 315 315 314 315 317 313 311 313 315 319 316 313
295 297 296 296 296 295 295 295 295 295 294 294 295 299 300 300 304 308 310 311 310 311 312 311 310 311 310 312 311 312 310 311 312 313 314 313 315 316 316 317 315 312 314 317 314 313 312
294 297 297 294 295 295 295 295 295 295 294 295 294 295 297 299 304 308 309 311 311 311 312 311 311 311 312 312 313 311 312 311 311 314 312 315 312 314 314 312 311 316 315 314 312 311 310

GFSGBSN_850_thetae_036.txt.gz
Theta_e
306 306 307 308 305 305 305 305 305 304 304 304 303 304 304 303 303 304 304 304 304 304 308 313 315 316 309 310 313 321 320 318 323 321 322 320 321 321 318 317 319 318 318 319 320 320 319
306 306 306 305 304 305 304 304 303 303 303 303 302 302 302 301 302 302 303 303 304 304 307 311 314 316 310 311 308 319 319 319 322 322 321 319 321 321 319 318 317 317 319 318 319 319 319
306 306 305 304 304 305 304 303 302 302 302 302 301 301 301 301 301 301 300 302 302 304 304 309 313 315 311 309 312 316 318 320 320 321 320 318 321 320 319 319 319 318 319 318 318 319 318
305 304 304 304 304 303 303 302 302 302 302 301 301 300 300 300 300 301 301 302 302 303 303 305 311 314 311 311 315 317 317 318 319 320 321 319 322 321 321 319 319 318 317 320 317 318 318
304 304 304 304 303 303 302 302 302 302 301 301 300 300 300 300 300 300 301 301 301 302 301 303 308 313 310 311 311 317 317 317 318 320 321 321 322 320 319 317 317 318 318 319 318 317 317
304 304 303 303 303 302 302 302 301 301 300 299 299 300 299 300 300 300 301 302 301 301 300 302 307 310 311 312 311 313 314 316 319 320 321 321 320 320 318 318 319 319 318 317 318 317 315
303 303 302 303 302 301 302 301 301 301 300 299 300 300 300 301 301 301 302 302 302 304 303 306 310 311 312 311 313 313 312 315 319 320 321 319 321 323 321 319 317 317 320 319 315 314 313
303 303 303 302 302 301 301 300 301 300 300 300 300 300 300 300 301 301 303 301 302 303 305 304 308 310 312 312 313 313 313 316 319 320 318 318 321 319 319 319 320 319 316 315 313 313 313
303 302 302 302 301 300 300 300 301 300 300 300 299 299 300 301 301 303 303 302 302 302 303 305 305 309 312 312 313 313 313 317 316 317 317 319 317 317 319 319 320 315 314 314 314 311 310
302 301 302 301 301 300 300 300 300 301 300 299 299 300 299 300 302 302 302 304 301 302 305 309 310 313 313 312 312 313 316 316 316 317 315 315 312 318 318 318 314 315 312 312 312 312 312
300 301 301 301 300 300 300 299 300 300 301 301 301 301 301 303 303 302 303 303 302 302 310 309 312 312 313 313 313 315 315 315 315 316 314 315 314 313 314 315 313 313 311 311 311 310 308
300 301 301 300 300 300 300 299 301 301 302 304 303 303 303 302 302 303 303 302 303 302 309 309 311 313 313 313 313 314 314 313 315 315 313 312 312 312 311 311 311 310 310 308 308 307 304
301 300 300 301 300 300 298 300 300 301 304 303 303 303 303 304 303 303 304 302 299 304 304 310 315 313 313 313 314 314 314 314 315 316 315 313 312 311 311 311 311 309 307 305 304 308 309
301 301 300 299 300 300 298 301 301 302 304 304 303 304 304 304 304 304 301 304 302 305 305 309 313 313 314 313 314 314 314 313 311 309 309 311 314 311 310 310 311 310 308 304 308 309 309
301 299 300 299 299 299 298 299 300 302 303 303 304 303 303 304 303 302 303 303 305 307 307 314 312 313 313 312 314 313 313 313 311 310 310 308 311 310 310 310 310 311 308 308 307 306 302
301 300 299 299 298 299 298 299 299 302 304 303 303 303 303 304 304 304 305 308 307 307 311 310 311 311 312 312 313 313 312 311 310 309 309 310 311 311 311 311 310 309 308 307 299 299 307
299 299 298 298 298 297 297 298 298 303 304 303 303 303 304 304 304 304 307 306 310 310 311 311 311 310 311 311 311 311 310 310 309 309 310 310 307 309 311 310 309 310 310 309 306 303 306
299 298 297 297 295 296 297 298 297 302 304 304 303 299 304 306 303 300 306 307 309 311 311 310 308 309 309 311 311 311 310 308 309 309 310 310 307 303 310 308 307 308 308 307 302 302 304
299 297 295 296 297 297 298 296 295 304 304 304 304 304 306 307 309 310 310 311 312 312 311 311 309 309 308 309 310 309 309 308 310 309 310 309 304 302 310 307 307 308 308 307 306 306 300
298 297 294 292 291 291 293 294 295 304 304 304 305 300 306 308 308 307 309 310 312 311 311 308 308 308 309 310 308 310 310 309 310 311 311 309 306 303 306 307 304 303 308 308 307 305 307
298 298 294 292 292 290 290 292 293 303 304 304 304 304 304 303 306 308 309 309 311 312 311 310 309 310 312 313 311 311 310 308 309 310 310 307 303 300 305 307 307 306 308 308 307 309 308
297 298 297 294 291 291 290 291 292 302 304 303 303 303 304 305 307 308 308 310 311 311 311 312 312 312 312 313 311 311 309 308 309 308 308 305 304 304 306 307 307 306 308 308 309 309 310
294 299 298 296 292 291 290 291 291 297 302 302 303 303 304 305 305 308 308 311 311 310 311 311 311 313 314 313 311 310 309 309 308 307 307 307 305 305 306 306 308 311 311 311 310 310 311
293 298 298 297 295 292 291 291 294 292 299 301 301 302 304 305 304 308 309 310 311 310 311 311 312 312 312 312 311 311 311 309 308 308 309 310 310 306 306 305 313 315 313 313 312 314 314
294 296 298 296 296 295 293 293 294 292 292 299 301 302 303 305 306 308 309 310 310 311 311 311 311 311 311 312 311 312 312 313 312 311 309 310 311 311 310 309 313 316 315 316 316 315 314
293 294 299 297 296 296 295 295 294 295 291 293 301 301 301 303 304 307 309 309 309 309 310 311 311 311 310 310 311 314 315 314 315 314 311 310 311 311 313 315 317 314 314 313 313 316 313
294 293 298 297 294 295 295 295 295 296 294 292 296 299 300 301 305 307 308 309 309 309 308 312 311 311 311 308 311 309 311 312 315 315 315 314 314 314 312 315 313 310 311 314 318 314 313
298 293 297 297 295 294 295 295 295 295 295 294 293 297 298 299 302 305 308 311 310 310 310 310 309 310 307 309 310 310 309 309 311 312 313 313 314 316 315 317 315 310 313 317 313 313 312
298 292 295 298 297 294 294 295 295 295 295 295 293 294 295 296 299 303 306 309 310 311 312 310 311 310 311 310 310 311 311 309 310 311 309 314 311 311 312 312 311 312 314 314 313 311 309

GFSGBSN_850_thetae_039.txt.gz
Theta_e
307 307 307 306 306 305 306 305 304 303 303 303 303 303 302 302 302 303 303 302 303 304 304 304 309 313 315 310 309 321 321 312 318 321 321 322 321 320 318 317 318 317 317 319 320 320 319
306 306 305 306 305 305 305 304 304 303 303 303 303 302 301 301 302 302 302 301 302 304 304 304 309 312 313 310 315 317 319 319 319 320 320 322 321 320 319 317 317 318 318 318 319 318 318
306 305 305 305 305 304 303 303 303 303 302 302 302 301 301 300 301 301 301 301 301 301 302 304 307 310 313 312 311 310 319 319 322 321 318 321 320 320 319 317 318 318 318 317 317 318 317
305 305 304 304 305 304 303 302 302 302 302 302 300 300 300 299 300 300 300 300 301 302 302 303 304 307 312 313 312 313 318 319 319 320 320 320 321 321 319 318 317 317 316 319 317 317 317
304 305 305 304 304 303 302 302 302 302 302 301 301 301 301 299 300 300 300 300 301 301 301 302 304 306 312 312 312 317 319 318 319 320 320 319 320 320 319 316 316 317 317 318 318 316 317
304 304 303 303 303 303 302 302 301 302 301 301 300 300 300 301 301 301 301 302 302 302 301 300 304 309 310 312 311 317 317 317 318 320 321 320 320 318 315 317 320 319 318 316 317 316 315
303 303 303 303 303 302 301 301 301 301 301 301 301 300 300 300 301 301 301 301 302 304 302 302 306 309 312 312 311 315 316 316 318 320 322 320 322 321 319 317 316 316 318 317 316 314 312
303 302 302 303 302 302 301 301 301 301 301 301 300 300 300 300 301 301 302 302 301 302 304 302 307 309 312 312 312 313 314 316 318 320 318 319 322 319 319 319 320 320 318 317 313 312 312
302 302 302 302 302 302 301 302 300 301 301 301 302 301 301 301 301 302 302 301 303 301 302 304 304 308 311 312 313 313 312 317 318 320 318 319 319 319 318 320 321 320 316 314 314 311 309
301 302 301 301 302 301 301 299 301 301 302 303 304 303 303 302 302 302 302 302 301 302 297 306 306 310 312 312 313 313 313 317 316 318 316 316 314 319 320 320 318 315 311 312 312 312 313
300 301 302 301 301 301 300 300 301 302 303 303 303 303 303 303 303 302 303 302 301 302 307 309 309 311 312 312 312 313 315 315 316 316 315 315 315 318 319 318 313 314 310 311 310 309 308
300 301 301 301 300 301 300 300 301 302 303 304 303 303 303 302 303 303 302 301 302 304 310 308 311 313 313 312 314 315 314 315 315 314 313 312 312 312 311 310 311 310 309 306 306 306 304
300 301 300 301 299 300 299 299 301 303 303 303 303 304 303 303 303 303 302 302 303 306 304 309 312 312 313 315 315 314 314 315 317 316 315 313 311 310 310 311 310 307 307 304 303 305 307
300 300 299 300 299 301 298 300 301 303 303 304 303 303 303 302 302 301 302 302 303 307 306 309 313 312 314 315 314 314 313 314 311 311 312 312 314 311 309 310 311 309 308 304 306 307 308
300 298 299 299 298 297 298 300 300 303 303 303 303 303 304 303 303 303 304 305 308 306 306 314 313 313 313 313 314 314 313 313 311 309 311 307 311 310 310 309 309 310 306 307 306 303 301
298 296 297 297 298 298 298 297 300 303 303 303 303 303 304 304 304 303 303 310 308 309 311 308 311 311 313 312 314 313 312 311 311 309 308 308 311 310 310 310 309 309 307 306 299 301 306
299 295 295 295 298 296 295 293 302 303 303 303 303 303 304 305 305 304 307 307 312 310 310 310 310 309 309 310 311 311 311 309 309 309 308 308 308 311 311 310 309 309 309 306 305 303 306
296 297 293 293 295 293 292 293 301 304 304 304 304 298 306 306 306 303 309 309 308 310 310 309 307 308 309 309 310 311 310 309 309 308 310 308 306 310 311 307 307 307 307 306 300 302 301
296 296 293 293 292 293 291 293 297 305 304 304 305 305 306 307 308 304 309 311 310 311 310 309 309 308 308 308 309 308 309 308 308 308 309 307 303 302 308 306 306 307 307 305 303 300 296
295 297 295 293 292 292 291 292 294 304 305 305 305 300 306 307 307 306 308 309 311 310 309 307 307 307 308 309 307 309 308 308 309 309 310 308 304 303 305 306 304 303 307 306 303 303 304
294 296 295 294 293 291 291 291 293 301 304 304 304 304 303 302 305 306 307 309 311 311 310 308 308 309 310 311 310 310 308 308 310 311 309 307 304 300 304 306 306 306 308 307 303 306 306
294 295 296 295 293 292 291 291 292 299 303 303 303 304 303 304 305 305 306 309 310 310 310 311 309 312 311 312 310 310 308 308 310 308 308 304 304 302 304 306 306 305 306 307 308 308 307
293 294 298 294 294 293 293 291 291 295 302 302 302 303 304 304 303 306 307 310 310 309 311 311 312 313 313 312 310 309 308 308 307 307 307 306 303 302 305 304 307 309 308 308 309 309 309
294 295 298 295 296 294 294 294 292 291 298 301 301 302 304 303 303 306 306 310 310 310 310 310 311 312 311 311 311 311 309 307 307 307 307 306 307 307 300 304 311 309 311 309 309 310 309
294 295 296 294 297 294 295 293 294 294 292 299 301 301 302 304 303 306 307 308 309 310 311 310 311 311 311 312 310 311 312 312 311 309 310 308 310 307 309 308 308 315 314 314 315 315 312
297 293 294 295 297 295 296 295 294 295 293 292 299 301 301 302 302 305 307 308 307 307 308 311 311 310 311 308 310 313 313 313 315 314 309 310 308 309 310 311 316 315 313 313 312 315 313
296 295 295 295 297 297 294 295 294 295 295 293 294 297 300 301 303 304 305 307 308 307 306 310 311 310 310 307 310 308 312 312 314 315 315 313 313 312 311 313 312 311 309 314 317 314 313
297 297 297 295 297 298 296 295 296 295 295 294 294 296 295 298 300 302 305 308 310 309 308 310 308 308 306 308 308 308 308 309 311 311 312 312 314 315 313 314 314 310 313 316 313 312 311
298 297 295 293 297 299 297 295 295 295 295 295 294 294 293 294 296 300 301 304 305 309 310 310 309 308 308 307 306 308 310 307 307 310 309 313 310 311 310 311 310 311 312 313 312 311 309

GFSGBSN_850_thetae_042.txt.gz
Theta_e
307 307 306 306 305 305 306 305 304 303 303 304 303 304 303 302 303 302 302 302 303 303 304 304 305 307 312 313 314 320 320 318 308 321 322 322 320 319 318 317 317 317 317 318 319 319 319
308 307 305 305 305 305 304 304 303 303 302 303 303 302 302 300 301 301 301 301 302 302 303 304 304 308 311 313 314 314 318 320 310 319 321 322 321 320 319 317 317 317 318 318 318 318 318
306 305 305 305 304 305 304 304 302 303 302 303 302 302 302 301 300 300 300 301 301 301 301 302 304 307 310 312 313 315 310 319 314 319 322 322 321 319 318 316 318 316 317 316 316 317 317
304 305 304 305 304 305 303 303 302 302 303 302 302 301 301 301 301 300 300 300 300 301 302 302 304 306 309 312 312 312 314 319 316 319 320 320 321 320 318 317 316 316 316 318 316 316 317
306 305 304 304 303 304 302 302 302 302 302 301 302 302 301 301 301 301 301 301 301 302 302 302 303 304 310 312 313 313 317 319 318 319 319 318 319 320 318 315 316 316 316 317 318 315 316
304 303 304 303 304 303 303 302 303 301 301 302 302 301 299 300 300 301 301 301 301 302 301 301 302 305 309 311 313 313 317 319 319 319 318 318 319 317 315 317 318 318 318 316 317 314 315
303 303 303 302 302 302 303 303 301 302 303 303 302 302 300 300 300 301 301 301 301 302 302 301 304 307 311 312 312 314 316 318 319 320 321 319 322 321 319 317 314 315 316 316 315 313 313
303 302 303 302 303 302 303 302 301 303 303 303 303 303 303 300 302 301 301 301 301 302 302 302 303 305 309 312 311 313 314 317 318 320 319 320 321 319 317 316 318 317 317 317 314 312 311
301 302 302 302 302 302 303 301 301 302 303 304 304 304 305 303 301 301 302 302 302 302 302 304 304 306 309 312 312 312 313 317 317 320 319 317 320 319 319 320 320 319 319 316 315 311 308
300 301 303 302 302 301 302 301 302 302 304 304 303 303 304 304 302 302 302 302 301 301 300 304 306 309 310 312 311 313 313 317 317 319 317 316 318 319 319 319 320 319 312 312 311 312 314
299 301 300 300 301 301 301 301 301 302 304 304 303 303 302 303 303 302 302 301 301 301 295 306 308 308 312 311 312 313 313 315 317 316 316 316 318 320 320 319 316 317 310 310 309 308 308
298 301 302 300 300 299 299 300 301 302 303 304 303 303 303 302 302 302 301 301 301 298 306 309 310 310 313 312 314 313 315 314 314 315 313 314 312 313 313 311 312 309 307 306 306 306 304
295 297 300 299 299 299 299 301 302 303 303 304 303 303 303 302 302 302 302 302 300 302 303 309 310 312 313 314 314 314 315 315 316 315 315 313 312 310 310 311 309 308 309 307 304 303 307
296 300 298 298 299 298 300 299 301 303 303 303 303 303 302 302 302 302 302 300 301 306 303 308 312 313 315 313 314 313 314 315 311 311 312 312 316 311 309 310 311 309 308 306 306 307 307
296 298 299 298 298 292 295 295 302 303 303 303 303 303 303 303 304 304 304 306 307 307 306 313 312 315 314 313 314 314 312 312 311 309 312 310 312 309 309 309 309 309 305 305 304 302 300
296 296 299 296 296 291 292 294 303 304 303 302 302 303 306 306 305 304 305 312 312 308 311 308 311 310 313 314 315 313 313 311 310 309 307 307 311 309 310 309 308 308 305 306 298 302 305
295 296 296 298 293 292 292 293 298 304 304 304 304 304 307 308 306 306 308 309 310 310 309 309 309 309 309 311 311 311 310 309 309 309 307 306 308 311 309 310 309 309 308 304 304 302 304
295 295 296 295 293 292 292 292 295 304 305 304 305 301 308 308 305 304 307 308 309 310 310 307 307 308 308 308 309 309 309 309 309 308 309 307 306 309 310 306 306 307 307 304 300 301 302
295 295 295 295 294 293 292 292 293 300 305 305 305 305 308 308 307 303 305 309 309 310 309 308 308 308 307 308 309 308 308 307 308 308 308 306 304 302 308 306 305 307 306 304 302 300 297
296 295 295 295 295 293 292 292 292 296 304 305 305 299 305 308 305 306 307 308 310 310 308 307 307 307 307 308 307 308 308 309 308 309 309 307 304 303 304 305 304 304 307 305 303 300 303
298 295 297 297 296 294 293 292 292 295 303 304 304 302 302 303 304 303 306 308 310 310 309 308 308 308 309 309 310 309 308 309 309 311 308 306 302 299 304 305 305 305 307 306 302 305 304
299 296 297 299 297 296 293 292 292 294 302 303 303 303 303 304 303 303 305 308 310 310 309 310 308 311 310 310 309 309 307 308 309 307 308 304 305 302 303 306 305 305 306 306 306 306 305
300 297 297 300 298 296 294 293 291 292 300 301 301 302 303 304 301 305 305 308 309 309 310 310 311 312 313 312 309 308 307 307 307 306 306 306 303 300 301 304 306 308 307 307 306 307 309
298 296 295 300 297 296 294 294 293 294 295 301 301 302 303 303 301 305 305 307 309 309 310 310 310 312 311 310 310 308 307 306 306 306 306 305 305 303 300 304 308 307 309 306 308 309 308
298 297 294 298 297 297 296 294 294 295 293 295 299 301 302 304 303 303 306 307 308 309 310 309 310 310 311 311 308 310 311 311 310 308 309 307 309 305 307 308 306 313 311 310 312 315 310
300 297 294 296 298 297 297 295 296 295 295 293 296 299 301 302 301 303 304 306 306 306 307 310 310 310 311 306 309 310 311 310 314 313 309 309 305 304 310 309 310 314 312 313 312 318 312
298 298 296 296 298 297 298 297 295 295 296 294 294 293 298 300 302 302 304 305 307 305 304 308 310 310 309 305 309 307 309 309 313 313 314 313 312 310 309 311 309 311 310 314 318 314 312
298 298 298 297 295 297 297 298 295 295 296 295 294 293 294 296 297 300 302 305 307 307 306 308 308 307 305 307 307 307 306 308 309 309 310 310 311 310 309 311 312 311 313 316 313 313 311
298 297 298 297 296 295 299 298 296 294 295 296 296 294 294 294 293 293 295 300 302 305 305 309 307 306 307 305 304 304 309 305 306 312 308 312 308 309 310 310 309 311 313 313 312 312 311

GFSGBSN_850_thetae_045.txt.gz
Theta_e
306 307 307 306 305 304 306 305 304 304 303 304 304 303 303 303 302 302 301 301 302 302 303 303 304 305 305 311 313 316 318 315 317 314 320 321 321 321 321 317 316 317 317 318 318 318 318
306 305 306 306 305 305 305 304 304 303 303 303 303 303 302 302 301 301 301 301 301 301 302 302 303 303 306 312 313 315 313 317 316 317 319 320 320 320 319 318 317 317 317 317 318 318 318
307 306 306 305 304 305 304 304 303 303 303 303 303 302 302 302 301 301 300 300 301 301 301 301 303 304 307 310 313 314 315 312 314 318 319 321 319 318 318 316 317 316 317 317 317 317 317
305 306 305 304 304 304 303 305 303 304 302 303 303 302 302 301 302 301 300 301 300 300 302 302 302 304 307 310 312 313 314 312 317 319 320 320 319 318 317 316 316 317 316 318 316 316 316
304 305 304 304 304 304 304 304 303 302 303 304 304 303 302 300 301 301 301 302 301 301 302 302 302 304 307 311 312 312 314 316 315 318 318 319 320 319 317 316 317 316 317 317 317 315 316
304 306 304 303 303 303 303 304 302 303 303 304 304 305 304 302 299 300 301 301 301 301 302 301 302 304 307 311 312 312 313 317 318 318 317 318 318 317 316 316 319 319 317 316 316 314 315
304 302 304 302 302 303 302 303 302 303 304 305 305 304 302 304 301 301 301 301 301 302 302 301 302 303 309 311 312 311 314 317 315 318 319 318 319 318 319 316 314 315 316 317 315 312 313
301 302 304 303 303 302 303 302 302 303 304 306 304 303 303 304 301 301 301 301 301 301 302 302 302 303 307 310 312 313 316 318 319 319 318 319 318 317 317 315 315 316 316 316 314 311 312
298 301 303 302 301 301 302 302 302 302 304 304 303 303 302 303 302 300 302 302 301 301 301 303 303 305 307 311 312 312 314 317 318 315 310 318 319 317 318 318 319 318 317 315 316 311 308
299 301 302 301 301 300 300 301 302 303 304 305 303 303 303 303 302 302 302 302 301 301 293 303 305 308 308 311 312 313 314 316 317 313 312 312 319 319 319 319 319 320 313 313 312 313 316
298 300 300 300 299 300 301 302 302 303 304 303 302 303 302 302 302 302 302 301 301 301 301 303 307 307 311 312 311 313 314 315 316 315 316 315 319 320 318 318 318 317 311 310 309 309 310
296 299 299 299 299 297 300 301 302 303 304 303 302 302 302 301 301 301 301 300 301 295 307 308 309 311 312 311 314 313 314 314 313 314 313 313 312 315 314 312 314 309 308 306 306 307 313
296 298 298 297 298 295 297 300 301 303 303 303 303 303 302 302 302 302 302 302 296 304 301 309 309 312 313 313 314 314 314 315 316 316 315 313 312 310 312 314 310 309 313 313 309 309 315
296 299 297 297 296 294 292 297 300 303 302 303 303 304 304 304 303 303 303 298 304 307 307 309 312 313 315 313 313 313 314 314 310 311 312 314 316 312 309 311 314 310 310 313 312 309 309
297 297 297 296 294 293 292 292 294 304 303 303 303 304 306 305 305 304 303 309 308 302 307 313 312 312 314 312 313 313 310 312 310 309 314 312 312 309 309 308 309 310 310 304 305 302 307
297 297 296 295 294 293 292 292 293 302 304 304 305 306 306 307 306 305 305 311 311 307 310 307 311 310 313 313 314 313 313 310 310 308 307 308 313 309 309 309 307 308 305 309 304 308 309
298 297 296 295 295 293 293 293 293 296 305 304 306 307 308 308 308 307 307 308 310 310 308 309 308 309 311 312 310 311 310 310 309 308 306 306 310 311 310 310 309 308 308 305 304 303 306
299 297 296 296 297 295 293 293 293 294 303 304 305 303 308 308 305 305 309 308 309 310 309 307 306 307 307 307 309 309 309 309 309 308 309 306 308 313 310 306 305 307 307 304 306 304 303
299 299 298 296 298 300 298 293 292 293 302 304 305 305 308 309 303 300 305 308 309 308 307 307 308 307 307 307 309 308 308 307 308 308 307 306 304 307 311 307 305 307 306 303 301 301 303
299 300 298 300 299 299 299 294 293 293 301 304 304 299 306 308 305 305 306 307 309 309 307 306 307 306 307 307 306 308 308 308 308 309 308 306 304 304 306 306 305 305 307 304 304 305 304
299 300 298 300 299 297 297 294 293 292 300 303 303 302 302 303 303 302 304 307 309 309 308 307 307 307 308 309 309 308 308 308 308 310 306 305 303 299 304 305 304 305 307 305 304 305 307
299 300 297 300 299 296 297 295 292 292 297 302 302 302 303 303 303 302 304 308 309 309 309 309 308 309 309 308 307 308 307 307 308 306 306 303 307 302 303 306 305 306 306 306 306 306 305
299 299 296 296 299 297 297 296 293 292 294 301 301 302 302 302 300 303 305 307 309 308 309 310 309 310 310 311 309 308 307 307 306 306 305 306 303 300 302 304 306 308 307 306 306 306 307
298 300 299 296 299 298 297 297 294 295 292 298 299 301 302 303 300 303 303 306 308 308 309 309 310 311 310 308 307 307 307 306 306 305 305 305 304 301 302 303 308 307 307 306 307 307 307
298 300 299 297 297 298 297 297 295 295 294 293 297 300 301 303 303 301 302 304 307 308 309 309 310 310 310 310 308 308 311 311 310 308 307 307 308 306 306 308 305 311 308 307 308 313 308
299 299 298 298 296 298 298 297 297 295 296 295 293 297 299 301 300 302 303 304 304 305 306 309 309 310 311 307 309 310 311 309 313 311 308 307 305 306 305 309 309 309 312 311 312 318 312
298 298 297 297 298 297 297 297 298 295 296 296 294 293 295 298 299 301 304 304 306 304 303 307 309 309 309 305 311 310 309 307 312 311 312 312 310 309 307 309 307 306 311 313 319 316 312
299 298 297 297 298 297 295 297 298 297 295 296 295 295 294 294 294 296 300 303 305 306 304 306 307 307 303 307 309 307 305 307 309 308 310 310 310 311 309 309 308 310 311 315 315 312 311
299 299 298 297 296 296 295 297 298 297 296 296 296 295 294 295 294 294 294 294 296 301 300 307 306 305 306 303 303 303 307 304 306 313 306 309 306 307 307 308 306 311 314 315 313 311 311

GFSGBSN_850_thetae_048.txt.gz
Theta_e
308 307 306 305 305 305 305 306 305 304 304 305 304 305 303 302 303 302 301 301 302 301 302 303 303 305 305 306 309 314 316 318 320 318 318 318 320 322 321 320 319 319 319 318 319 320 320
306 306 306 306 305 305 304 305 305 305 305 304 305 304 303 303 302 302 302 300 301 301 302 302 302 303 305 307 309 313 316 316 317 318 318 319 319 320 320 320 319 318 318 318 318 319 319
305 306 305 306 305 304 306 304 305 304 303 305 305 304 304 303 302 302 302 302 301 301 301 302 302 303 305 305 311 313 315 314 317 317 318 320 319 320 319 319 319 318 319 318 319 318 318
306 305 304 306 305 305 303 304 306 303 304 305 305 305 305 302 301 300 300 301 302 301 301 302 302 304 305 307 309 312 314 314 318 316 319 320 319 318 318 318 318 319 318 320 317 318 318
306 305 304 305 304 304 304 304 304 303 304 304 305 304 304 303 302 299 300 301 301 301 302 302 302 304 306 307 309 312 312 314 317 316 319 318 319 318 317 319 319 318 316 317 317 318 317
306 305 303 303 303 304 303 304 303 303 304 305 305 303 304 303 304 301 301 301 301 301 302 302 302 305 305 310 311 311 314 314 317 315 318 317 318 319 319 318 317 318 316 317 316 317 318
303 301 303 303 302 303 303 302 303 303 304 305 306 303 302 303 303 300 301 301 302 303 303 303 303 304 307 310 311 311 314 315 316 317 317 317 320 321 320 318 316 317 316 315 316 314 317
302 301 303 302 302 301 302 302 303 303 304 304 304 302 303 304 302 300 301 302 301 302 303 304 303 304 305 308 313 312 312 316 316 317 318 318 320 318 318 318 317 316 316 316 317 314 316
299 299 301 302 301 302 301 302 303 303 304 304 302 301 302 303 301 301 302 302 301 301 303 303 303 304 307 311 312 312 314 314 316 317 319 319 318 316 319 319 318 318 317 318 318 315 312
298 299 299 300 300 300 299 301 302 303 304 304 302 302 300 302 302 302 302 301 301 301 305 304 306 308 309 312 313 312 312 315 310 314 313 316 318 318 317 318 317 319 318 317 317 319 319
298 299 298 298 299 299 296 299 301 303 303 303 303 302 303 301 301 302 301 301 301 301 311 303 307 308 310 312 312 313 313 315 312 313 315 315 317 320 319 318 318 317 315 315 314 317 317
297 299 299 297 296 297 294 295 302 301 304 303 304 303 302 303 301 300 301 301 301 308 310 309 308 311 312 312 314 314 314 314 315 316 314 313 313 315 315 313 316 311 312 311 312 315 322
297 298 299 296 296 295 293 293 296 303 302 303 303 304 304 305 303 303 303 303 310 311 305 310 311 312 313 314 314 315 315 317 318 318 318 314 313 312 312 312 312 314 318 322 323 322 322
296 298 298 296 295 294 293 293 294 301 304 304 303 304 305 305 305 304 304 305 313 309 310 309 313 313 314 314 313 313 315 316 313 316 317 319 317 313 310 315 316 315 318 321 320 315 313
296 298 298 297 296 294 293 293 294 295 304 304 306 306 306 306 306 305 305 312 311 309 308 313 312 314 314 313 314 314 313 315 313 313 317 317 316 310 310 310 313 314 318 309 312 308 313
297 298 300 298 299 301 296 293 293 294 302 304 306 307 306 307 307 306 311 312 312 309 311 310 313 312 314 313 314 314 314 312 312 310 309 312 315 311 310 310 309 313 309 315 314 317 317
298 299 300 299 299 300 301 296 294 294 299 304 305 308 308 308 308 310 310 311 311 310 309 310 311 312 313 313 313 313 313 312 311 310 309 312 314 312 312 313 313 311 313 310 311 310 312
299 300 300 301 300 300 300 300 293 294 296 304 305 314 308 308 312 309 313 311 309 311 309 309 310 311 312 312 313 312 313 312 310 310 312 310 314 315 313 308 308 310 312 310 315 313 309
299 300 300 300 300 299 299 300 293 293 296 303 304 305 308 309 316 313 309 310 310 310 309 309 309 310 309 311 313 311 310 308 309 310 311 310 312 314 313 310 309 311 310 308 307 309 312
297 299 300 299 300 299 298 299 293 293 296 303 304 312 308 308 305 310 311 311 311 309 308 308 308 308 309 310 309 311 310 310 309 310 307 308 309 313 313 312 312 312 310 309 311 313 311
296 298 299 298 300 298 297 298 296 293 295 303 303 303 302 311 309 308 308 310 311 311 310 308 309 309 310 311 310 310 310 310 310 309 308 310 312 307 308 309 309 310 310 309 309 311 315
295 298 299 298 299 298 297 297 298 292 295 301 303 302 303 305 304 307 308 311 311 311 311 310 310 311 310 310 310 310 310 311 311 310 309 308 311 308 310 308 308 309 310 310 310 310 310
295 298 299 299 298 299 298 297 298 292 293 299 301 301 301 304 306 308 310 309 310 309 310 310 310 312 312 312 310 309 309 309 310 310 310 310 309 310 312 307 309 312 311 310 310 309 310
295 297 299 299 298 299 298 297 298 294 293 296 298 301 302 306 305 307 306 307 310 310 311 310 311 312 308 307 307 308 308 308 309 308 308 309 310 309 312 309 314 311 309 309 310 309 309
295 297 299 298 298 297 297 298 297 296 295 294 293 298 300 303 304 304 304 305 308 308 310 310 310 310 309 309 311 311 311 311 310 309 309 309 310 311 312 311 311 311 309 310 311 313 310
295 297 298 297 297 298 297 297 297 297 295 295 294 293 298 299 302 302 303 304 309 310 310 310 309 310 310 312 312 313 313 312 313 311 309 308 310 311 309 310 313 314 313 311 312 320 313
296 298 298 297 297 297 298 297 297 298 295 295 296 295 294 298 298 300 303 304 305 306 309 309 310 310 309 312 313 314 313 311 313 311 312 311 311 312 310 310 310 309 312 312 318 319 315
296 299 299 298 298 297 296 296 297 298 297 296 296 295 295 294 294 294 298 300 302 306 309 307 310 309 309 313 312 312 313 312 312 311 310 311 312 311 311 311 311 308 312 315 315 312 312
297 299 299 299 299 297 296 296 296 298 297 295 295 295 295 295 295 295 295 295 295 295 298 304 308 308 310 312 310 310 311 310 313 314 310 312 311 311 310 310 309 311 314 315 314 311 310

GFSGBSN_850_thetae_051.txt.gz
Theta_e
305 306 307 307 306 306 306 306 306 306 306 305 305 306 305 305 304 303 303 303 302 302 302 302 303 304 306 307 307 312 315 316 318 317 317 318 317 321 321 319 318 319 320 319 320 320 320
303 306 306 306 305 305 305 305 305 307 304 305 306 305 306 305 305 303 303 303 301 301 302 302 303 303 306 308 307 307 314 317 319 318 316 318 317 320 320 319 319 319 319 319 319 320 320
303 305 305 306 304 305 305 304 306 304 303 305 306 305 305 304 304 301 303 302 302 301 301 301 302 304 306 307 308 309 313 316 317 319 316 316 316 319 320 320 319 319 319 319 319 319 320
301 304 305 306 305 304 304 304 305 303 305 305 306 304 304 304 304 302 300 301 302 301 302 302 302 305 306 306 306 311 312 315 317 319 316 318 318 318 319 319 319 319 319 320 319 319 318
301 302 304 304 303 304 304 304 303 304 304 306 305 304 304 303 304 303 300 301 301 301 301 302 303 305 305 306 308 310 313 314 318 318 316 319 320 319 318 319 320 319 318 319 318 318 319
300 300 303 304 304 302 304 304 304 304 305 305 304 303 304 304 303 304 300 301 301 304 303 304 304 305 305 308 310 311 312 313 319 317 318 319 318 319 319 318 319 318 317 316 316 319 318
300 299 302 303 302 302 302 303 303 304 305 305 304 302 303 304 303 301 303 304 305 304 304 304 304 305 306 309 311 312 312 314 317 316 318 318 319 320 318 317 315 315 316 315 316 317 318
300 299 301 302 301 301 300 302 303 303 304 304 304 302 303 300 300 300 304 303 303 304 304 304 304 304 305 307 311 313 313 317 315 317 317 319 319 318 317 317 317 316 316 316 317 316 316
300 299 300 301 302 298 296 301 304 304 304 305 304 302 301 302 302 303 303 302 301 302 305 304 305 306 305 308 313 313 313 315 315 317 317 318 317 318 318 317 317 316 316 316 317 317 316
300 298 300 300 300 296 294 297 302 304 304 303 303 302 301 302 305 304 303 302 302 303 308 306 307 305 309 311 313 312 313 315 313 318 318 317 318 318 318 318 317 317 316 317 318 318 316
299 298 300 298 299 296 294 294 299 302 301 302 304 303 303 300 303 303 301 301 301 304 311 307 307 308 310 313 312 311 312 312 314 314 315 314 318 318 319 318 316 318 318 318 318 319 319
299 298 300 298 297 295 294 294 294 299 302 303 303 304 303 306 303 301 301 302 303 310 313 310 309 312 312 313 314 312 314 314 314 313 313 314 313 316 317 315 317 316 316 316 317 318 323
298 298 300 299 299 300 298 294 294 294 297 304 305 304 305 305 306 303 304 305 311 314 308 311 314 313 312 314 315 313 313 315 315 316 316 311 310 313 313 315 314 316 319 323 324 324 322
298 299 301 300 300 300 301 301 295 294 294 304 306 306 306 305 305 305 306 309 315 312 313 311 314 313 315 314 314 314 316 317 316 317 318 318 317 309 311 315 316 318 320 323 322 322 321
298 299 301 301 301 301 300 300 299 295 295 303 305 307 306 307 306 306 309 313 314 313 311 314 313 314 315 314 315 314 316 316 315 316 319 318 317 311 311 313 315 315 320 312 315 312 315
298 300 301 301 301 301 300 300 299 295 295 303 305 306 308 307 307 307 313 313 313 310 312 312 314 313 315 315 316 316 316 314 314 313 313 315 316 312 311 312 311 317 315 319 319 322 318
297 299 300 301 300 301 300 300 298 295 295 303 305 310 309 308 309 312 312 313 312 311 311 312 313 313 314 314 315 315 316 314 313 312 312 315 316 314 312 315 316 313 315 314 315 314 317
298 298 300 300 300 300 300 299 298 294 295 301 307 315 308 308 315 315 315 313 310 312 310 311 312 313 314 314 315 315 316 315 312 312 314 313 315 316 315 311 311 313 315 315 318 317 313
297 297 299 299 300 300 300 300 300 293 294 302 307 309 308 308 317 315 312 312 312 311 311 311 311 311 312 313 314 313 313 311 311 312 313 313 315 315 314 313 311 313 313 313 311 313 317
296 296 297 299 299 300 299 300 299 294 294 303 307 312 311 311 310 314 313 312 312 311 310 310 310 311 312 312 312 313 313 311 310 312 308 310 313 315 317 315 314 314 313 312 313 317 314
296 296 297 299 299 299 299 299 298 294 294 304 306 306 304 314 313 312 312 312 312 312 311 310 310 311 312 313 312 312 312 312 311 309 310 312 314 310 311 311 312 312 312 312 312 313 317
296 295 297 299 299 299 299 299 298 296 294 303 304 303 304 307 308 310 310 313 312 312 312 311 311 311 311 311 311 312 312 312 313 312 311 311 313 310 312 310 310 311 311 312 311 311 311
296 295 296 298 298 298 298 299 297 297 293 300 300 302 303 307 310 311 313 312 312 311 312 311 311 312 311 312 311 311 310 311 311 312 312 312 312 312 314 309 310 313 312 311 312 311 311
298 296 296 298 297 298 298 298 297 298 294 297 297 300 303 307 309 309 308 308 312 312 312 312 312 312 310 309 309 310 310 311 311 311 311 312 312 312 314 311 315 313 311 311 311 311 311
303 299 297 297 297 297 298 298 297 298 296 296 293 297 300 302 304 306 306 306 308 311 312 312 312 311 309 311 312 312 312 311 311 311 311 311 311 313 314 314 313 311 310 311 313 315 311
302 300 297 298 298 297 297 297 297 299 298 296 295 294 297 299 303 302 304 305 308 311 312 312 310 310 311 313 312 313 313 312 312 312 311 310 311 312 312 313 315 316 313 312 312 319 313
303 299 298 298 298 298 297 296 296 297 298 297 296 295 296 297 298 300 302 304 306 308 310 311 311 311 309 313 312 313 313 312 313 312 312 312 311 312 311 311 312 311 314 313 319 319 315
303 296 298 300 299 299 297 296 297 297 298 297 297 296 295 296 296 296 296 299 300 303 309 308 311 311 312 313 312 312 312 312 312 312 311 311 312 312 312 312 311 310 314 316 316 313 312
298 297 299 301 298 298 296 297 297 297 298 297 297 296 295 296 296 295 295 296 296 296 296 300 305 310 311 313 312 311 311 313 312 313 311 312 311 312 311 311 311 311 314 315 314 313 311

GFSGBSN_850_thetae_054.txt.gz
Theta_e
305 304 307 306 307 305 306 306 306 308 305 305 306 307 306 306 305 306 305 303 304 302 302 302 302 303 304 307 307 308 311 310 313 318 318 319 315 320 321 320 320 320 319 319 319 320 320
303 305 306 305 305 305 305 306 306 304 304 306 308 308 305 304 304 305 303 303 303 303 302 302 302 303 305 308 307 308 310 316 317 317 318 319 316 319 320 319 319 319 319 319 319 320 320
302 304 305 308 305 305 305 305 305 305 305 306 308 305 304 304 304 304 300 301 302 302 301 301 302 303 305 306 307 310 308 315 317 318 318 317 316 319 320 320 319 319 319 319 319 320 320
301 301 303 304 304 304 305 304 305 305 305 306 306 304 304 305 304 304 300 300 302 301 302 301 302 305 305 305 306 308 310 313 317 317 317 316 316 317 319 319 319 319 319 320 319 319 319
301 301 302 305 303 303 304 304 304 304 305 307 305 304 302 304 303 304 299 301 301 301 301 302 303 305 305 306 307 307 308 313 316 318 317 316 317 318 319 319 320 319 320 320 319 318 319
300 300 301 303 303 303 303 304 304 304 305 305 305 304 302 304 304 302 301 301 304 304 303 304 305 305 305 307 307 307 307 314 317 317 316 317 318 319 318 320 322 320 319 318 318 318 318
300 299 301 302 302 303 303 302 303 304 305 306 305 304 302 300 301 301 304 305 305 305 305 304 305 305 306 306 308 308 310 313 317 317 319 317 318 319 319 318 316 316 317 317 317 318 317
300 299 300 301 300 301 301 302 303 303 304 305 305 304 302 301 301 303 304 304 303 304 305 304 304 304 305 305 309 310 312 315 318 317 317 318 319 317 318 317 317 316 316 316 316 317 317
300 299 300 300 299 297 296 300 301 301 303 303 304 303 302 302 303 304 304 304 304 304 306 306 306 307 306 307 309 312 313 315 316 316 317 317 317 316 316 317 317 316 316 315 316 316 316
300 299 300 300 300 300 297 295 300 295 301 303 303 305 304 304 305 303 301 301 303 302 308 307 307 307 307 303 306 311 312 315 315 316 317 317 317 318 318 319 317 316 315 316 318 317 316
299 299 300 300 301 300 301 301 296 295 295 303 304 304 305 303 306 305 301 301 302 306 311 308 306 308 308 309 310 310 312 314 316 316 316 316 318 318 319 319 317 317 317 318 318 318 318
299 298 300 301 301 301 301 301 300 294 294 299 304 306 306 306 305 303 301 303 305 309 313 309 308 312 312 313 312 311 314 314 314 314 311 313 313 316 318 317 317 318 316 316 317 318 321
299 298 300 301 301 301 301 301 301 298 294 296 304 307 307 306 306 305 304 305 309 313 309 312 313 310 313 313 312 312 315 316 316 316 316 310 310 312 314 317 317 316 317 317 320 319 320
299 298 300 301 301 300 301 301 302 300 295 297 304 307 307 307 306 305 306 309 312 311 312 312 314 314 315 314 314 312 314 317 314 316 317 317 314 311 312 316 316 316 318 318 319 321 317
298 298 300 300 300 300 300 301 301 299 296 298 304 308 309 308 307 306 307 312 312 312 309 314 314 315 315 315 314 315 317 316 316 316 317 318 315 310 312 314 315 316 318 311 314 311 314
298 298 299 299 300 299 300 300 300 301 296 298 305 308 309 307 308 309 311 313 313 311 313 312 314 314 314 316 316 316 317 315 314 313 312 315 315 311 312 313 312 315 316 318 312 315 317
299 299 298 298 299 299 299 299 300 300 296 299 308 311 311 308 310 311 310 311 313 312 311 312 314 313 313 315 315 316 316 314 314 312 313 315 316 315 313 314 314 314 317 316 314 312 316
301 297 297 298 298 298 298 299 300 299 296 299 310 314 310 308 314 316 315 312 312 312 311 312 313 313 314 314 314 315 316 314 312 312 314 313 314 316 315 311 311 312 315 314 318 319 310
300 297 297 297 298 298 298 299 300 299 295 301 307 309 311 309 319 316 312 312 312 312 311 311 312 312 312 314 314 313 314 312 312 313 313 313 314 314 314 312 311 313 313 313 310 311 312
299 298 297 297 298 298 297 299 300 299 295 304 307 311 308 312 312 313 313 313 313 311 311 310 311 311 312 312 312 313 313 312 311 311 309 311 313 313 312 314 313 311 313 312 309 308 312
302 300 297 297 297 297 298 299 299 299 296 304 306 306 304 309 313 310 312 313 313 313 311 310 311 312 313 313 312 313 313 311 312 309 311 312 309 304 311 312 311 312 313 312 307 311 309
301 299 298 297 297 297 298 299 299 299 296 301 303 302 303 305 308 310 310 314 313 312 312 312 311 311 311 312 312 312 312 312 313 310 311 311 309 309 311 310 310 309 310 311 311 311 311
299 298 297 297 296 298 298 298 298 298 296 299 297 301 303 305 309 310 310 311 313 312 312 311 312 311 311 313 312 311 311 311 311 311 311 311 309 309 311 309 309 310 310 310 311 311 310
299 301 301 297 297 298 298 297 298 298 295 297 296 299 301 305 306 308 307 308 310 311 312 312 312 312 310 310 310 310 310 310 311 311 311 311 311 310 310 308 309 311 311 310 310 311 310
303 304 300 297 298 298 298 297 297 298 297 297 296 296 298 300 299 303 304 306 307 310 311 312 312 310 310 311 311 311 312 311 311 311 310 309 310 311 309 308 310 311 310 311 311 311 310
304 303 299 298 299 299 298 297 296 297 298 298 297 295 297 298 300 298 300 303 306 308 311 312 311 310 311 312 312 313 313 312 312 312 310 310 309 310 312 310 312 316 311 312 312 317 311
304 303 298 298 300 299 298 297 297 297 298 298 297 296 297 297 298 297 301 301 304 306 309 311 311 310 310 312 312 311 312 312 312 312 312 311 310 311 310 312 309 312 313 313 317 317 313
304 301 297 299 300 300 298 297 298 298 297 298 297 297 295 296 296 296 296 296 298 301 306 303 310 311 311 312 311 311 310 311 311 311 310 310 311 312 311 312 309 312 313 315 313 312 313
304 300 297 300 300 299 297 297 298 298 297 298 298 297 297 296 296 296 295 295 295 296 296 297 302 306 310 311 310 310 309 309 310 312 308 310 309 310 309 310 310 310 313 314 314 312 311

GFSGBSN_850_thetae_057.txt.gz
Theta_e
302 303 306 306 308 307 305 305 306 306 306 308 308 307 306 305 305 304 305 304 303 304 303 302 302 302 303 305 307 308 310 313 313 316 317 319 318 321 321 321 321 321 319 320 320 319 321
301 302 305 306 305 305 305 304 305 306 306 308 306 307 305 304 305 304 304 300 303 303 303 301 302 302 303 305 305 305 308 312 313 315 317 319 316 320 320 320 319 320 320 319 318 319 320
301 301 303 306 305 305 305 305 304 305 305 307 307 306 302 305 304 304 301 299 302 302 301 300 301 303 304 304 306 308 308 309 313 315 318 318 315 319 319 319 318 318 320 319 318 319 319
301 300 301 305 306 305 304 302 306 305 305 306 307 305 303 304 303 303 299 301 301 301 301 302 301 303 304 304 304 308 309 309 314 315 316 318 316 318 319 319 318 318 318 320 317 318 319
300 300 301 303 303 304 303 302 304 305 305 306 306 305 302 303 303 301 300 300 302 302 300 302 302 304 305 306 305 306 306 308 315 316 316 316 317 317 318 318 318 319 319 319 318 318 318
300 300 300 302 301 303 301 299 301 305 305 305 306 304 301 300 300 301 302 303 304 303 303 304 305 304 304 306 307 306 307 308 314 317 317 317 317 317 318 317 321 319 317 319 318 317 317
300 300 300 301 300 300 298 297 296 302 304 304 304 303 302 301 300 301 303 304 304 305 305 303 304 304 305 305 308 308 306 308 314 317 317 316 316 318 318 317 316 317 317 318 317 316 318
300 300 299 301 301 301 301 301 298 298 301 303 303 305 302 302 303 303 303 304 303 304 304 304 305 305 306 306 308 307 307 312 315 316 316 317 316 315 316 317 318 315 316 315 315 316 316
300 300 299 301 301 302 301 301 302 297 295 298 303 304 305 303 303 302 302 302 304 304 304 306 306 306 305 307 307 308 309 313 313 315 316 316 315 316 317 317 318 314 313 314 315 315 314
299 299 300 301 301 301 301 301 302 301 294 295 303 305 307 305 306 305 303 301 302 303 305 308 307 307 307 306 309 309 312 313 315 317 316 317 315 315 315 317 315 315 313 315 316 315 315
299 299 300 301 301 301 300 301 301 301 296 295 301 305 306 307 303 305 302 301 303 305 307 308 307 306 307 306 310 311 311 313 316 314 314 316 316 317 318 317 317 316 315 316 315 315 316
299 299 300 301 301 300 300 301 301 300 297 295 302 306 306 306 306 305 305 302 305 303 311 309 305 306 307 306 311 309 313 314 314 314 312 313 312 315 318 317 317 315 315 314 314 315 316
299 299 300 300 300 300 299 300 301 301 297 297 303 306 307 306 307 306 306 305 306 307 308 313 313 313 313 313 312 314 315 315 315 316 314 313 311 311 314 317 316 315 315 312 313 312 315
299 298 300 299 299 299 299 300 301 301 296 297 304 306 308 307 307 306 307 306 306 311 309 312 314 314 314 313 312 313 315 315 314 312 310 313 315 314 312 315 318 316 314 312 314 314 315
300 300 300 299 299 298 298 299 301 302 297 298 305 307 309 307 307 308 308 304 305 306 307 313 314 315 315 315 313 315 315 316 315 314 314 314 313 310 312 314 315 316 313 311 311 310 308
300 302 300 299 299 298 298 299 301 302 297 299 307 309 310 308 308 309 307 310 311 310 312 312 314 313 313 316 315 315 315 314 316 314 313 314 314 312 313 313 313 315 314 315 307 313 313
302 302 301 299 298 298 298 300 301 302 300 300 309 310 310 307 310 309 308 305 311 312 311 311 312 313 313 315 314 315 314 313 312 311 310 312 312 314 313 314 317 315 316 315 313 308 312
304 302 301 299 298 297 297 300 301 301 301 299 309 304 310 308 310 308 303 310 311 311 311 311 311 312 312 314 313 314 314 312 311 311 315 313 312 315 314 312 312 312 315 314 314 316 307
304 302 301 300 299 297 297 302 301 300 297 303 307 308 310 310 308 307 311 312 312 311 310 310 311 311 311 312 313 312 312 311 311 311 312 311 312 312 313 311 310 312 313 314 310 310 312
303 302 302 299 298 297 298 301 300 300 299 304 306 302 306 310 310 310 311 312 312 310 310 310 310 310 311 311 311 312 311 311 311 309 309 311 310 310 312 313 311 311 313 311 309 306 310
301 302 302 302 297 296 300 299 299 300 298 300 303 303 303 300 307 306 308 311 312 312 310 310 310 310 310 311 311 312 311 311 311 309 310 309 305 300 309 312 309 311 312 311 309 310 308
301 300 302 303 297 298 299 299 298 299 299 295 301 300 301 302 304 306 308 312 311 312 310 311 310 309 309 311 310 311 311 310 311 308 310 308 305 304 308 309 309 307 309 310 310 309 309
300 300 304 303 297 299 299 298 298 298 298 295 294 298 301 302 305 307 308 309 310 310 311 311 310 310 311 311 310 310 310 309 309 308 308 309 304 302 304 308 308 307 308 309 309 310 310
303 304 303 303 297 299 298 298 297 298 298 296 295 297 298 300 299 300 305 306 307 307 309 310 312 310 309 310 310 310 310 310 310 308 308 308 307 304 302 305 305 305 309 308 308 309 308
305 305 304 300 298 299 298 298 297 297 298 298 296 296 296 296 298 298 299 302 304 306 308 311 312 309 310 310 309 310 309 310 310 309 309 307 308 306 307 303 305 310 310 310 309 309 308
306 304 303 297 298 300 299 297 297 297 297 298 297 295 297 297 297 298 299 300 304 304 309 311 311 310 310 309 310 311 310 309 310 311 309 309 309 307 310 307 311 313 310 310 311 313 309
305 304 300 297 300 299 299 297 298 298 297 298 297 297 296 296 297 297 296 297 299 303 303 308 308 310 310 307 309 306 309 309 310 311 311 310 309 309 310 311 307 307 310 312 316 313 310
305 302 297 298 300 299 298 297 297 298 297 297 297 297 297 296 296 296 296 296 296 298 302 303 307 309 308 308 307 307 307 308 309 308 309 308 308 309 311 311 308 310 312 314 311 312 312
304 301 298 299 299 298 298 297 296 298 297 298 297 297 298 297 296 296 295 295 296 296 296 297 301 303 307 309 307 307 308 305 306 309 306 308 306 307 307 309 307 312 313 313 313 312 312

GFSGBSN_850_thetae_060.txt.gz
Theta_e
302 302 305 306 306 307 306 304 306 305 306 307 307 307 305 305 306 305 304 302 303 304 304 302 301 302 303 304 305 309 308 311 313 311 318 316 315 320 319 321 323 320 321 322 323 323 324
301 301 302 306 306 306 306 304 305 305 306 307 307 306 303 304 304 303 300 300 302 302 302 301 302 302 303 304 303 304 307 309 314 309 317 317 315 320 320 320 322 322 320 320 320 320 324
301 301 301 303 304 304 304 304 305 304 305 306 307 305 303 303 303 301 298 301 301 301 300 300 301 302 303 302 305 305 305 309 313 313 317 317 316 318 319 319 320 319 320 318 319 318 318
301 301 300 302 301 301 303 302 302 305 306 305 306 305 301 303 301 299 300 300 301 301 300 302 301 302 303 303 303 304 308 309 312 313 316 317 315 318 318 318 318 317 319 321 318 318 319
301 301 300 301 301 302 303 302 300 302 305 305 305 305 301 300 300 301 301 303 302 300 301 302 303 303 304 306 305 305 307 308 312 312 314 318 317 317 318 316 317 318 320 320 319 317 318
301 301 300 301 301 302 302 305 302 300 301 304 305 305 301 301 299 300 302 304 303 303 304 304 305 304 305 305 306 306 306 307 308 312 313 318 316 316 314 317 320 320 319 319 319 317 318
301 300 300 301 301 301 301 304 304 303 298 299 303 304 302 302 302 301 302 303 302 303 304 304 304 304 304 305 307 307 307 306 309 314 317 316 316 317 317 315 315 317 317 319 317 316 318
302 300 300 301 301 301 300 302 302 302 301 297 301 304 305 302 302 302 301 302 303 303 303 305 305 305 306 307 308 307 306 308 313 318 316 317 318 315 315 316 316 317 316 317 316 316 316
303 300 300 301 301 301 300 301 301 301 299 295 297 305 306 303 303 302 301 302 302 303 304 306 306 305 306 307 308 307 307 309 313 316 315 316 315 315 317 317 318 315 316 314 315 315 314
303 300 299 301 301 300 299 300 301 301 296 295 296 305 307 305 305 304 304 301 302 304 300 309 307 307 307 305 309 307 306 312 311 316 316 316 314 316 316 317 316 316 312 313 314 315 318
303 300 299 301 300 300 299 300 301 301 296 296 298 305 307 307 305 303 303 301 303 305 310 309 307 306 306 307 308 311 311 313 314 315 314 317 315 315 316 316 314 314 313 314 314 314 313
304 301 300 301 300 300 299 300 301 301 297 296 301 305 307 307 306 306 305 304 304 301 312 308 306 308 309 308 310 309 311 314 313 314 312 313 312 314 316 316 316 314 314 312 313 313 315
304 301 303 300 299 299 299 300 302 302 298 297 303 306 307 306 307 306 306 305 301 308 307 312 314 311 312 312 312 309 314 315 315 315 315 312 312 312 313 316 315 315 313 314 317 316 314
305 302 303 300 300 299 298 301 302 302 299 298 304 307 308 307 307 306 307 301 305 309 308 311 314 313 314 313 312 314 314 315 312 311 313 314 316 315 312 314 316 316 312 310 314 314 313
306 303 302 302 300 299 298 300 302 302 300 299 305 308 309 307 308 307 307 301 304 303 305 311 313 315 315 314 312 314 313 315 313 311 313 314 313 311 312 314 315 315 317 311 309 308 306
304 304 302 303 300 299 298 301 302 303 301 299 307 310 309 307 309 309 303 308 307 309 310 312 313 312 313 315 315 315 316 314 315 313 311 311 313 312 313 313 313 314 312 315 306 310 312
303 304 303 302 300 299 298 302 302 302 302 301 309 310 309 307 309 307 303 304 310 311 311 311 312 312 313 313 313 315 313 314 312 313 311 310 310 313 314 316 316 316 317 314 311 308 311
304 304 304 302 301 300 298 303 302 302 302 302 307 304 309 308 309 304 301 308 310 311 310 310 310 311 312 312 312 313 313 312 310 310 312 311 310 314 314 313 313 312 315 315 315 310 304
305 304 303 302 304 300 299 302 301 301 300 301 307 307 310 310 307 303 309 311 311 311 309 309 310 310 310 311 311 311 311 310 311 310 311 311 308 307 314 311 312 314 313 312 310 308 304
304 304 302 303 304 299 300 300 300 301 299 303 305 299 304 308 308 307 308 311 311 310 310 309 309 309 310 311 310 311 311 310 310 309 310 311 309 309 310 310 309 308 313 312 311 310 313
304 302 301 304 304 298 300 299 300 300 299 301 302 301 301 299 305 303 306 309 312 312 309 309 309 309 310 310 311 311 310 310 310 309 309 307 304 301 308 311 309 310 312 311 311 314 314
303 302 303 305 302 299 299 298 299 300 299 298 300 299 300 300 302 304 307 309 311 311 310 310 309 309 308 310 309 310 310 309 310 308 309 305 304 303 308 309 309 307 308 311 311 310 309
304 304 305 304 299 300 299 298 298 299 300 296 296 299 300 300 299 306 306 307 309 308 311 310 309 310 310 310 309 309 310 309 308 307 308 307 303 300 302 307 306 306 307 307 309 309 310
306 306 305 302 298 300 298 297 297 298 298 298 297 297 297 297 296 298 299 301 306 306 307 309 311 310 309 310 309 309 309 308 308 307 308 306 304 302 300 303 304 306 307 306 307 308 308
306 305 304 301 298 300 298 297 298 297 298 298 297 296 297 295 296 297 298 298 301 305 306 308 311 309 310 310 307 308 307 309 309 307 307 306 306 306 305 302 304 308 309 308 307 308 306
306 305 303 299 299 299 299 297 298 297 297 298 297 296 296 296 296 296 296 298 303 304 306 310 311 310 310 307 309 309 309 308 309 310 306 308 307 305 307 306 309 307 310 308 309 310 309
305 304 302 298 300 298 297 297 298 297 297 297 297 297 297 296 296 296 295 295 297 299 301 304 305 308 309 306 308 306 308 307 309 309 309 309 309 308 309 310 307 305 306 311 313 310 310
305 304 299 299 299 298 298 297 297 298 297 297 297 297 297 297 297 296 296 296 296 296 299 301 305 308 307 307 307 306 305 306 307 307 308 308 310 308 310 309 307 306 311 312 311 312 311
305 303 298 299 298 299 298 298 297 298 297 297 298 297 296 297 296 296 295 295 295 295 295 296 300 300 303 308 305 305 306 303 305 308 304 308 305 306 306 306 306 309 311 313 313 313 312

GFSGBSN_850_thetae_063.txt.gz
Theta_e
303 301 301 303 304 305 306 305 303 305 306 307 307 306 304 305 305 302 299 300 302 303 303 301 301 301 302 304 304 308 308 311 311 312 312 316 316 316 318 320 321 320 322 323 323 323 323
304 301 301 302 302 303 305 304 303 306 306 306 307 306 304 306 303 299 300 301 302 301 302 301 301 301 302 303 302 302 307 307 309 311 312 316 316 315 319 321 321 321 320 323 323 322 324
305 301 300 301 301 302 304 305 303 303 306 306 306 306 304 303 301 298 300 300 300 300 300 300 301 302 302 302 303 305 305 306 309 312 312 315 315 316 319 318 321 321 320 320 321 321 322
306 301 300 301 301 302 303 306 307 306 303 306 305 305 304 301 300 299 300 303 302 303 301 302 302 302 302 304 304 304 305 306 310 313 312 316 316 316 317 318 319 317 319 321 319 319 319
307 302 300 301 302 302 302 307 306 306 306 302 304 305 305 301 299 300 301 303 301 301 301 302 303 303 303 305 305 305 304 308 311 313 310 313 316 317 317 315 316 317 319 319 319 318 319
309 302 300 300 302 301 301 305 304 306 307 301 303 304 305 301 301 300 300 302 303 304 303 304 305 303 304 305 306 305 306 306 310 312 313 317 315 314 313 315 319 318 317 318 319 318 317
310 303 300 300 302 301 300 301 303 305 305 303 300 304 305 302 302 303 302 303 302 303 303 304 303 304 304 305 306 306 306 305 309 313 314 316 315 317 315 314 315 315 316 319 317 317 318
310 303 301 300 302 301 300 300 300 303 304 300 295 300 306 302 301 301 300 301 302 303 303 306 306 305 305 307 308 307 305 308 309 312 312 315 315 314 315 315 315 315 316 317 316 315 318
310 304 301 300 302 300 300 300 300 301 301 297 295 300 306 304 303 301 300 301 302 303 304 306 306 305 306 307 308 307 308 307 310 312 312 313 315 314 316 317 316 314 315 314 317 314 313
311 304 302 301 302 301 299 300 300 301 301 296 296 302 306 306 304 304 302 300 302 304 297 309 307 307 307 306 309 306 309 310 310 313 315 316 315 316 316 317 315 316 313 313 314 316 316
311 305 302 302 302 301 300 299 301 302 301 297 298 303 307 307 305 303 303 301 302 305 304 308 307 306 306 308 308 309 309 312 312 315 315 315 315 315 316 316 313 315 311 313 313 314 314
312 305 303 304 302 301 300 300 302 302 301 297 300 305 307 306 306 305 305 304 303 299 307 309 308 309 310 310 309 308 311 313 313 314 313 313 312 313 316 315 314 312 312 311 312 313 314
311 306 304 304 301 301 301 300 303 302 301 298 302 307 307 306 306 306 305 304 302 305 307 312 314 311 311 311 313 312 312 314 314 315 317 314 313 312 313 316 315 313 311 313 317 316 315
311 307 306 304 302 301 301 301 303 302 302 299 304 307 307 307 307 306 306 299 305 309 310 311 313 312 313 312 313 314 314 315 312 313 313 316 316 313 311 314 315 315 311 310 315 315 314
311 307 306 303 303 303 302 301 304 303 301 301 304 307 309 307 308 307 306 300 304 301 303 310 312 314 313 312 313 312 313 314 312 310 312 312 313 311 313 313 313 315 312 308 307 305 307
311 306 305 304 304 305 304 301 303 303 302 301 307 309 308 307 308 308 300 305 306 307 309 311 312 310 313 313 314 313 314 313 314 312 310 310 314 312 313 313 313 314 312 314 304 308 311
311 305 305 304 305 307 304 303 303 302 302 301 308 310 309 307 309 307 299 299 309 310 310 310 311 312 312 313 312 313 313 313 313 312 309 308 309 312 314 315 316 316 316 313 310 306 310
309 306 304 305 306 306 304 303 302 301 301 301 307 304 309 309 308 302 300 307 310 310 310 309 309 310 311 311 312 312 312 311 311 312 311 309 309 312 315 311 313 315 316 311 309 309 303
307 305 304 305 306 306 302 302 301 301 300 301 307 307 309 310 304 301 307 310 310 310 309 309 309 309 309 310 312 311 310 310 310 309 310 309 306 313 314 312 311 316 314 312 308 305 303
305 304 304 304 306 304 302 301 300 300 299 304 305 299 305 307 305 306 306 310 310 310 309 308 308 309 309 310 308 310 310 309 309 309 310 310 308 306 308 309 309 314 315 312 310 310 314
305 304 304 305 305 301 301 300 299 300 298 302 302 299 300 298 305 303 305 308 311 311 309 308 309 308 309 310 310 311 310 309 309 309 308 308 307 301 306 311 307 308 310 313 309 314 313
304 304 304 306 304 301 300 299 299 300 298 297 298 298 299 300 301 302 305 308 311 309 309 309 308 309 308 309 308 309 309 308 310 307 308 304 303 301 307 308 308 306 307 311 313 313 312
305 305 306 305 303 301 300 299 299 299 299 297 297 299 300 299 297 303 302 303 308 307 310 309 309 309 309 309 308 308 309 308 307 306 307 306 302 300 302 304 305 306 306 307 310 309 311
306 306 306 305 301 301 300 299 299 298 298 297 297 297 296 297 296 298 298 298 304 302 305 307 309 309 309 309 308 308 308 307 307 306 306 304 303 301 299 303 305 305 305 305 306 307 307
307 306 305 304 299 300 299 298 298 298 298 297 297 297 297 295 296 296 296 297 301 304 306 307 310 310 310 309 306 307 306 308 308 306 306 304 304 305 305 302 304 308 308 307 307 307 305
307 306 304 301 300 299 299 298 298 298 298 297 297 297 296 296 296 296 295 297 298 300 303 308 309 309 309 308 308 309 308 307 308 309 305 307 306 307 303 307 308 304 309 307 307 309 308
307 305 304 299 299 299 299 298 297 298 297 297 297 297 297 296 296 296 294 294 296 296 297 300 302 306 308 306 310 309 308 306 308 309 309 309 309 307 308 306 306 304 304 309 312 308 310
305 305 302 300 299 299 299 298 298 298 297 297 297 296 296 296 296 296 295 296 296 296 295 298 301 306 307 307 310 307 304 304 306 306 306 307 310 311 309 310 306 305 310 311 309 312 311
305 303 300 299 299 299 298 298 297 297 297 297 297 296 296 296 296 296 295 295 295 296 296 296 298 299 300 306 303 303 305 301 303 307 303 306 304 305 305 306 305 306 310 311 312 312 312

GFSGBSN_850_thetae_066.txt.gz
Theta_e
310 303 301 301 303 306 307 308 305 303 306 306 307 309 305 306 304 298 300 301 301 302 303 302 301 302 302 303 302 307 308 309 311 312 312 315 316 316 316 318 321 321 321 322 323 323 323
311 304 302 301 302 304 306 307 307 306 303 305 306 307 306 304 302 298 300 300 300 300 300 300 301 302 301 301 301 301 307 307 309 310 311 311 316 316 316 319 320 321 321 322 323 323 323
313 305 302 300 302 304 306 305 306 306 306 304 306 305 306 304 302 298 299 301 302 303 300 301 300 301 302 301 302 305 303 306 308 309 311 312 315 314 317 318 320 319 323 323 323 323 324
314 307 303 301 302 302 306 305 306 306 305 306 302 305 305 305 304 300 300 302 302 300 300 301 302 301 301 303 305 302 304 306 309 309 311 312 315 315 317 318 319 319 320 324 321 322 321
314 309 304 301 301 302 304 302 304 306 306 306 302 304 305 305 302 301 300 302 302 302 302 303 304 303 303 305 305 304 304 305 310 310 313 313 315 315 316 315 317 319 319 318 321 321 321
315 310 305 301 301 302 301 300 302 304 306 304 303 301 305 304 302 304 301 301 303 303 303 303 304 303 304 304 305 305 304 308 309 312 312 311 312 314 313 316 318 317 316 317 319 319 321
316 311 306 301 301 302 300 300 300 302 303 304 301 297 303 304 301 301 301 303 302 303 303 304 304 304 304 306 305 305 305 305 309 311 310 307 314 316 315 314 313 313 315 317 316 318 320
315 312 307 302 301 302 301 299 301 302 302 301 297 296 303 305 302 301 300 301 302 303 304 306 305 305 305 306 306 306 306 307 310 312 310 309 314 312 313 313 314 314 314 316 316 316 318
315 311 308 303 302 302 301 299 300 302 302 301 297 298 304 306 303 302 301 302 302 303 303 306 307 306 306 307 308 306 308 308 309 311 310 313 312 313 316 314 315 313 314 314 315 314 313
315 311 308 304 303 303 302 300 299 302 302 301 297 300 305 306 304 304 302 301 301 304 301 308 307 306 307 306 308 308 309 309 310 313 312 313 314 315 316 316 314 316 312 313 314 315 317
315 312 308 304 304 303 302 301 300 303 302 301 298 302 306 306 305 303 303 301 301 304 303 309 308 307 307 308 308 309 310 310 310 313 311 314 316 315 317 316 314 314 311 312 313 312 313
315 312 308 305 304 303 302 302 301 303 302 301 299 304 306 306 306 305 304 304 303 298 303 308 309 309 309 310 309 309 311 312 311 314 313 313 312 313 315 314 313 310 311 310 310 311 310
314 311 309 305 304 303 302 303 302 303 302 302 301 306 307 307 306 306 305 304 299 304 307 308 313 311 312 312 312 312 313 312 311 315 315 315 314 313 312 314 314 311 311 310 312 311 311
313 311 310 305 304 303 304 303 302 303 302 302 302 307 307 307 306 306 306 298 304 306 311 311 313 312 314 313 313 312 314 314 311 312 313 314 317 313 311 313 315 313 311 310 314 314 312
313 311 310 305 304 304 306 302 303 303 302 302 303 307 308 306 308 306 305 297 302 299 302 310 313 314 313 312 313 312 313 313 311 310 313 310 314 311 313 312 312 314 314 307 305 304 305
312 311 308 305 304 305 305 302 303 302 302 301 306 308 308 307 308 306 300 304 306 305 308 310 310 310 314 312 312 311 312 312 313 311 309 309 313 312 313 312 312 313 310 313 304 309 311
312 312 306 305 305 306 305 302 303 302 301 301 308 309 309 307 307 306 300 298 308 309 310 309 310 311 310 310 311 312 312 313 312 311 307 307 308 313 312 313 313 315 314 312 309 306 309
313 311 305 305 305 305 304 302 302 301 302 301 306 303 308 309 306 301 300 305 309 309 310 309 308 309 310 310 312 311 312 311 312 310 310 308 308 313 314 311 311 313 314 310 310 308 302
313 310 305 305 305 305 302 302 301 301 301 301 306 307 308 308 302 299 305 309 309 309 308 308 309 309 309 309 312 310 310 309 309 309 310 308 306 314 313 311 311 315 315 314 307 304 303
312 309 305 304 305 304 302 301 301 301 301 301 304 299 305 306 304 305 306 309 309 309 308 308 308 308 309 309 308 310 310 309 308 309 310 309 306 306 308 308 309 314 313 314 313 316 315
312 307 305 304 305 303 302 300 300 300 300 300 300 298 298 298 302 302 304 306 310 310 308 307 307 308 308 309 310 310 309 309 308 310 307 308 306 299 306 308 307 308 310 312 313 315 316
311 305 305 305 305 303 301 300 300 300 300 300 298 298 299 298 300 303 303 306 309 307 308 309 308 308 308 309 308 309 308 308 309 307 307 303 302 300 307 307 308 306 307 309 312 313 312
310 305 305 306 304 302 301 300 300 300 301 299 298 298 300 297 296 302 299 299 306 303 308 308 308 309 308 308 308 307 308 307 307 306 306 305 301 300 302 304 304 306 306 306 308 309 312
308 305 306 305 304 301 300 300 299 299 299 299 298 298 296 296 296 297 297 297 300 301 303 305 308 308 308 309 308 307 307 306 306 305 305 303 302 300 299 302 304 305 304 305 306 306 307
307 306 306 305 303 301 300 299 299 299 299 299 298 297 297 295 296 296 295 297 299 302 305 306 309 308 309 308 306 307 305 307 307 306 306 302 303 304 304 301 304 307 307 306 307 307 305
307 306 306 304 301 300 299 299 299 298 298 298 298 297 297 296 295 295 295 295 294 296 298 305 307 308 309 307 307 309 308 306 307 308 304 305 306 307 303 308 307 303 308 307 306 308 307
307 307 305 302 300 299 299 299 298 298 298 298 297 297 297 296 295 296 293 294 295 294 293 298 299 304 307 308 309 308 308 305 307 308 308 309 309 308 309 310 305 303 304 306 310 307 310
308 307 304 301 299 299 299 298 298 298 297 297 297 296 296 295 296 296 295 296 296 295 294 296 301 302 306 308 309 307 304 304 305 304 305 307 308 308 308 310 307 305 308 310 307 310 311
308 305 303 300 299 299 299 298 297 297 297 297 296 296 295 295 295 296 295 294 295 295 295 295 297 298 298 304 304 302 305 300 302 306 302 306 304 305 305 305 304 305 307 309 311 311 311

GFSGBSN_850_thetae_069.txt.gz
Theta_e
314 310 303 302 302 304 304 306 307 307 307 306 305 307 307 305 304 299 299 300 301 300 300 300 300 302 303 302 301 306 307 309 308 312 313 315 316 315 315 318 321 322 323 322 323 323 323
316 313 304 302 301 304 303 306 306 307 306 307 304 305 306 306 304 301 298 299 303 303 300 300 301 302 301 301 301 301 306 307 309 311 312 315 316 314 315 318 320 320 321 322 323 323 323
318 314 307 303 300 302 303 305 305 306 307 306 307 303 305 305 305 304 299 300 304 302 302 301 301 301 301 301 301 303 304 307 306 309 310 313 315 315 315 318 319 319 321 321 323 323 323
320 316 311 303 301 301 303 302 301 306 306 307 307 304 304 305 305 304 301 300 302 302 301 302 302 301 301 303 304 302 303 304 306 308 309 311 314 315 316 317 319 319 320 322 323 323 321
320 318 313 305 301 301 303 301 301 303 306 305 306 304 301 305 304 303 303 299 302 303 303 303 304 303 303 304 304 304 304 304 306 308 309 311 312 315 315 317 318 320 320 321 322 322 321
321 319 313 308 301 301 302 301 300 302 305 305 305 303 300 304 302 301 303 302 302 303 303 303 304 303 304 304 305 306 304 305 308 309 312 312 310 315 313 317 318 320 318 318 321 323 321
322 319 314 310 302 301 302 301 300 301 303 302 303 300 298 305 303 301 300 302 302 302 304 304 305 303 304 305 305 305 305 307 308 311 312 306 308 314 315 313 313 314 317 318 318 319 322
323 321 315 311 304 302 302 301 300 301 302 302 300 298 300 306 305 301 300 301 302 303 304 305 305 305 305 305 305 306 306 308 307 311 308 309 312 311 313 313 313 315 316 316 315 318 319
323 320 315 312 305 303 303 301 300 301 303 301 300 298 302 306 305 303 300 302 302 303 305 306 306 306 307 306 307 306 307 307 308 310 310 311 313 311 314 313 314 313 315 314 316 315 314
321 321 315 312 306 304 303 301 301 301 303 301 300 299 305 307 305 304 302 301 301 304 300 309 308 306 307 307 308 308 309 308 309 311 311 311 312 314 314 314 313 316 312 314 314 316 320
322 320 315 312 307 305 304 301 302 302 303 302 300 301 306 306 306 304 303 301 301 304 307 308 308 307 307 308 308 309 309 310 311 312 311 314 313 315 316 315 313 314 311 312 313 313 313
322 321 314 311 307 305 304 302 303 303 303 302 301 304 307 307 306 305 304 304 303 298 303 308 309 309 309 309 309 309 312 311 312 311 311 314 312 313 315 313 312 309 311 310 310 312 318
322 320 315 310 307 305 304 304 303 303 302 302 301 305 307 307 306 305 305 303 299 303 305 309 312 311 312 312 312 312 313 312 315 313 314 314 314 313 312 315 313 311 311 316 318 318 316
323 318 315 310 307 305 305 306 304 304 302 301 302 306 307 307 306 305 305 299 304 305 310 310 313 312 313 312 312 313 312 313 312 313 314 317 316 313 311 313 315 313 310 312 315 316 314
322 318 314 311 306 305 306 306 305 304 302 301 303 306 308 306 307 306 304 295 304 300 303 310 313 312 313 312 313 313 312 313 311 310 312 312 316 312 313 312 312 314 311 306 306 304 309
320 318 313 311 305 305 306 306 305 303 301 301 305 307 308 306 307 306 299 304 305 303 307 310 310 310 312 312 312 311 312 312 313 309 308 309 314 313 313 312 312 312 308 313 307 310 313
321 316 312 310 305 306 306 306 304 302 301 300 307 308 308 307 307 305 297 298 306 308 309 309 309 310 310 310 310 311 311 312 311 309 306 307 309 313 312 313 316 315 313 310 309 307 312
321 315 312 310 305 306 306 304 303 301 301 300 306 303 307 307 306 300 298 304 309 309 309 308 308 309 310 309 310 311 311 310 311 308 310 307 308 314 313 311 311 311 311 310 312 310 303
319 315 312 309 306 306 305 303 301 301 301 301 306 306 307 308 301 297 304 308 309 309 307 307 308 308 308 309 311 310 309 308 310 308 309 307 308 312 312 311 309 314 312 311 307 308 304
318 315 312 308 306 306 304 302 301 300 301 301 304 299 304 305 303 304 305 307 309 308 307 307 307 307 309 309 307 309 309 308 308 309 310 308 306 306 309 309 309 312 313 312 312 315 313
317 314 311 306 306 305 303 301 301 301 301 301 301 298 299 297 301 301 304 306 309 309 307 307 307 307 308 309 309 309 309 308 307 309 306 307 306 300 306 307 308 309 311 313 314 313 314
316 313 309 306 307 305 302 301 301 300 300 300 299 298 298 298 299 302 301 304 307 305 307 308 307 308 307 308 307 308 308 308 309 306 307 303 303 301 307 306 307 306 308 309 311 312 312
316 312 306 306 307 304 302 301 300 300 301 300 299 298 301 296 296 301 298 298 304 302 307 306 307 308 307 307 307 306 307 306 306 306 306 308 303 302 304 303 304 306 306 307 308 309 311
314 311 305 306 305 303 301 301 300 300 300 300 299 298 297 296 296 297 296 297 299 301 302 304 307 307 307 308 307 306 306 305 305 304 304 302 302 304 305 302 306 306 304 305 306 306 308
313 310 305 307 305 302 300 301 300 300 299 299 299 298 298 295 296 295 295 296 298 299 303 305 308 307 308 308 306 306 305 307 306 304 305 302 303 304 305 302 304 306 307 305 306 307 304
312 308 305 307 304 300 300 300 300 300 299 299 298 298 297 296 294 295 294 294 294 294 295 301 305 307 308 308 308 309 308 306 306 307 303 303 303 307 303 307 308 304 306 306 305 308 306
311 307 306 305 302 300 300 300 300 299 298 298 297 297 297 295 295 295 293 294 295 294 293 295 296 303 307 308 309 306 307 304 306 307 307 309 308 308 307 309 307 303 303 305 309 306 308
310 306 307 304 300 300 300 300 299 298 298 298 297 295 296 296 295 296 296 295 295 295 294 295 299 301 304 308 309 306 304 303 304 303 304 306 308 307 307 310 308 304 307 309 306 309 310
307 306 306 302 300 300 300 299 299 298 297 297 296 295 296 295 296 295 294 294 295 295 295 295 297 298 298 303 304 301 304 300 301 306 301 306 304 305 305 305 304 304 307 308 309 309 309

GFSGBSN_850_thetae_072.txt.gz
Theta_e
318 316 313 307 304 302 304 305 304 306 307 307 307 305 306 307 306 305 300 299 303 303 302 300 301 302 302 303 302 305 306 308 307 311 313 315 316 317 318 318 320 322 322 323 323 324 324
320 318 316 311 305 303 302 304 303 306 305 307 307 306 303 306 306 304 304 299 304 304 302 300 301 301 302 302 301 301 305 308 310 311 313 314 316 316 316 317 321 320 321 322 323 324 324
321 320 318 314 308 303 302 303 302 305 306 306 307 306 303 304 306 305 304 299 301 301 301 300 302 301 301 302 301 303 303 306 308 311 314 314 316 315 315 316 319 320 322 323 323 324 324
323 321 319 315 309 305 302 303 302 303 305 307 306 306 305 302 305 304 303 300 300 302 302 303 303 302 303 303 304 302 303 305 307 308 311 311 315 315 316 317 318 321 321 324 324 323 323
322 321 320 317 312 306 303 304 301 300 303 306 306 306 303 300 305 301 303 302 300 302 303 303 304 304 304 304 305 304 303 306 307 308 310 311 313 314 316 318 319 320 321 322 323 323 323
324 321 321 318 313 308 304 304 302 300 302 305 306 304 300 301 306 301 302 301 301 302 303 303 303 304 305 305 305 306 304 305 308 308 308 312 310 313 316 318 319 319 320 321 322 324 323
325 323 321 320 314 309 304 304 302 301 301 304 305 301 299 302 306 301 301 302 303 304 304 305 305 305 304 305 305 306 305 306 307 307 311 309 311 313 316 316 314 316 319 320 320 323 323
324 323 322 320 315 310 304 305 303 302 301 303 301 300 299 304 306 302 300 302 303 303 306 305 306 305 305 305 306 306 306 307 307 306 309 311 313 313 314 315 315 318 318 320 321 323 323
324 323 322 321 315 311 304 305 303 302 302 302 301 300 302 306 305 303 300 302 302 303 307 307 306 306 306 305 307 306 307 308 307 309 311 312 313 312 315 315 316 317 318 319 320 322 321
325 324 320 320 315 311 305 305 304 303 302 302 301 300 305 306 305 304 301 301 301 304 310 309 308 307 307 307 308 307 308 308 309 310 311 312 312 314 316 315 316 318 317 318 320 322 320
326 324 321 321 315 311 306 306 304 305 302 303 301 302 306 306 306 304 303 301 301 304 314 309 309 307 308 308 308 309 309 308 310 311 311 313 313 315 317 316 316 316 316 317 318 318 318
325 325 323 322 315 311 307 306 306 304 303 303 301 304 306 307 306 305 304 304 303 310 314 309 310 310 310 310 310 309 312 310 311 311 313 314 313 315 316 315 315 313 316 317 317 318 319
326 325 322 321 314 311 307 306 307 304 303 302 301 305 306 307 306 305 304 304 311 315 308 312 313 311 312 310 310 312 312 313 314 316 316 315 314 315 314 315 314 316 317 320 319 320 318
326 324 323 321 313 311 307 306 307 305 303 301 302 306 307 307 306 305 305 306 316 309 312 311 313 312 313 312 312 313 313 315 313 314 316 318 319 316 314 316 317 317 317 318 317 317 316
326 325 323 320 313 311 307 307 306 304 302 301 303 306 307 306 307 305 304 313 314 312 311 313 313 313 313 312 313 313 314 315 313 314 317 315 316 313 314 314 315 316 317 311 314 311 316
326 325 323 320 313 310 307 307 306 303 301 301 305 306 307 306 307 305 306 311 310 306 309 312 313 312 312 313 314 314 315 313 314 311 310 314 317 314 314 314 314 315 313 316 317 318 316
325 325 321 318 312 309 307 306 304 302 301 301 306 308 307 307 306 305 311 311 309 308 309 311 312 312 312 313 313 314 314 313 313 310 310 312 315 315 314 315 318 316 316 315 315 315 316
326 324 320 317 312 309 306 306 303 301 300 301 307 310 307 306 307 303 310 308 309 310 309 310 310 311 313 312 314 314 314 313 312 311 312 310 314 316 315 313 312 314 316 316 318 317 313
326 323 320 316 311 308 306 305 302 301 300 301 305 306 306 306 312 311 308 310 310 310 309 309 310 310 310 313 314 313 312 309 312 311 312 311 313 315 314 312 312 315 316 315 314 314 316
325 323 320 315 311 307 306 304 301 301 300 302 304 309 303 305 304 308 310 310 311 308 308 308 309 309 311 311 311 313 312 310 309 311 309 310 311 314 315 313 314 314 314 315 316 319 316
325 322 318 315 310 307 306 303 301 301 300 301 302 303 304 309 307 307 307 309 311 311 309 308 309 310 310 312 312 312 311 310 310 310 309 311 315 308 309 310 312 313 314 315 316 316 317
323 322 318 313 309 307 305 302 301 301 300 300 301 301 299 301 301 306 305 309 310 308 309 310 310 310 309 310 309 312 311 311 313 309 310 308 313 308 310 309 310 312 312 313 314 315 314
323 321 316 312 308 307 304 302 301 301 301 300 300 299 302 298 302 307 305 304 305 304 307 307 309 310 310 309 308 306 307 307 310 311 312 313 310 311 314 307 308 311 310 311 312 313 313
323 320 316 310 307 306 303 301 301 301 301 301 301 300 302 301 302 303 299 299 302 303 306 305 309 309 307 307 307 305 307 307 308 307 309 312 312 310 313 308 314 309 306 308 310 310 311
321 317 313 308 307 305 302 301 301 301 301 300 300 300 299 300 299 298 299 299 299 300 305 306 307 306 308 307 309 310 309 309 309 307 307 307 310 311 313 312 310 309 308 308 309 311 308
320 315 310 307 307 304 301 300 300 301 301 300 300 299 299 299 298 296 297 296 299 299 301 302 304 306 307 310 311 312 311 310 310 309 306 307 308 311 310 312 312 308 308 307 308 311 310
319 314 307 307 307 302 301 300 300 301 300 299 298 298 298 297 295 295 297 298 295 296 299 299 297 304 307 308 311 312 310 307 310 310 311 311 310 312 311 312 310 308 306 306 310 311 310
318 310 305 307 305 301 300 300 300 300 300 299 298 297 298 296 295 295 296 296 295 296 300 297 302 303 305 310 311 310 309 309 308 307 309 311 311 312 311 312 310 306 307 310 309 309 310
318 311 305 307 303 300 300 300 300 300 299 298 297 296 297 296 296 294 294 295 295 295 296 295 299 299 299 304 306 306 308 306 308 310 305 310 309 310 310 310 307 305 308 308 307 307 307

GFSGBSN_850_thetae_075.txt.gz
Theta_e
323 321 320 318 314 308 304 303 304 302 304 306 307 308 307 304 307 307 305 304 300 306 302 300 301 302 305 305 304 304 305 307 309 311 312 314 316 317 319 318 319 323 323 323 324 324 324
322 323 321 320 317 310 305 303 304 303 302 305 307 307 306 305 305 307 306 306 300 305 301 300 301 301 305 304 302 302 305 308 310 311 312 314 315 316 316 316 318 319 321 322 324 322 324
324 323 322 320 319 312 308 304 304 302 302 303 307 307 306 306 303 306 306 305 300 302 302 302 302 304 305 304 304 305 305 307 311 311 313 314 315 316 316 317 317 319 320 322 324 323 325
324 324 323 322 320 314 310 305 304 303 302 302 306 306 306 304 304 305 305 305 301 301 303 303 303 306 305 304 305 305 305 306 310 311 312 313 315 316 317 316 318 320 321 323 322 323 324
325 325 324 321 321 317 310 307 305 303 302 301 305 305 305 304 302 306 302 305 302 301 303 303 305 306 306 305 306 306 306 306 309 310 311 311 313 315 316 317 319 320 320 321 321 322 324
325 326 324 323 321 320 311 308 306 304 302 301 304 303 301 301 303 306 301 301 302 302 305 306 306 307 306 306 306 306 306 307 308 310 311 311 312 316 316 319 319 318 319 319 320 323 323
326 325 323 324 322 320 312 310 306 305 303 302 303 302 300 300 305 305 301 305 307 307 306 306 306 306 306 306 306 307 307 307 308 309 311 310 312 316 316 317 315 314 315 319 318 321 324
324 326 323 323 323 321 314 311 306 305 303 303 303 302 300 303 306 303 300 305 305 305 308 307 307 307 305 305 306 307 307 308 308 310 308 311 314 313 315 316 317 316 316 319 319 321 323
323 325 325 324 322 321 315 311 306 305 304 303 303 302 301 306 306 303 304 305 302 303 308 309 307 307 306 306 307 307 308 308 308 308 308 314 314 313 315 317 317 316 317 320 321 321 321
322 325 325 324 321 321 315 311 306 305 305 303 303 301 303 306 306 306 305 301 301 304 310 310 309 307 308 308 307 307 308 308 308 308 307 313 313 312 316 317 316 318 316 318 319 322 322
321 324 326 324 322 321 316 310 305 305 306 303 302 301 305 306 307 307 305 302 301 305 315 311 310 308 309 309 308 308 308 310 308 309 313 314 314 315 318 316 315 316 317 318 320 321 318
321 322 326 324 323 322 316 310 305 306 306 304 302 302 307 306 306 305 304 304 304 311 315 310 310 311 310 310 310 310 310 308 311 312 314 314 314 315 317 316 316 317 318 318 318 317 320
320 322 326 324 324 322 316 310 305 306 306 304 301 304 307 307 308 306 305 307 311 317 310 313 314 311 311 310 310 312 313 312 314 315 317 315 315 316 316 317 316 317 317 319 319 320 320
320 321 325 325 324 322 315 310 306 307 305 303 301 306 307 306 306 306 305 309 316 313 313 312 313 313 313 311 312 313 313 315 314 315 315 317 320 316 316 315 316 317 316 317 316 317 316
321 321 324 324 324 322 315 309 306 306 304 302 303 306 307 306 306 306 307 315 317 314 310 313 314 314 314 313 313 314 315 315 314 314 317 317 317 315 316 316 316 317 318 313 317 315 317
322 322 322 324 324 321 315 308 306 305 303 301 305 307 307 306 306 306 307 313 313 310 312 313 315 314 314 314 314 315 315 314 315 314 313 315 317 315 316 316 316 317 316 316 318 319 316
323 322 323 325 323 320 313 307 306 304 302 300 307 308 307 306 307 307 310 312 312 310 311 313 313 313 313 314 314 315 316 313 314 313 312 315 316 316 316 317 317 316 316 317 316 317 318
323 321 322 325 322 319 311 307 306 303 301 302 309 311 306 306 308 306 312 311 310 312 311 312 312 314 314 314 314 315 316 315 313 312 313 313 315 317 316 315 315 316 316 315 317 317 316
323 321 323 323 321 316 310 307 305 302 301 304 308 306 306 306 310 313 311 311 311 311 312 311 312 312 313 314 315 314 314 312 313 313 313 313 316 316 316 314 314 316 316 316 316 317 320
324 321 323 323 319 316 309 306 304 302 300 302 307 310 305 305 308 311 312 312 312 310 310 310 311 311 312 313 313 314 314 312 312 312 310 312 314 316 317 316 315 316 314 315 317 320 317
322 321 323 322 318 314 308 306 304 301 300 302 304 308 309 310 310 311 311 312 312 311 310 310 311 312 312 313 313 314 313 312 313 310 311 313 315 311 311 313 314 314 315 315 316 317 318
320 322 322 321 316 312 307 305 303 301 300 301 303 304 302 307 308 310 309 312 312 311 311 311 311 311 311 312 312 314 313 313 314 312 313 312 314 311 313 311 312 313 313 314 315 316 316
320 322 323 320 315 309 307 304 302 301 300 301 300 301 305 303 307 310 310 311 311 310 309 310 311 311 312 311 310 308 309 310 312 313 314 315 313 313 316 310 310 313 312 313 314 314 315
319 323 322 318 314 308 307 304 302 301 301 301 301 301 305 305 306 308 305 306 307 308 310 309 311 311 309 308 308 308 310 310 310 310 312 315 314 314 316 310 315 311 308 309 311 312 311
319 323 321 317 312 307 306 303 301 301 300 300 300 301 303 305 305 302 303 304 304 304 308 309 308 305 307 309 310 311 311 311 311 310 310 311 314 314 315 314 313 311 309 310 310 311 310
318 323 319 315 308 307 305 302 301 301 300 300 300 300 302 303 302 301 301 302 305 307 306 305 304 307 309 311 312 312 312 311 312 311 309 309 311 312 312 313 312 311 310 309 309 311 312
319 317 318 314 307 306 304 301 301 300 300 300 300 300 301 300 297 298 301 301 299 301 305 303 303 307 308 310 312 312 311 310 311 311 311 311 312 313 312 312 312 310 309 308 310 312 311
318 319 317 315 307 305 302 301 300 300 300 300 299 299 300 299 297 297 297 298 298 299 303 300 305 306 307 309 309 312 310 310 309 309 311 311 311 312 311 314 312 308 307 309 311 310 310
317 320 317 311 307 303 301 300 300 300 299 300 298 298 299 299 297 295 295 295 296 297 299 299 302 302 302 307 306 309 310 309 309 310 308 310 310 311 311 311 308 308 309 308 307 307 308

GFSGBSN_850_thetae_078.txt.gz
Theta_e
324 323 324 323 321 320 314 310 308 305 304 302 304 308 308 306 306 305 308 307 306 301 305 301 300 301 304 306 304 304 306 306 308 309 311 313 315 316 318 317 320 321 323 323 323 324 324
325 324 324 324 322 321 318 311 307 306 305 303 303 307 307 306 305 304 307 306 306 301 304 302 302 302 305 305 303 304 305 307 310 310 311 313 314 316 316 316 318 320 321 323 322 323 321
324 324 325 324 324 322 320 314 309 307 305 303 302 304 306 307 305 305 305 306 305 301 302 302 303 305 306 305 304 304 305 307 310 311 312 313 314 315 316 317 316 318 322 323 322 323 322
322 322 324 325 325 323 321 318 311 307 305 303 302 303 305 305 304 303 305 303 305 301 303 303 303 306 307 303 305 306 306 307 310 311 311 313 315 314 316 317 317 319 320 322 321 323 323
321 321 323 325 325 323 321 319 313 306 305 304 302 303 303 302 301 304 305 302 302 300 303 304 306 307 307 306 306 306 306 308 309 311 311 312 314 315 315 317 318 320 321 320 322 320 320
318 319 321 324 325 323 323 320 314 307 305 304 303 303 302 301 301 305 302 301 302 301 306 307 307 307 307 306 306 307 306 307 309 310 311 310 312 314 315 318 320 319 318 319 319 321 319
315 318 320 323 326 322 323 321 315 308 305 304 303 303 302 301 303 307 302 306 308 307 307 307 307 306 307 306 306 307 307 307 309 309 310 309 313 316 314 313 317 316 316 317 317 321 323
320 315 319 321 325 324 323 320 316 309 306 304 304 303 302 301 306 306 301 307 306 306 308 308 308 307 306 305 306 307 306 308 308 310 309 310 313 313 315 314 317 316 316 317 318 322 323
324 319 317 320 324 324 323 319 316 309 306 305 304 303 302 304 306 304 306 306 303 303 308 309 308 307 308 306 307 307 308 308 308 309 309 312 313 313 314 316 317 317 316 317 320 321 321
322 321 318 319 322 323 324 320 316 310 306 306 303 303 301 306 308 307 306 305 301 304 310 310 309 308 308 307 307 307 308 308 308 309 309 309 312 314 314 316 317 318 316 318 320 321 323
320 323 320 319 321 323 324 321 317 310 306 306 304 302 302 306 308 307 307 304 301 307 315 310 309 308 309 309 307 308 308 308 309 308 310 313 313 313 316 316 317 317 316 318 320 321 319
316 319 322 319 321 322 323 322 317 309 306 306 304 302 305 306 307 307 305 304 305 310 312 310 311 310 310 310 310 309 310 308 309 308 309 314 313 314 317 316 316 316 318 318 319 319 316
312 318 323 321 320 322 323 323 318 309 306 306 303 302 306 308 308 306 305 307 311 314 310 311 312 311 310 311 311 309 310 311 313 312 315 315 316 315 316 317 317 317 319 317 316 314 316
309 314 321 323 320 321 322 322 315 308 307 305 302 304 306 308 306 305 306 309 313 313 312 312 313 312 313 311 312 313 312 312 314 315 314 314 315 316 316 317 317 317 316 315 315 315 315
310 312 318 322 320 321 322 321 313 307 307 304 302 306 307 306 306 306 308 311 317 313 310 313 313 314 313 313 313 314 314 314 315 313 316 316 316 314 316 316 316 317 317 313 316 314 314
309 314 316 322 321 322 321 320 311 307 306 302 304 307 307 307 306 306 308 312 313 313 313 313 316 314 315 314 314 314 315 314 315 315 313 314 315 314 316 316 316 317 315 315 313 314 315
307 311 315 320 322 322 321 317 309 307 305 301 307 307 307 306 306 307 309 311 313 311 312 314 314 314 312 314 314 315 315 313 314 314 312 315 314 316 316 317 316 316 318 316 315 313 316
309 311 313 319 322 323 321 315 308 306 303 301 307 310 306 306 308 307 310 312 311 312 311 313 312 314 313 314 314 315 315 314 314 312 314 313 316 315 317 315 315 316 316 314 313 316 313
307 311 313 317 322 323 320 311 307 306 302 304 309 306 306 306 309 309 312 311 312 312 312 312 313 312 314 314 315 314 314 313 313 313 314 313 314 315 315 314 314 315 316 316 315 314 315
307 311 313 316 321 322 319 312 307 305 301 303 309 307 305 306 306 310 312 312 312 311 311 310 311 311 313 314 313 315 313 313 313 313 311 311 314 315 315 315 314 313 314 315 316 314 316
307 311 314 318 322 321 319 312 306 304 300 305 307 310 306 307 308 310 312 312 312 311 310 310 311 312 312 313 314 314 313 312 313 311 311 312 312 305 311 313 314 314 314 313 312 314 311
306 311 310 317 321 319 318 310 306 302 300 301 304 305 307 310 310 310 310 312 312 311 311 311 311 312 312 313 312 314 313 313 314 311 311 311 311 310 312 312 312 312 312 313 314 314 314
307 312 314 317 321 320 316 306 305 301 300 300 303 304 305 307 308 310 310 311 312 311 310 311 312 311 312 311 310 309 310 310 311 313 312 312 310 310 311 310 310 310 311 312 313 313 313
309 310 315 316 321 319 313 306 305 301 300 301 301 302 306 304 306 308 308 309 310 310 311 311 311 311 309 309 309 309 310 310 311 311 312 314 312 311 310 309 311 311 307 308 311 312 312
309 311 315 319 318 319 310 307 304 301 300 301 301 303 304 304 305 305 305 308 305 306 308 309 307 306 308 309 310 310 311 311 311 310 310 313 313 313 314 313 312 308 308 309 309 310 308
307 312 313 319 319 314 307 306 303 301 299 300 300 302 304 304 302 303 304 305 305 307 306 306 305 308 310 311 311 311 311 310 311 310 309 309 310 313 312 311 313 310 308 309 309 309 310
308 309 312 318 319 311 306 304 302 300 300 299 299 301 302 299 298 301 301 302 301 303 304 305 305 308 308 310 311 311 311 309 310 311 310 310 310 309 309 309 309 308 308 308 309 310 310
309 310 312 314 319 310 305 304 301 300 299 299 299 300 301 298 297 298 299 299 299 301 302 301 305 307 308 308 309 310 309 309 308 309 310 309 310 309 310 312 310 307 307 309 309 308 308
310 311 311 314 311 307 306 302 301 300 299 298 299 300 300 299 296 296 297 298 299 298 300 302 303 303 303 308 306 307 308 307 307 308 308 308 308 309 308 309 308 308 308 307 307 308 308

GFSGBSN_850_thetae_081.txt.gz
Theta_e
323 324 324 325 324 324 323 321 318 311 308 306 304 303 307 307 307 307 304 307 307 307 301 305 302 302 304 306 305 303 305 305 306 307 309 311 312 315 317 316 319 320 322 322 322 323 324
320 322 323 323 324 324 324 322 320 314 310 307 304 303 305 307 307 305 305 305 306 306 301 303 302 303 305 306 303 304 304 305 307 309 308 311 313 315 316 316 318 320 321 322 322 323 322
319 319 321 321 323 324 325 323 322 318 314 308 305 303 303 306 306 303 303 305 306 305 301 303 302 304 306 306 303 305 306 306 310 308 309 311 313 314 315 316 316 319 320 319 321 322 322
321 321 317 320 320 323 325 324 323 320 313 308 306 303 302 304 303 300 304 306 302 304 301 303 304 306 308 305 306 305 306 308 308 311 311 312 313 313 315 315 317 320 320 321 320 322 322
323 323 322 316 319 321 324 324 323 320 313 309 306 304 303 303 302 301 305 302 302 301 304 304 306 307 307 305 305 304 306 308 309 309 310 312 314 313 314 316 318 318 319 321 321 321 321
322 322 323 321 316 320 322 324 322 321 315 310 306 304 303 302 301 303 304 301 302 302 307 307 307 307 307 306 305 307 305 308 309 309 308 310 310 312 313 317 319 319 319 319 321 320 320
319 322 322 323 319 317 320 324 323 321 316 310 306 304 303 302 302 306 303 305 308 308 306 307 307 306 307 305 306 307 305 307 308 309 310 309 309 312 312 314 314 316 317 318 319 321 320
311 315 320 322 322 318 319 322 324 321 317 310 306 305 303 302 304 306 301 307 306 306 307 307 307 307 306 306 306 307 307 307 308 309 309 308 311 313 313 313 316 316 316 316 318 321 320
297 303 312 319 322 323 318 321 323 321 317 310 306 305 303 301 306 305 305 306 305 303 307 309 307 307 306 306 307 307 307 307 308 307 309 310 312 312 314 314 316 316 315 316 319 321 320
301 297 302 311 319 323 321 320 323 322 318 310 306 305 303 303 308 306 306 305 302 305 304 310 309 308 307 307 306 307 308 308 307 308 308 308 309 313 315 314 316 318 315 316 319 321 322
301 300 299 304 314 321 321 319 321 322 318 309 306 305 302 304 307 307 307 306 301 307 311 310 309 307 309 308 306 307 308 307 307 307 308 309 314 314 315 315 314 318 315 316 319 321 318
299 301 298 303 309 317 320 320 320 322 318 308 306 305 302 306 306 307 306 303 305 306 303 311 310 310 309 310 309 308 309 308 307 308 310 312 312 314 316 315 315 316 317 318 318 318 318
299 297 299 300 305 315 317 321 320 321 316 307 306 303 304 307 307 307 305 307 309 305 309 310 311 310 310 311 311 308 310 309 311 309 312 315 314 314 316 317 316 317 315 319 319 319 317
299 300 300 300 301 310 314 320 320 321 314 305 305 302 306 307 307 305 306 308 308 311 307 311 311 310 311 310 312 311 311 311 310 311 314 313 314 315 315 316 316 318 316 312 317 316 314
299 300 301 302 302 311 314 320 320 321 311 305 302 304 306 306 306 306 307 305 308 308 307 313 312 312 312 313 312 313 313 312 313 311 313 314 315 314 315 315 314 316 316 311 314 311 312
301 300 301 303 303 309 313 320 320 321 308 304 303 306 306 306 305 305 307 307 311 311 311 312 314 313 314 313 314 314 314 313 314 313 311 311 314 314 316 315 314 315 314 312 307 312 315
300 299 302 303 307 311 315 320 321 319 305 302 305 307 306 306 305 306 306 305 311 310 312 313 314 314 312 312 312 314 313 312 313 313 311 312 310 315 315 315 315 314 316 314 312 310 314
299 300 301 308 310 312 315 321 321 316 303 304 306 308 306 305 306 307 306 309 311 311 311 312 311 313 312 312 313 314 313 312 313 311 313 314 311 314 315 313 314 315 315 314 310 314 308
299 300 304 308 309 311 314 320 319 311 302 306 307 306 306 305 307 306 306 311 311 311 311 312 312 311 312 313 314 313 312 312 312 312 313 312 309 313 315 312 312 315 315 315 312 309 308
300 299 302 306 309 312 313 320 318 311 302 304 308 305 305 306 306 307 309 310 311 311 310 310 310 310 311 314 312 313 312 312 313 312 311 312 311 308 308 310 311 312 313 314 312 306 313
300 300 302 306 310 313 314 320 318 307 301 308 309 304 305 306 305 306 307 310 311 310 309 309 310 310 312 312 313 313 311 312 312 311 311 311 309 302 310 312 313 312 312 312 310 313 312
300 299 303 308 310 312 314 317 312 304 301 307 307 306 305 304 305 304 306 310 310 310 309 309 310 310 310 311 310 312 311 311 312 310 310 309 308 308 311 310 311 311 311 311 312 312 313
300 299 303 307 310 311 314 316 308 302 301 305 304 305 307 305 305 306 306 309 310 309 309 310 310 309 311 310 309 308 308 309 310 310 310 310 306 304 307 308 308 308 309 310 311 311 312
299 301 305 309 310 312 313 315 306 303 301 300 302 304 304 303 304 306 308 309 309 308 309 309 310 309 308 308 308 309 309 310 310 309 311 312 311 309 308 307 309 307 306 307 310 311 310
298 301 306 312 312 313 313 313 307 304 300 300 302 303 305 300 302 304 307 305 306 308 308 308 306 307 308 309 307 308 308 310 310 308 309 312 309 312 309 306 309 308 307 308 307 309 307
298 302 306 311 313 315 313 311 306 303 300 300 301 303 304 301 299 301 303 304 302 303 305 305 307 308 310 308 309 308 308 308 310 309 307 308 309 309 310 307 311 309 308 308 306 309 309
300 303 305 311 313 312 314 308 304 301 300 300 300 302 303 299 298 301 300 301 303 302 302 304 306 307 308 306 306 306 308 308 309 308 308 308 308 309 307 311 308 307 307 308 307 306 308
302 305 306 309 311 311 307 304 302 301 300 299 299 301 302 298 297 299 300 300 300 302 300 302 304 305 305 305 308 306 307 307 306 306 307 307 305 306 307 308 308 306 306 307 306 307 308
305 309 309 309 310 309 305 302 301 301 300 299 299 301 301 300 296 297 298 298 300 301 301 303 302 302 303 300 301 304 306 304 304 306 306 307 305 306 306 306 306 306 306 306 307 307 307

GFSGBSN_850_thetae_084.txt.gz
Theta_e
322 321 321 320 321 322 323 323 323 322 320 315 309 306 304 304 306 308 307 306 306 308 307 302 305 302 303 305 305 303 305 305 304 306 308 310 311 313 314 314 317 320 322 323 323 323 323
322 322 321 321 320 319 321 323 324 322 321 317 311 306 305 304 305 306 306 305 305 307 306 302 304 302 305 305 303 303 305 305 305 306 307 309 311 312 314 315 315 318 321 321 322 323 322
321 321 321 321 322 320 318 320 323 322 322 317 311 307 305 304 304 302 302 305 306 303 304 302 303 304 306 305 305 305 306 306 308 306 307 309 311 313 314 315 315 318 321 321 319 320 323
315 318 321 321 323 322 320 319 321 323 323 318 312 308 305 304 304 303 302 305 302 302 301 303 303 306 306 305 305 305 305 308 309 308 307 309 311 313 315 315 316 317 320 322 320 322 322
306 309 314 318 321 322 321 320 318 320 322 319 311 308 305 304 303 302 305 303 301 301 305 304 306 306 306 305 306 304 306 307 308 309 310 311 312 313 314 315 317 317 320 320 321 320 322
304 304 307 311 315 319 322 323 319 319 322 319 313 309 305 304 303 302 306 301 302 302 306 307 307 307 306 306 305 306 306 307 309 309 309 310 311 313 314 316 317 318 318 319 321 321 320
303 303 299 297 302 307 316 322 322 318 321 320 314 307 306 304 303 305 304 305 308 308 306 306 307 306 306 305 306 306 306 307 308 309 309 307 312 313 313 314 316 316 317 318 318 319 319
302 302 303 301 296 297 303 318 321 319 320 320 316 305 306 304 302 306 303 306 306 305 306 307 307 307 306 305 306 306 307 307 307 308 308 309 311 312 313 315 316 316 316 319 319 320 318
297 301 302 301 302 295 297 306 317 321 319 319 317 304 306 304 304 305 304 306 305 303 305 308 307 307 306 306 306 305 307 307 307 307 308 310 310 310 314 315 317 316 318 317 319 320 319
298 297 296 297 300 299 296 302 311 318 319 320 317 306 305 303 305 306 306 305 303 302 301 308 308 307 307 307 306 306 308 308 306 307 309 310 308 313 313 314 315 318 315 316 319 320 323
298 298 298 296 295 301 296 297 304 315 319 320 317 306 305 302 307 306 307 306 301 306 301 308 308 307 309 308 305 306 307 307 305 307 308 309 313 314 314 314 314 317 316 316 319 319 320
300 300 300 299 296 297 300 297 300 313 316 320 316 305 306 303 306 307 307 304 305 306 302 308 309 309 309 309 309 308 308 308 307 308 310 313 313 313 314 314 314 316 316 316 318 319 321
301 300 300 299 298 295 300 299 301 312 314 320 314 305 306 305 306 307 305 305 307 304 306 307 310 310 309 311 309 308 309 307 308 304 310 314 314 313 315 316 316 316 314 316 320 319 317
300 299 299 300 300 300 300 302 303 309 313 317 310 304 304 305 307 306 305 303 307 306 306 310 309 309 311 311 310 311 310 310 309 311 315 311 313 315 314 316 316 317 314 314 318 318 314
300 300 300 299 299 300 300 302 302 307 311 315 306 304 305 306 306 305 307 304 303 306 306 312 311 311 312 311 311 312 311 309 312 310 315 314 316 314 315 315 314 316 314 311 312 309 310
300 299 299 300 300 300 301 302 302 307 309 313 304 306 306 306 305 306 306 305 306 310 310 310 311 311 311 312 312 312 312 311 313 311 310 312 316 313 314 314 313 313 313 312 307 312 315
301 299 300 301 300 300 302 304 302 309 309 307 304 305 306 305 305 306 306 303 307 310 311 312 312 314 312 312 312 312 311 312 312 313 310 309 311 313 313 313 314 314 314 312 310 309 312
300 300 300 299 299 300 305 306 310 310 311 305 305 306 306 305 306 306 306 305 310 310 311 311 311 312 311 311 312 314 312 311 312 311 312 312 310 310 314 313 313 314 314 311 308 311 306
299 300 300 299 300 301 307 307 308 309 311 305 307 305 306 305 305 306 305 307 310 310 310 311 311 311 312 311 314 312 312 311 311 311 311 311 308 313 315 311 310 314 314 314 310 307 306
299 300 300 299 302 302 307 308 310 312 309 308 305 305 305 306 306 305 305 309 311 310 310 310 310 310 311 314 311 312 312 312 312 311 311 311 308 307 307 309 310 312 313 314 310 306 311
299 299 299 300 300 303 308 308 308 314 306 309 306 303 305 306 305 306 306 309 310 310 309 309 309 310 310 312 312 311 311 312 312 310 310 309 307 300 309 312 311 311 312 312 310 312 310
299 299 300 300 300 304 308 308 309 311 305 306 307 304 305 303 304 304 306 308 309 309 308 308 309 309 309 311 310 311 310 311 312 310 310 308 306 307 310 310 310 311 310 311 311 311 312
298 299 299 300 302 304 308 309 310 307 306 306 304 306 306 304 302 304 305 307 309 308 309 309 308 309 309 309 308 308 308 309 310 309 309 309 306 304 306 306 307 309 308 309 310 310 311
298 299 300 300 302 307 308 309 309 306 307 305 304 307 305 304 303 305 307 308 308 308 309 308 309 309 308 308 308 309 309 308 309 308 309 308 308 305 305 305 307 308 306 307 308 309 309
298 299 299 301 304 309 309 309 309 305 305 302 304 304 304 301 302 306 306 305 306 308 307 306 306 307 308 309 306 308 307 309 308 306 308 308 308 310 307 304 306 309 306 307 307 309 307
299 299 298 304 307 309 308 309 307 303 303 301 303 304 304 301 299 300 303 305 303 303 303 304 307 308 309 305 307 308 308 307 309 309 305 307 307 307 311 307 310 306 307 307 305 307 307
299 296 303 304 310 311 311 309 307 303 302 301 302 303 303 299 298 300 301 302 305 303 301 303 307 307 307 304 305 305 306 306 308 307 308 308 308 310 307 310 307 305 306 307 307 305 307
296 299 305 305 310 309 308 308 307 302 301 300 300 302 302 298 297 299 301 301 301 304 301 303 304 305 303 304 305 305 305 305 305 305 306 306 305 305 306 310 307 306 305 306 304 306 307
296 305 308 307 310 310 308 307 304 301 299 299 300 301 301 301 296 297 298 299 301 302 304 302 301 302 304 299 300 302 305 302 302 307 303 306 304 305 305 306 305 306 306 306 306 307 306

GFSGBSN_850_thetae_087.txt.gz
Theta_e
319 321 321 321 321 321 321 321 320 321 321 322 321 316 308 306 304 305 305 302 303 305 308 307 303 305 302 304 304 303 303 305 306 305 307 308 309 310 311 312 314 316 315 318 323 323 322
315 316 315 316 319 320 321 321 321 321 320 322 321 317 308 306 304 304 303 301 304 306 307 306 303 305 303 305 304 304 305 306 305 305 305 308 310 311 312 313 313 316 318 316 323 322 321
305 306 306 308 312 317 321 321 323 321 319 320 321 318 311 305 304 304 303 302 306 306 304 305 304 304 306 305 305 305 305 305 308 308 305 307 309 310 313 313 314 314 318 317 322 320 323
303 303 305 305 305 309 315 320 321 321 322 319 321 318 311 305 304 304 302 305 304 302 302 302 303 305 305 306 305 305 304 306 308 307 306 307 309 310 313 314 315 316 316 316 321 321 320
303 304 303 304 304 304 306 308 315 320 321 321 319 318 315 306 304 303 302 305 302 302 303 304 305 306 305 306 306 304 306 306 308 309 308 310 309 310 314 313 314 316 319 317 320 319 320
304 304 303 303 303 303 303 303 301 308 319 320 319 318 316 306 303 302 305 302 302 302 305 306 306 306 306 305 304 305 306 307 308 308 307 308 311 308 313 313 314 316 318 317 317 320 318
303 303 303 303 302 302 300 301 301 298 316 316 319 318 316 307 303 302 305 304 308 307 306 307 306 306 306 304 305 304 306 307 308 308 308 307 312 312 314 314 314 314 316 318 318 320 319
302 300 300 302 302 302 302 301 297 296 297 315 317 319 316 307 302 304 303 305 305 305 304 307 307 307 306 305 306 304 307 307 307 307 308 306 312 312 313 315 315 315 317 318 318 318 318
301 301 299 298 299 301 302 301 300 295 295 308 314 318 315 306 302 304 303 305 305 303 304 307 308 307 306 306 305 305 307 307 306 307 308 309 311 310 314 316 316 316 316 318 319 319 318
301 300 300 299 298 298 298 302 301 297 297 297 312 316 314 304 304 306 305 305 304 302 298 305 308 307 307 306 305 305 307 307 305 307 308 310 309 312 313 315 315 317 315 317 319 319 324
302 302 301 299 299 298 297 298 301 299 298 298 309 312 311 304 307 306 306 305 301 306 299 305 307 307 308 307 305 304 307 308 306 307 308 311 310 313 313 313 314 317 316 316 319 319 320
301 301 301 302 301 300 297 298 299 299 297 299 305 310 308 303 306 306 307 303 305 304 301 307 308 307 309 309 309 307 308 307 307 308 311 313 312 313 314 314 314 315 316 318 318 319 320
301 301 301 302 302 300 300 298 299 300 298 302 307 309 306 303 305 307 305 305 303 308 305 306 308 309 309 311 308 308 308 307 305 308 314 313 313 313 314 316 314 315 314 318 319 319 319
301 301 301 300 301 300 300 300 300 301 300 303 306 309 305 305 307 306 304 303 306 303 305 308 308 308 311 311 310 310 308 308 309 311 313 312 311 314 314 316 316 317 313 315 320 319 314
301 302 302 300 300 301 299 300 301 300 300 302 306 306 304 307 307 305 306 302 303 302 305 311 309 310 311 311 311 310 309 309 310 309 313 312 316 313 315 315 316 315 310 311 310 309 311
301 302 300 301 300 300 299 302 300 301 300 302 306 304 306 306 307 305 302 305 304 307 308 309 309 309 309 310 312 311 311 310 312 310 309 312 315 314 314 314 312 315 313 313 309 313 313
302 301 300 299 299 299 300 300 301 301 302 302 305 306 305 307 306 306 302 302 305 309 311 310 310 310 309 310 311 311 310 310 311 311 309 310 310 314 312 313 313 313 314 311 309 308 311
304 301 300 299 299 300 300 300 300 301 303 303 305 304 306 305 305 305 302 304 308 309 310 310 310 311 309 309 312 314 310 309 311 310 312 311 308 312 313 312 312 313 313 310 308 310 304
304 301 300 299 299 299 299 301 301 306 304 304 304 304 305 305 305 304 304 305 306 309 309 310 310 310 311 310 313 312 311 311 310 310 312 310 307 304 306 308 310 314 313 310 307 305 305
303 301 300 299 299 300 300 300 305 307 307 304 304 305 305 305 305 303 304 307 310 310 309 310 309 309 311 312 310 311 312 311 311 310 311 309 307 307 306 308 309 311 313 312 307 305 309
301 300 299 300 300 299 301 303 307 308 306 305 304 304 305 306 305 304 304 308 310 309 309 308 309 309 311 312 311 310 311 311 311 310 309 307 305 299 309 311 310 311 311 311 307 309 308
300 299 299 299 299 301 303 306 307 308 306 306 303 303 305 303 305 305 307 307 309 308 307 308 308 308 309 310 310 310 310 310 310 309 309 306 305 306 309 308 308 310 309 310 310 311 311
299 299 299 299 300 301 304 307 307 306 306 306 305 305 305 304 304 304 306 305 308 307 309 307 307 308 309 308 307 308 308 309 309 308 308 307 304 303 306 305 306 307 307 308 309 309 310
298 299 299 300 301 302 306 307 308 306 307 306 305 305 305 304 303 304 305 305 307 308 308 306 308 308 308 308 308 308 308 307 307 306 307 306 306 303 304 304 307 306 305 307 308 308 308
299 299 299 301 302 304 308 307 308 306 306 307 306 304 305 301 301 303 305 305 306 306 305 305 306 308 308 307 305 307 306 308 307 304 307 307 306 308 308 303 305 308 306 305 307 309 307
297 299 299 299 303 306 308 307 307 307 306 303 303 304 305 301 297 299 303 306 303 302 302 304 307 308 308 304 306 308 308 307 309 308 304 306 305 309 310 307 310 305 307 306 304 306 307
296 295 297 304 306 309 307 307 306 306 305 301 302 303 303 298 297 299 302 303 305 302 301 304 307 308 307 303 305 304 306 305 308 307 309 310 310 310 311 310 306 304 305 306 307 305 306
295 296 305 306 308 308 309 308 307 305 302 301 302 302 303 298 296 298 301 301 303 304 303 304 305 305 302 304 305 304 304 304 304 304 305 307 306 306 309 311 307 305 305 306 303 306 306
294 301 305 308 308 308 309 308 306 305 301 301 301 301 302 302 296 297 299 301 303 304 305 303 301 302 303 299 300 301 305 301 301 305 302 306 303 304 304 305 303 304 305 305 306 306 306

GFSGBSN_850_thetae_090.txt.gz
Theta_e
307 307 308 310 311 312 312 317 319 320 321 320 321 319 320 317 309 305 304 307 307 307 306 308 307 304 305 303 303 303 303 304 305 305 306 306 308 309 309 310 311 312 313 315 316 317 318
305 306 305 305 306 306 307 309 315 319 320 321 321 320 319 318 311 306 304 305 305 308 307 307 306 305 305 303 304 304 305 305 305 306 307 306 308 308 309 309 311 312 313 314 316 316 318
304 304 305 304 304 304 306 306 307 315 318 320 320 322 319 318 313 306 304 304 302 307 307 303 306 305 305 305 305 305 305 305 306 308 308 306 307 308 309 311 311 311 314 316 313 315 321
305 305 305 305 304 304 303 303 304 304 311 315 317 320 320 318 314 307 304 303 304 306 305 303 305 305 305 305 305 305 306 307 308 305 305 306 307 308 308 311 313 312 314 317 315 312 314
305 305 305 304 305 305 303 303 303 299 297 304 315 318 319 318 314 307 303 303 305 305 304 305 305 306 306 305 305 304 306 306 307 308 306 307 308 307 307 311 313 313 316 317 316 314 319
305 305 305 305 305 305 304 303 303 302 297 296 299 314 317 317 314 308 303 305 303 302 303 305 306 306 305 305 304 305 306 307 308 307 307 308 307 307 310 311 312 314 316 316 317 318 316
305 305 305 305 304 303 304 303 303 302 298 296 296 312 314 315 313 307 304 303 306 305 305 307 306 306 306 305 305 304 306 306 308 308 307 307 307 311 312 312 312 313 315 316 315 316 317
304 305 305 305 305 304 303 303 303 302 301 296 296 304 313 312 311 306 304 304 306 306 304 306 307 307 306 305 306 305 306 306 306 306 307 306 312 310 313 314 314 315 316 318 318 316 316
303 303 303 303 303 303 304 303 302 302 301 298 296 298 312 311 309 305 305 304 305 303 303 306 307 307 306 305 305 305 307 306 305 306 308 306 310 311 313 315 315 315 315 316 317 317 318
302 302 302 301 302 302 303 302 302 301 302 299 296 298 311 310 307 305 305 305 305 302 297 305 307 307 306 306 304 305 307 307 304 306 307 308 310 312 313 314 315 317 315 317 318 317 320
302 302 302 302 302 302 302 302 302 301 301 299 297 298 308 310 306 306 305 305 303 305 298 304 306 306 308 306 304 304 306 307 306 306 307 310 313 313 313 313 314 317 315 317 318 319 319
302 303 303 302 303 302 302 302 302 300 301 300 300 298 305 308 305 306 306 304 303 299 299 308 307 307 309 308 309 306 307 307 306 308 311 311 311 312 314 314 314 315 316 317 317 319 316
301 301 301 301 303 302 303 301 301 301 299 300 301 301 303 308 306 304 306 302 301 299 303 306 307 307 308 309 308 307 308 305 305 311 314 311 313 312 314 314 313 316 316 319 320 319 318
301 301 301 301 302 304 301 300 300 301 300 301 300 300 304 308 305 304 305 303 300 303 305 306 307 308 309 309 308 309 307 307 308 309 311 306 305 312 313 315 314 316 313 317 319 316 316
302 301 301 305 301 300 299 299 299 300 301 300 301 302 306 307 304 306 304 304 302 303 304 309 308 308 310 310 309 309 308 307 308 308 311 311 313 313 313 315 316 316 312 310 310 309 312
302 301 302 302 301 301 298 298 299 300 301 301 301 302 306 305 305 305 304 305 303 304 307 307 308 308 309 309 309 311 309 308 311 310 309 312 314 312 314 314 313 314 311 313 310 316 313
300 301 301 302 301 300 299 299 300 300 302 302 301 302 304 303 305 304 306 301 304 306 309 308 308 308 308 309 309 309 308 309 311 311 309 310 309 313 311 313 313 312 313 310 309 308 311
301 301 302 303 301 299 299 299 299 300 300 300 301 304 305 304 305 305 306 303 305 308 309 309 308 309 308 309 310 310 309 309 310 309 311 309 308 310 313 311 311 312 312 308 308 311 303
301 301 302 302 300 300 299 300 299 300 300 300 303 304 306 304 306 306 304 304 305 308 309 309 310 310 307 309 311 311 310 310 310 310 311 309 306 310 311 308 308 313 312 308 305 305 305
301 302 302 300 299 299 299 300 300 300 303 303 303 304 304 305 304 303 304 304 307 308 308 309 309 309 310 310 309 311 311 311 310 310 310 308 305 305 305 308 308 311 313 310 307 305 308
299 299 300 300 299 300 299 301 301 304 306 303 305 305 305 305 305 303 302 306 309 309 308 308 308 309 311 311 310 311 311 310 310 309 308 306 304 299 307 310 309 310 311 311 304 308 307
299 298 298 299 299 299 301 302 306 307 305 306 304 304 304 305 305 304 303 307 308 307 307 308 308 308 309 310 309 310 309 309 311 307 308 304 304 305 307 305 307 310 309 309 310 311 310
299 299 299 299 299 300 301 304 306 308 306 306 305 305 305 304 305 304 303 305 308 307 307 307 307 307 308 308 307 309 308 308 308 308 307 306 304 302 304 304 306 307 307 308 309 308 309
299 299 299 297 299 301 303 306 307 306 306 306 305 305 303 304 304 304 304 305 306 307 307 305 308 307 308 307 308 308 308 306 306 305 306 306 305 303 303 303 306 306 305 306 307 307 307
298 298 297 298 302 304 307 307 307 306 306 306 305 304 303 303 302 302 304 304 305 305 304 304 306 307 308 306 305 306 305 308 306 303 305 305 304 307 305 302 304 307 305 305 307 308 307
298 298 297 304 305 307 307 307 308 306 305 307 305 302 302 300 297 299 303 304 302 301 302 305 307 307 307 303 305 308 308 307 308 307 305 304 304 306 308 306 309 305 306 305 304 305 307
296 294 301 305 307 308 307 308 307 307 306 306 302 301 302 298 297 299 301 303 304 302 300 304 307 308 306 303 304 304 305 304 307 307 310 311 311 307 310 310 306 304 305 305 307 304 306
294 301 306 307 308 308 307 307 306 306 306 305 302 301 302 298 296 298 300 302 303 305 303 304 305 305 302 304 304 303 303 303 304 303 305 308 307 306 308 306 306 304 305 305 302 305 306
296 307 308 308 308 309 308 307 307 306 305 302 301 302 303 303 297 298 299 301 303 304 306 303 302 302 303 299 298 301 304 299 300 305 301 306 303 304 304 305 302 304 304 305 306 306 306

GFSGBSN_850_thetae_093.txt.gz
Theta_e
305 305 304 305 305 304 305 306 306 306 308 314 318 318 319 321 318 318 312 308 306 305 305 306 309 307 305 304 303 303 304 304 304 305 305 305 306 308 308 307 307 309 309 310 312 313 316
305 306 305 305 305 305 304 304 304 303 305 308 316 318 318 320 318 318 312 307 305 304 306 308 307 307 306 303 304 304 304 304 305 305 306 306 305 307 308 307 309 309 309 310 312 313 315
305 305 306 305 305 305 306 305 304 303 303 300 303 313 316 319 319 318 313 307 305 303 306 307 305 307 306 304 305 305 305 305 306 307 307 307 306 306 308 308 309 307 308 312 312 314 316
305 305 305 305 304 304 304 304 305 303 303 301 296 298 312 317 319 317 313 305 304 304 306 305 304 307 305 305 305 305 303 306 306 306 305 305 306 308 307 306 308 310 311 314 314 315 312
305 305 305 305 305 304 304 304 304 304 303 302 298 296 305 316 316 314 313 307 303 305 304 304 307 306 305 305 304 303 304 306 306 307 307 307 307 307 307 305 308 312 314 314 316 313 314
304 304 304 305 304 304 304 304 304 304 303 303 298 296 300 314 315 313 310 304 305 304 303 305 307 305 305 305 304 303 305 306 307 308 307 309 307 307 307 307 314 313 314 314 316 316 314
303 304 304 304 304 305 305 304 303 303 303 302 299 296 297 311 313 312 307 305 305 305 303 305 306 306 306 306 304 304 306 307 307 308 308 306 308 308 311 308 311 313 314 315 317 316 315
304 304 304 305 304 304 303 303 303 304 303 302 300 297 296 310 311 311 308 305 306 305 304 304 305 306 306 305 304 304 306 306 305 306 306 307 311 309 307 309 313 314 316 317 316 315 314
304 304 304 304 304 303 303 303 304 304 304 302 299 298 296 309 311 310 306 304 304 304 303 305 305 306 306 305 304 304 306 306 305 306 307 306 310 311 313 314 314 314 315 316 316 316 314
302 303 303 304 304 303 302 303 304 303 303 303 300 298 301 308 309 308 305 304 304 303 302 305 307 306 306 306 303 305 306 306 303 306 307 308 310 312 312 314 314 316 315 315 316 317 319
303 302 302 302 302 303 304 304 303 303 303 302 300 299 302 304 306 305 305 304 304 304 308 305 306 306 307 305 303 303 306 306 305 306 307 312 313 313 311 314 314 316 315 316 317 319 319
301 302 302 303 303 302 303 303 302 305 301 302 300 300 300 303 306 306 305 304 302 306 308 308 307 306 309 307 309 306 306 306 306 308 310 311 310 312 313 313 315 315 315 315 316 318 319
301 301 301 302 303 302 303 301 302 301 300 301 300 300 300 303 305 306 304 302 306 307 304 308 307 307 308 308 308 306 307 305 306 308 313 310 312 311 313 313 314 314 316 319 319 316 318
301 301 300 301 302 303 304 301 300 300 299 300 300 300 300 300 303 305 304 304 307 305 306 305 306 307 308 308 307 308 306 305 307 309 310 304 306 312 312 314 315 315 314 316 317 317 319
300 300 300 302 302 302 302 302 299 298 299 301 300 301 303 302 305 305 303 307 308 305 304 307 307 308 309 310 308 308 307 306 307 308 310 310 314 313 312 314 315 316 313 310 311 310 317
300 299 300 301 302 303 300 300 299 300 301 301 301 301 302 306 305 304 304 307 305 303 306 306 307 307 308 308 308 309 308 307 310 308 308 311 312 311 314 314 312 313 311 313 311 314 314
300 299 299 301 303 303 300 299 299 300 300 301 301 301 303 304 304 303 305 306 303 304 308 307 308 307 307 308 307 308 308 308 310 310 308 309 310 315 311 313 312 312 312 309 309 309 313
299 300 299 301 302 301 300 299 299 300 300 301 300 303 302 303 304 303 306 304 305 307 307 308 308 308 307 308 308 309 309 307 309 309 310 308 308 315 314 310 310 311 311 307 311 312 305
300 299 299 299 301 300 298 299 299 300 300 300 301 301 304 303 306 306 305 305 305 307 308 309 310 309 306 308 311 310 309 309 309 309 311 308 306 310 309 308 309 311 311 306 305 306 307
299 300 298 298 299 298 299 300 300 300 299 300 302 302 304 304 304 305 306 305 305 307 308 308 308 308 308 309 307 310 311 310 309 310 309 307 304 305 305 308 308 311 312 308 306 307 309
300 299 298 299 300 299 299 300 300 301 302 301 301 303 304 304 305 305 305 304 306 309 308 307 308 309 309 310 309 310 310 310 309 309 307 305 305 299 305 307 309 310 311 310 305 307 309
300 300 299 299 299 300 301 303 305 306 304 302 304 305 304 305 304 304 305 305 307 307 307 308 307 307 308 309 309 309 309 309 310 307 307 304 304 304 307 305 305 309 309 309 310 310 309
299 299 298 299 300 302 303 305 306 305 304 304 305 305 305 305 304 305 302 305 308 306 306 306 306 306 308 308 308 308 308 307 307 307 306 305 304 302 305 304 305 307 307 308 308 308 308
297 297 299 300 302 305 305 306 305 305 306 306 305 305 304 305 305 305 303 305 307 307 306 305 307 307 307 307 308 308 307 306 305 304 305 305 304 303 303 303 306 305 304 306 307 307 307
294 294 297 303 305 306 307 306 306 305 306 307 306 305 303 302 303 303 303 305 305 304 303 303 305 307 307 306 306 307 307 308 305 303 303 303 304 306 306 304 304 306 305 305 307 306 306
294 297 305 305 306 307 307 307 306 306 307 307 307 305 303 301 300 299 304 304 304 302 302 305 306 306 306 302 304 307 308 307 308 307 305 304 303 305 305 305 308 304 305 305 304 305 305
294 303 306 306 307 307 307 307 306 306 306 306 302 302 303 298 297 300 302 304 303 301 300 305 307 307 306 303 304 304 305 304 307 307 311 310 309 306 306 304 305 303 304 304 307 305 306
295 306 308 308 308 307 307 307 306 306 306 307 302 301 303 299 297 299 300 302 303 304 303 305 306 306 302 305 304 302 302 302 303 303 305 307 306 305 305 304 305 304 304 304 302 304 306
299 307 309 309 309 307 307 307 306 306 306 305 302 303 303 303 298 299 299 300 302 303 305 303 302 302 303 299 298 300 303 298 300 304 301 305 303 304 304 304 302 303 303 304 305 306 305

GFSGBSN_850_thetae_096.txt.gz
Theta_e
306 307 306 306 306 306 307 306 306 304 305 305 307 309 314 317 317 319 319 316 309 307 307 305 307 309 307 306 306 303 304 304 304 304 306 307 307 307 308 308 308 308 308 306 307 308 310
305 306 305 305 305 305 305 305 305 306 305 304 305 304 306 314 317 317 319 317 310 307 304 306 308 308 307 307 304 303 304 304 304 306 307 306 307 306 307 309 309 307 307 307 307 308 310
305 305 305 306 306 305 305 305 304 304 305 304 304 302 297 302 313 317 317 313 310 305 304 306 307 306 307 307 305 305 305 304 306 307 307 308 307 306 307 309 308 308 309 309 309 309 312
305 305 305 305 305 305 305 305 305 304 304 304 304 300 297 299 313 316 316 312 307 305 305 306 304 305 308 305 304 305 305 304 306 307 306 306 307 306 307 308 308 306 310 311 310 311 311
304 304 304 304 304 304 305 304 305 304 303 303 302 299 297 297 311 315 314 311 306 305 307 305 305 307 307 305 305 303 303 306 308 307 307 307 306 308 308 309 308 308 315 313 314 313 314
303 304 305 304 303 303 304 304 304 304 303 303 302 300 298 296 308 313 313 308 306 306 305 304 306 306 306 306 304 304 304 306 307 308 308 308 309 310 309 309 311 314 314 314 315 315 315
304 303 304 305 305 304 304 304 304 304 303 303 303 301 298 296 307 312 312 306 305 305 303 305 307 307 306 306 305 304 305 307 308 309 310 308 309 309 311 310 307 308 314 315 316 316 316
303 302 304 304 304 304 304 304 304 304 303 303 303 303 298 298 307 310 311 306 306 306 306 305 305 306 306 306 306 304 306 307 307 310 309 309 310 311 310 310 311 311 314 316 316 316 316
302 302 303 303 303 303 303 303 304 304 304 303 303 302 299 304 309 308 308 305 305 305 304 304 304 305 306 306 306 305 307 307 307 309 310 311 311 310 313 312 314 315 313 316 316 316 315
301 302 303 303 303 303 303 302 302 303 303 303 304 303 298 303 307 307 305 305 305 303 307 307 307 307 306 306 305 305 306 307 306 309 309 310 311 313 313 313 315 315 314 316 316 317 320
302 300 302 302 302 302 301 303 303 302 302 301 303 302 299 303 304 306 305 305 304 303 315 307 307 306 307 306 304 304 306 307 307 309 310 312 313 314 313 314 315 316 316 316 316 318 319
300 301 301 301 302 301 302 302 303 302 302 303 302 301 299 301 303 306 305 304 303 309 313 310 307 307 308 308 308 306 307 306 307 310 310 312 311 312 314 313 314 316 317 317 319 319 321
300 299 300 301 300 300 301 302 301 301 301 302 301 300 300 299 303 305 305 302 310 312 305 310 308 308 309 309 309 308 308 308 310 314 314 311 312 312 313 315 315 316 318 320 320 322 321
297 300 300 300 300 300 302 301 302 300 299 300 300 300 300 301 301 305 304 305 312 307 307 307 308 309 309 308 309 308 308 308 309 311 312 313 315 312 312 315 315 315 317 320 319 320 321
299 300 300 300 301 302 302 300 300 299 299 300 301 301 301 301 300 303 304 309 311 308 307 309 309 310 310 309 309 309 309 310 310 311 314 314 316 313 313 314 314 317 316 312 317 318 320
300 300 300 300 300 301 301 300 299 300 300 301 301 300 300 302 300 304 305 308 308 304 306 308 310 310 310 308 309 310 310 310 312 309 311 313 316 313 314 314 314 315 313 317 318 320 320
300 301 302 298 300 301 300 300 299 300 301 301 301 302 301 304 303 303 308 308 305 305 305 308 309 310 310 310 310 311 311 311 312 312 311 312 314 315 313 315 316 315 315 313 314 314 317
302 300 299 298 300 300 299 300 300 300 300 300 301 303 301 303 302 303 307 306 304 307 307 310 310 310 310 311 311 312 312 311 310 311 313 311 314 316 315 313 312 314 314 312 318 315 312
300 301 299 299 300 299 299 300 299 300 300 300 301 302 302 303 307 308 304 305 305 307 309 311 311 310 310 312 313 313 312 310 310 311 313 311 313 317 315 313 313 315 313 312 311 314 314
300 300 300 300 299 299 299 299 299 301 300 300 301 303 302 302 304 306 307 307 307 306 309 309 310 310 311 313 312 313 313 311 310 311 309 309 310 311 315 313 313 316 315 313 314 319 314
300 299 300 300 301 301 301 301 300 301 301 300 302 303 304 306 306 306 306 306 306 308 308 308 310 311 312 314 313 313 313 312 310 309 309 311 313 308 310 310 312 313 314 314 314 312 316
299 299 298 300 301 303 305 306 305 305 302 301 302 304 305 305 304 305 306 307 307 308 309 310 311 311 311 313 312 314 313 312 313 311 311 309 313 309 312 310 310 312 312 313 314 312 313
299 296 296 301 303 305 306 305 305 305 304 302 303 305 305 304 304 306 306 306 307 308 307 306 309 311 312 310 309 310 309 309 310 311 311 311 311 313 314 309 310 313 310 311 312 312 313
294 294 304 304 305 306 305 305 303 303 303 303 304 305 306 306 305 306 305 305 307 307 308 306 307 311 307 307 307 309 309 309 310 309 308 310 311 311 313 310 314 309 307 308 310 309 310
293 301 306 307 306 307 306 304 305 305 305 304 305 306 305 305 305 305 304 306 305 305 306 306 306 306 306 306 312 312 312 311 310 309 309 309 311 312 314 312 309 308 307 308 310 310 310
295 306 308 308 307 307 307 306 305 306 306 307 306 305 304 305 302 299 305 305 306 306 307 306 305 306 306 308 310 312 312 311 312 312 309 308 309 312 311 312 311 309 307 306 306 310 309
298 307 309 308 307 308 307 306 306 306 306 305 305 304 303 300 298 302 305 306 303 305 308 307 307 308 306 309 310 310 310 307 312 312 312 311 311 312 311 312 309 307 306 304 309 310 309
301 307 309 309 307 306 306 306 306 306 306 305 302 302 303 300 299 301 302 303 303 304 310 307 308 308 309 311 310 308 308 308 308 307 310 310 311 311 310 311 311 305 305 308 307 307 308
304 308 308 308 308 306 306 306 306 306 306 305 304 304 304 304 299 300 303 303 303 303 304 304 304 306 306 310 306 307 308 305 307 309 305 310 309 310 310 309 304 304 305 304 306 308 306

GFSGBSN_850_thetae_099.txt.gz
Theta_e
307 307 306 306 306 307 307 306 306 305 304 304 306 305 304 305 310 316 318 319 318 316 311 306 304 309 309 309 308 305 303 305 305 306 307 308 308 308 310 308 307 308 308 307 308 307 308
306 306 306 306 306 307 307 306 305 305 305 304 303 305 304 300 299 312 317 318 317 311 310 304 308 309 309 310 307 304 306 305 305 307 308 308 307 307 307 309 309 309 310 309 308 308 307
306 306 305 306 306 306 305 305 305 305 305 304 304 302 300 298 297 304 313 317 315 313 307 305 308 308 308 309 306 305 304 306 306 308 309 308 308 307 307 308 308 309 310 310 309 309 308
305 304 304 306 306 305 304 304 304 305 305 305 304 303 301 298 296 309 313 315 313 311 306 306 307 309 308 307 306 306 306 307 307 308 309 308 309 308 307 308 309 310 309 310 309 309 310
305 304 304 303 305 305 305 304 304 304 304 305 304 303 302 299 298 311 314 314 310 310 306 306 307 308 309 306 306 306 306 306 308 309 309 308 308 307 308 310 311 310 312 311 311 312 311
304 303 302 303 304 304 304 305 305 305 304 304 303 303 303 300 297 307 311 309 307 307 307 307 307 307 308 307 306 305 305 307 308 309 309 308 308 310 310 310 313 312 314 314 317 314 312
304 304 304 303 302 304 303 303 303 303 304 304 304 303 303 302 298 304 310 307 305 305 305 307 308 308 307 307 305 305 306 308 308 309 310 309 311 311 310 310 311 311 312 313 315 312 313
306 304 304 302 303 303 303 303 303 303 303 303 304 304 303 301 303 303 309 307 308 308 308 306 307 308 307 307 306 306 306 308 308 309 310 310 310 310 310 312 311 312 313 314 316 316 314
307 306 304 301 302 302 303 303 303 303 303 303 303 304 303 300 306 308 306 307 308 305 307 306 307 307 307 307 306 305 307 307 308 309 310 311 312 311 312 311 312 313 314 315 317 317 317
307 306 303 299 301 302 301 301 301 302 303 303 302 304 303 299 304 306 304 306 306 305 311 309 307 307 307 307 307 305 308 308 307 309 310 311 311 312 313 314 313 317 314 315 314 318 321
308 304 299 301 301 301 301 301 301 301 304 302 302 303 303 299 306 306 306 305 305 305 316 309 308 307 307 307 306 306 308 308 309 309 310 313 313 314 315 315 314 316 314 315 314 316 320
305 299 301 301 302 301 302 302 301 303 301 302 303 303 300 300 301 304 306 305 303 310 316 311 308 308 308 308 306 306 307 308 308 310 311 312 312 313 314 314 314 314 316 316 317 319 324
305 298 301 300 299 300 301 304 303 301 301 302 302 301 299 303 305 305 304 304 310 314 308 310 309 309 309 310 310 307 308 309 310 315 314 313 313 313 313 313 314 316 315 321 323 323 324
299 301 300 300 299 302 303 302 302 300 299 301 300 300 299 303 303 305 304 305 313 310 309 309 308 309 310 309 309 309 308 310 310 312 314 315 317 313 313 314 315 317 318 323 320 323 323
298 301 300 300 302 301 300 301 300 300 299 300 300 300 302 302 302 303 304 310 314 310 308 309 309 310 309 309 309 309 309 312 312 312 315 315 316 313 313 312 313 317 319 314 319 319 319
301 301 300 298 301 300 300 300 300 300 301 300 301 302 303 302 303 302 305 308 310 306 308 309 311 311 309 309 309 310 312 311 313 312 312 315 319 313 314 314 315 317 315 319 320 322 320
301 300 301 300 300 299 299 300 299 300 300 301 303 303 302 302 301 303 307 310 307 306 307 309 311 310 309 308 311 312 312 313 313 313 312 313 314 317 315 316 317 317 316 315 315 316 318
301 300 301 300 300 299 299 299 300 300 300 300 302 304 301 302 303 303 309 307 304 309 308 310 311 311 311 311 312 313 313 314 313 313 314 312 315 318 316 314 313 315 314 315 319 317 318
301 300 300 300 300 301 301 299 300 300 300 301 303 301 303 302 307 307 305 306 306 309 311 311 312 312 311 312 313 313 314 312 312 313 314 312 315 319 317 315 315 316 315 315 315 319 318
300 301 300 300 302 303 303 302 300 301 301 302 303 305 302 303 305 307 308 308 308 308 310 311 311 311 313 313 313 314 314 313 312 313 309 311 313 315 318 316 315 317 315 314 317 321 317
300 297 297 301 304 305 305 306 304 302 301 301 304 305 305 307 307 307 306 307 308 310 310 311 312 312 313 314 313 314 314 313 312 311 312 313 314 311 312 313 314 315 315 314 316 316 317
295 294 303 303 304 305 305 305 305 305 302 301 304 306 305 306 306 307 305 308 308 309 311 312 312 312 312 313 314 314 314 314 314 313 313 313 316 312 313 312 313 314 314 314 314 314 314
294 301 306 306 306 306 305 305 306 305 301 303 304 306 306 305 305 307 307 308 308 309 309 309 311 312 313 312 312 312 312 312 312 313 313 313 314 316 316 312 312 314 312 313 313 314 314
295 306 307 308 307 306 305 303 305 303 302 305 306 306 307 306 306 307 307 307 308 309 310 309 310 312 309 309 311 312 312 312 312 312 311 313 313 315 316 313 317 311 309 309 312 312 312
301 307 308 308 307 307 306 303 303 303 303 304 305 306 308 306 305 306 306 307 307 308 309 309 308 308 307 309 313 313 313 313 312 312 312 312 313 314 316 314 311 310 310 310 312 312 311
304 307 308 308 307 307 305 304 305 306 305 305 305 305 306 306 305 305 306 307 308 309 310 309 307 307 307 311 312 313 313 313 313 313 311 311 312 313 314 315 313 312 309 308 308 312 311
305 308 309 308 307 307 305 306 306 305 305 305 306 304 304 304 301 302 306 307 306 308 311 309 308 309 307 312 312 312 311 309 312 312 312 313 312 314 313 314 312 310 308 306 311 313 310
304 308 308 308 306 307 306 305 306 305 304 303 302 303 304 303 300 302 303 305 306 308 311 309 310 310 311 313 312 311 310 310 310 310 311 311 311 312 312 313 313 308 307 309 309 310 310
302 307 308 308 307 306 306 306 306 306 306 307 303 304 303 304 301 302 303 304 305 305 306 307 308 310 311 313 310 310 310 309 309 309 308 311 310 311 311 311 307 308 308 306 308 310 310

GFSGBSN_850_thetae_102.txt.gz
Theta_e
307 307 307 307 307 307 307 307 307 307 306 305 306 306 306 306 305 301 308 315 315 317 316 312 307 305 309 310 310 306 305 308 307 307 308 308 308 307 308 308 308 308 308 308 308 307 308
307 307 307 306 305 308 307 307 306 306 305 306 306 305 306 303 304 298 298 313 314 316 317 313 306 309 309 310 308 307 306 307 306 306 307 308 308 308 307 308 308 308 309 309 310 310 309
307 307 306 306 305 305 306 307 306 306 304 305 306 305 305 303 301 297 297 307 314 313 315 309 307 309 310 310 307 305 306 306 307 307 308 308 308 308 308 308 308 309 309 310 310 310 310
307 306 306 306 306 305 304 305 306 305 305 305 305 305 304 304 301 297 304 309 315 315 313 307 308 308 309 309 308 306 306 307 307 308 309 308 309 308 308 308 308 310 310 311 310 309 310
307 307 307 305 305 304 302 304 305 304 304 305 305 305 304 303 303 297 309 312 312 313 310 307 307 308 309 309 306 307 306 307 307 310 309 308 308 308 308 309 308 310 310 311 311 311 311
309 308 308 307 305 304 302 305 305 305 304 305 304 304 304 303 303 300 305 310 309 308 307 306 308 307 307 308 307 306 305 306 308 310 310 309 308 309 310 310 310 312 312 312 312 313 313
309 308 308 308 305 302 301 303 303 302 305 303 303 303 303 303 303 300 302 308 305 305 308 308 307 308 308 307 306 306 305 307 308 308 309 309 310 309 309 309 310 310 311 312 311 313 313
309 309 309 304 301 302 303 302 302 302 301 302 304 303 303 303 302 305 302 306 307 307 307 307 307 308 308 308 307 306 306 308 308 309 309 310 309 309 310 310 311 312 312 312 312 316 313
311 306 305 302 302 303 302 303 302 302 302 302 303 303 303 303 301 306 304 307 307 307 308 308 307 308 307 307 307 306 307 307 308 309 309 311 311 310 311 312 313 311 312 312 315 313 315
307 305 301 303 303 301 302 302 302 303 302 302 301 303 303 303 301 305 304 305 306 306 309 308 307 307 307 308 308 306 306 308 307 308 309 310 310 311 313 314 314 313 314 315 316 315 320
306 300 302 302 301 301 303 303 303 304 303 303 302 303 304 302 305 305 306 307 305 306 314 309 307 307 308 308 306 305 307 308 308 308 310 310 313 312 313 314 314 314 314 316 316 316 314
303 302 302 301 302 301 303 301 301 302 302 302 304 303 303 300 300 304 305 305 305 309 314 310 307 309 308 308 305 306 307 307 308 310 310 310 310 312 314 314 314 314 315 316 316 317 322
297 302 301 300 301 300 301 301 300 300 302 303 303 303 301 304 305 304 304 304 309 312 309 308 309 308 309 309 309 307 306 309 310 312 312 313 313 313 313 313 313 315 317 318 321 323 323
297 302 301 300 300 300 300 300 300 299 300 301 300 300 301 304 303 304 303 305 311 310 312 309 309 309 311 309 310 308 309 309 310 311 314 314 316 313 312 314 314 316 317 319 323 323 325
300 300 302 301 300 299 300 300 301 301 300 300 300 302 303 302 302 303 304 308 310 310 309 309 309 309 309 309 309 308 309 311 312 312 316 316 316 313 312 312 313 318 318 314 318 319 322
300 301 301 300 300 299 299 300 300 301 301 301 302 303 302 303 302 304 305 310 308 307 308 309 312 310 308 308 309 309 310 312 313 312 312 315 316 312 312 313 314 316 315 316 318 324 325
301 300 300 300 300 300 300 300 300 300 301 302 303 303 302 303 302 303 307 308 308 307 307 311 312 310 308 308 311 312 313 313 313 313 312 312 311 316 314 317 317 316 315 315 314 315 318
301 301 300 301 303 303 302 300 300 300 301 302 302 303 303 302 303 304 308 307 305 308 308 310 312 311 310 310 312 313 314 314 313 313 313 313 315 317 316 314 313 314 314 314 315 316 315
301 300 299 300 303 304 304 303 301 300 301 303 302 301 302 303 306 306 306 306 306 309 311 311 312 311 311 313 313 314 314 312 312 313 312 311 313 316 316 314 314 316 313 314 317 317 314
300 297 300 302 303 304 305 306 305 301 301 303 304 304 302 303 305 307 306 306 309 309 311 311 311 311 312 313 313 314 314 313 312 312 310 311 312 313 314 315 314 315 313 313 315 313 314
295 297 304 304 304 304 305 305 305 303 301 304 305 304 304 307 308 306 306 306 308 311 311 311 312 312 313 313 313 314 313 313 313 312 312 312 311 305 311 313 313 314 313 313 312 314 313
295 305 307 306 306 306 305 305 305 304 301 304 306 306 306 306 306 306 305 308 309 311 312 311 312 312 312 313 314 314 313 313 312 313 312 312 311 312 312 311 312 312 312 313 313 313 313
298 306 308 307 307 307 305 305 305 305 301 304 306 306 306 305 305 307 307 308 309 310 310 310 311 312 312 311 312 312 312 312 311 311 311 312 312 311 311 311 311 312 310 312 313 312 313
302 307 308 307 307 307 303 305 305 304 306 306 307 307 307 305 305 307 307 308 309 309 310 311 309 312 309 309 311 312 312 312 312 310 311 312 312 311 311 310 311 310 308 309 311 312 312
303 307 308 307 307 307 303 303 303 303 305 306 306 307 308 305 305 306 307 308 308 309 309 310 309 308 308 309 312 312 312 313 312 311 310 310 311 312 311 310 310 309 309 310 311 311 311
300 308 308 307 307 307 305 305 302 304 305 304 304 305 306 306 304 306 307 307 308 309 310 310 308 308 308 310 311 312 311 311 312 313 311 311 310 310 309 312 313 310 308 308 308 309 310
297 307 308 307 307 307 305 306 305 304 303 304 304 304 305 305 302 305 306 306 307 308 309 309 309 310 309 310 311 310 310 309 310 311 311 311 311 310 311 310 311 308 307 307 310 310 310
295 307 307 306 307 306 305 306 306 304 305 304 303 302 305 304 302 303 304 305 306 309 310 310 309 309 310 311 310 309 308 308 308 309 310 309 309 309 310 311 308 307 306 307 308 310 310
294 306 307 307 306 307 306 305 306 305 306 305 305 303 303 305 303 303 304 305 305 305 307 308 309 309 309 309 308 307 307 306 307 307 308 307 308 309 309 309 307 308 307 307 310 310 310

GFSGBSN_850_thetae_105.txt.gz
Theta_e
307 308 307 308 307 306 307 305 307 308 307 307 306 306 307 305 306 306 303 298 308 315 317 317 316 309 308 309 309 306 303 310 308 307 308 308 307 307 307 307 307 307 307 308 308 308 308
309 309 309 308 308 307 306 306 305 306 307 306 307 306 305 305 305 305 300 297 301 313 315 314 310 306 308 310 308 308 306 305 306 306 307 307 307 307 307 307 307 307 308 308 308 308 309
310 310 310 310 309 308 307 305 305 305 306 306 306 307 306 306 305 303 300 297 298 310 315 313 308 308 308 310 306 307 306 305 305 307 307 307 308 307 307 307 307 308 308 309 308 308 309
311 310 310 310 309 309 308 306 305 302 306 306 305 306 306 306 305 303 299 303 302 312 314 311 309 308 309 309 306 306 307 306 306 307 308 308 307 307 307 307 307 307 308 308 309 309 309
310 310 310 311 311 308 306 303 303 303 304 303 304 306 305 305 305 303 299 311 310 311 311 309 309 309 309 309 308 306 305 306 307 308 308 308 308 308 307 306 306 307 305 307 309 310 310
309 311 309 307 307 305 303 304 304 303 302 301 302 302 302 302 304 303 300 302 310 309 309 307 307 307 307 308 307 307 306 306 307 309 309 308 307 307 309 307 304 309 308 309 310 311 311
311 309 307 302 302 305 305 304 304 303 304 301 302 304 303 303 303 302 304 307 306 306 308 308 308 309 308 307 306 305 305 306 308 308 309 309 308 307 306 307 306 308 309 309 309 310 313
307 305 302 303 303 304 304 303 303 303 302 302 302 303 303 304 303 303 304 307 306 305 306 307 308 308 307 307 307 306 305 307 308 306 308 309 309 307 308 308 309 309 311 310 310 312 313
308 300 303 303 304 304 303 303 304 303 304 303 302 302 303 303 303 305 303 306 306 307 308 308 306 308 307 306 307 306 306 307 308 307 306 306 308 309 309 311 312 312 312 310 312 311 312
306 302 303 303 302 302 303 301 302 302 304 303 302 303 303 303 303 304 303 305 305 306 309 308 308 308 307 307 308 306 305 307 307 307 306 307 307 310 311 312 313 314 311 313 315 315 316
297 303 301 302 300 300 302 300 301 302 302 302 302 303 303 304 304 305 304 305 305 306 310 308 307 306 307 308 306 306 306 308 307 307 308 308 313 312 312 312 313 313 313 314 314 317 314
296 302 302 300 300 301 300 300 299 302 303 303 303 303 302 300 301 304 305 306 305 307 309 309 307 308 308 308 306 307 307 307 307 309 308 308 310 311 312 313 313 313 314 314 315 316 319
297 302 302 300 300 301 300 301 299 301 302 302 302 303 304 304 304 304 304 305 306 309 309 308 309 308 308 307 307 307 306 308 307 307 310 311 311 312 311 311 312 313 315 315 319 320 321
297 301 302 299 299 300 300 300 300 300 300 301 300 301 301 303 304 303 304 305 309 310 308 308 308 309 310 309 309 307 306 306 307 309 309 307 310 312 312 313 315 314 316 318 319 323 323
297 302 301 302 300 300 299 300 300 301 301 301 302 302 302 302 302 303 304 306 309 310 309 309 309 308 308 308 308 307 307 309 311 309 313 314 314 313 312 312 313 316 318 315 317 319 320
297 302 301 303 302 302 300 300 300 300 301 302 302 302 303 302 302 304 302 309 308 308 308 309 310 307 307 307 307 309 309 311 313 312 311 313 313 312 312 313 313 313 314 317 316 319 322
296 301 299 300 302 303 302 300 300 300 302 303 303 302 302 301 302 304 306 308 307 307 308 311 310 309 306 308 310 311 313 312 312 313 311 311 311 315 314 316 315 314 315 315 313 314 320
295 295 299 301 302 303 304 303 300 300 302 302 301 300 301 303 301 304 305 305 306 308 309 309 310 310 307 310 311 313 314 313 312 312 314 312 314 313 315 313 312 312 314 312 312 315 312
294 299 304 303 304 304 303 304 305 301 303 302 301 302 302 304 301 302 304 306 306 309 310 311 310 310 310 313 313 313 313 312 312 312 311 311 310 311 312 310 310 314 312 312 314 311 312
294 305 305 305 304 304 304 305 304 301 303 304 303 296 302 304 305 304 305 305 309 309 310 311 311 310 311 312 311 312 313 312 312 312 311 311 309 310 309 312 311 312 312 311 311 309 313
294 306 307 306 306 306 305 304 305 301 303 305 305 301 303 301 304 304 305 305 309 310 310 310 310 311 311 312 312 313 312 312 312 312 311 310 308 303 310 312 312 310 311 312 311 311 313
295 306 308 307 307 307 305 305 305 303 302 305 305 304 306 305 305 305 304 307 309 310 309 309 310 311 310 311 310 312 311 310 310 309 310 309 307 310 310 309 309 309 309 311 312 311 311
295 307 308 307 307 306 303 303 305 304 302 305 306 306 305 304 302 304 304 307 309 309 309 310 309 310 310 309 308 309 311 310 310 310 309 310 307 307 308 309 309 310 309 309 311 310 311
295 307 308 307 307 306 303 305 305 303 306 306 306 307 305 304 303 305 306 308 308 308 309 309 309 309 309 309 311 311 311 310 310 308 308 310 309 306 306 306 309 308 307 308 310 311 309
295 307 308 307 306 306 303 304 303 306 306 306 305 305 306 301 304 304 306 307 307 309 308 309 308 309 308 309 309 309 309 310 311 310 309 307 308 309 308 304 308 308 307 308 310 310 309
296 305 307 307 306 305 305 302 302 303 304 304 305 304 304 303 301 304 305 307 304 305 307 309 308 308 308 307 307 310 309 310 309 308 310 309 307 307 306 309 311 308 307 308 307 307 308
296 301 307 307 306 304 306 304 305 305 305 305 303 302 303 305 303 304 303 304 306 306 305 308 308 310 309 307 308 306 307 308 308 309 310 308 308 307 308 305 308 307 306 307 307 305 309
296 296 307 307 307 305 306 306 306 306 304 306 304 303 303 304 303 303 304 305 306 307 306 308 307 308 307 307 307 306 305 305 306 305 309 307 306 307 307 308 308 306 305 305 305 308 309
296 295 306 307 307 305 305 306 306 304 304 306 304 303 303 303 303 302 303 304 304 305 306 308 307 307 308 302 303 303 305 302 303 304 306 305 305 306 305 306 305 307 307 307 310 309 310

GFSGBSN_850_thetae_108.txt.gz
Theta_e
312 312 311 311 310 311 311 309 308 306 306 306 306 307 308 307 307 305 306 302 299 304 314 315 315 313 308 308 308 309 312 312 307 306 306 306 307 307 306 306 306 306 306 307 307 307 308
311 311 311 311 310 310 309 308 308 308 306 304 305 307 307 307 307 307 304 303 299 300 314 314 315 313 309 310 309 307 306 309 304 306 308 308 307 307 307 306 305 306 306 307 307 307 307
311 310 311 310 309 308 308 310 308 305 305 305 303 305 306 306 306 307 304 302 300 298 312 315 312 310 309 310 308 307 306 305 305 306 307 307 307 307 306 306 307 307 307 307 308 308 308
311 311 308 306 306 305 305 305 304 303 303 304 304 302 302 307 306 306 303 302 307 297 307 313 311 309 309 307 307 307 306 306 306 307 307 308 308 307 307 306 306 307 306 306 307 308 309
309 309 307 304 305 306 305 305 305 304 304 303 303 302 302 302 304 305 303 306 307 305 311 312 309 307 308 307 307 307 307 306 305 307 307 307 307 307 306 306 304 304 302 305 308 309 309
308 306 303 304 304 305 305 304 304 304 304 302 302 302 302 304 304 303 303 303 311 311 311 309 307 308 307 308 306 306 305 306 307 308 308 307 307 307 307 306 300 306 305 307 307 308 308
308 301 304 303 304 304 305 305 304 305 304 303 303 304 303 303 302 303 304 303 306 306 307 308 307 309 308 307 307 307 306 306 308 309 306 308 306 306 304 305 305 306 307 308 308 308 309
301 303 303 303 303 303 305 303 305 304 304 304 302 303 304 304 303 304 304 304 303 305 305 308 308 307 306 306 306 306 305 307 308 307 307 307 308 306 305 305 307 308 310 310 309 309 310
298 303 302 303 302 303 303 302 303 303 304 303 302 301 303 303 304 304 305 305 306 304 305 306 307 308 307 307 307 305 305 307 307 305 305 305 305 307 307 307 310 312 310 310 309 310 312
299 302 303 302 302 302 302 302 304 303 302 303 303 303 302 302 304 303 304 302 305 306 308 308 308 308 307 307 307 305 306 307 306 306 306 306 306 307 308 309 311 313 311 312 314 315 315
302 301 302 301 302 302 301 301 303 303 302 303 303 302 303 304 304 305 305 304 304 306 308 307 307 306 307 307 306 306 305 307 307 306 308 307 310 312 311 311 312 313 311 312 312 313 314
302 301 302 301 300 301 301 300 300 302 303 303 303 303 302 303 304 305 305 306 306 303 303 308 306 308 307 307 306 307 307 307 307 307 307 307 308 309 309 312 312 312 313 313 313 315 316
302 300 303 302 300 299 301 300 300 301 300 301 301 302 304 303 304 304 305 305 304 306 307 309 307 307 307 307 306 306 306 307 306 306 308 308 309 310 311 312 311 313 314 312 314 317 317
301 300 301 302 302 299 300 300 301 301 301 301 301 300 302 303 303 303 304 301 306 308 308 308 308 308 309 309 309 306 304 305 305 308 307 311 306 311 311 312 314 313 314 316 318 320 318
300 300 298 302 302 302 299 300 300 301 302 302 302 300 300 301 303 303 304 305 310 309 308 308 308 307 309 308 307 306 306 306 309 307 311 313 309 312 311 312 313 315 318 314 316 317 319
295 297 300 302 302 302 302 299 299 301 302 301 301 301 300 302 303 305 303 308 308 308 308 309 309 306 307 307 306 308 309 311 313 312 311 313 313 312 312 312 313 313 313 318 316 320 320
295 303 304 303 303 302 303 303 300 301 301 302 301 301 302 303 305 305 307 307 308 307 307 310 309 306 306 309 310 311 313 312 313 312 311 310 312 313 314 314 315 315 316 316 314 314 318
296 305 304 304 304 303 302 304 302 301 302 301 301 297 304 305 302 304 305 304 305 307 308 308 308 308 307 308 312 314 314 313 312 312 313 312 312 312 313 312 312 312 314 313 313 315 312
295 306 306 305 304 304 304 304 302 301 302 301 301 301 305 305 299 303 303 305 306 307 308 310 310 309 310 312 312 312 312 312 312 312 311 312 309 311 310 309 310 312 312 311 312 310 311
295 307 307 305 306 305 304 303 301 302 304 304 302 297 305 306 305 302 303 304 307 309 309 309 310 309 310 310 310 312 312 312 311 311 311 310 308 308 309 312 310 311 310 310 309 310 313
295 306 307 307 306 306 303 304 302 301 303 304 304 301 303 300 302 303 303 304 309 309 309 309 309 309 311 312 311 311 310 309 311 310 310 307 308 302 308 309 310 309 309 310 309 310 311
296 305 307 307 306 305 303 303 303 302 303 306 305 304 305 303 304 301 302 306 308 309 308 309 310 309 308 310 309 310 309 309 310 308 308 307 306 309 308 308 308 309 308 309 310 311 310
297 302 307 307 305 303 303 303 303 302 304 306 306 306 305 301 300 302 303 306 308 308 309 309 308 309 309 308 307 308 308 308 308 309 308 309 306 306 305 305 308 307 308 309 310 310 309
297 299 307 307 305 303 303 304 303 304 305 306 305 307 305 301 301 302 303 307 306 307 308 309 308 309 309 309 310 310 309 310 309 308 307 309 307 304 305 305 306 306 307 307 310 310 309
298 298 307 307 305 303 304 304 302 304 306 306 305 305 305 300 302 303 304 306 306 307 307 308 308 308 308 309 307 306 306 308 309 309 308 306 306 307 307 304 305 308 307 308 309 310 309
300 296 307 307 304 302 302 302 303 304 305 305 305 305 304 304 301 303 303 305 303 303 304 309 309 308 309 306 306 309 308 309 308 306 306 307 304 306 304 307 309 305 306 307 305 307 307
302 296 304 307 305 303 302 303 304 304 305 306 304 303 303 304 303 303 303 303 305 304 303 306 308 309 309 305 307 305 306 306 306 308 309 306 306 306 307 304 306 305 305 307 307 305 307
306 296 298 307 307 305 305 304 305 305 305 305 304 303 302 304 303 303 304 304 305 305 304 307 306 306 305 306 306 305 303 303 305 304 307 306 305 305 305 307 307 305 305 305 304 307 309
307 297 295 305 307 305 306 305 304 304 304 305 305 304 303 303 303 302 304 305 305 306 305 306 305 305 306 301 302 301 304 301 302 303 302 305 304 304 305 305 304 306 306 307 309 309 309

GFSGBSN_850_thetae_111.txt.gz
Theta_e
311 310 309 309 308 307 306 306 306 309 307 306 306 304 305 306 307 308 308 307 307 306 302 313 316 313 313 308 308 311 312 314 308 306 307 307 306 306 305 305 306 306 306 307 307 307 307
310 309 308 306 305 305 306 305 305 305 306 306 305 306 304 304 306 307 307 307 306 303 305 311 314 313 313 310 308 314 313 310 307 306 306 306 306 306 306 306 305 305 306 306 306 307 307
310 308 305 305 305 304 304 305 304 305 304 304 304 304 304 303 305 307 307 307 305 302 301 311 311 311 311 310 309 311 310 309 304 306 307 307 307 306 306 305 306 306 306 305 306 307 308
308 302 305 304 303 304 304 304 305 304 304 304 303 303 303 302 302 306 306 306 302 302 300 308 312 312 308 308 309 308 311 305 306 307 307 307 307 307 306 306 305 305 305 305 306 308 308
303 305 304 303 304 305 304 304 303 305 304 304 303 302 302 303 302 302 305 302 307 301 300 311 307 308 307 308 310 309 305 306 306 307 307 307 307 306 306 305 302 303 301 303 306 307 308
303 305 304 304 304 304 303 304 303 304 304 303 303 304 302 304 304 304 303 306 310 308 310 308 307 307 307 307 308 306 306 305 307 308 308 307 307 307 305 306 300 305 304 305 306 306 307
304 304 303 303 304 304 303 304 304 304 304 303 302 304 304 303 303 304 302 303 307 306 306 306 308 308 308 307 306 306 306 306 307 308 306 307 304 301 303 303 304 305 307 307 307 307 308
304 303 303 302 303 303 303 305 305 304 303 303 301 303 303 304 305 303 303 304 304 304 306 308 308 307 307 306 307 306 306 307 308 306 307 308 305 304 304 304 305 307 309 309 308 308 308
303 303 303 302 303 302 303 303 303 303 304 303 302 302 303 304 304 305 305 304 304 306 304 306 307 307 307 306 306 306 306 307 306 306 305 303 304 305 306 306 307 309 310 310 310 309 310
301 304 303 302 301 301 301 303 303 303 302 302 303 302 303 303 303 303 303 305 306 307 308 306 307 306 307 307 306 305 305 307 306 305 304 304 304 306 307 307 308 311 309 311 311 314 313
301 304 303 300 299 300 300 301 302 303 303 302 300 301 303 304 304 305 303 303 305 306 303 308 307 306 307 307 306 305 305 306 306 305 306 304 307 311 311 310 310 311 311 312 312 314 312
300 303 303 301 299 300 300 300 300 301 302 301 303 303 303 304 304 304 304 304 305 299 307 306 306 307 307 307 306 307 306 306 306 306 306 305 307 309 308 310 310 311 312 313 312 314 316
296 298 303 302 298 300 300 300 300 300 301 302 302 303 303 303 304 305 305 304 300 302 306 309 307 306 307 307 306 306 306 305 304 301 304 306 308 308 310 311 309 312 315 310 310 312 315
297 300 302 303 301 299 299 299 300 301 302 301 300 300 302 303 303 304 304 300 303 307 307 307 307 307 308 308 306 305 304 304 304 307 308 311 305 310 311 311 312 313 314 316 316 313 315
300 304 302 302 301 301 300 300 300 301 301 301 300 301 302 303 304 304 305 307 309 307 307 308 308 307 308 308 306 305 304 305 308 306 308 311 310 312 310 311 312 314 317 314 316 315 318
304 305 303 302 302 300 301 301 301 300 300 301 300 301 304 305 306 306 304 308 306 307 308 307 308 305 306 306 306 306 307 310 312 311 310 313 312 309 312 312 312 312 313 317 316 319 321
301 306 304 303 303 303 301 301 301 300 300 300 300 302 305 305 306 306 306 306 307 307 307 309 308 306 306 309 308 310 312 311 312 312 311 311 310 312 314 313 314 315 316 316 316 313 317
296 307 306 305 304 304 303 302 302 302 300 302 303 298 306 306 303 301 302 304 305 306 307 306 307 306 305 309 313 313 314 312 311 312 312 311 312 312 313 311 312 313 314 313 314 316 310
296 306 307 306 306 305 304 302 302 300 302 304 303 303 305 306 300 299 302 304 305 307 308 309 309 308 309 311 312 312 311 311 311 311 311 311 308 309 309 308 309 311 312 311 312 310 312
296 300 307 307 304 306 305 303 302 303 303 304 303 298 305 305 303 301 301 303 307 308 308 308 308 309 309 310 309 311 311 311 311 311 312 309 307 308 308 311 310 310 309 309 311 309 313
300 297 307 307 306 303 304 304 302 302 304 304 304 301 303 298 301 301 301 303 307 308 308 309 309 308 309 311 309 309 309 308 310 308 309 306 308 302 307 307 307 309 308 309 308 310 311
305 297 306 307 306 304 303 304 302 303 304 305 305 304 303 302 302 300 300 304 307 307 307 308 309 308 307 309 309 310 307 308 309 307 308 305 306 308 308 306 306 309 308 309 309 310 310
308 299 304 307 306 304 302 304 302 303 305 304 305 305 304 300 300 302 302 304 306 306 308 308 307 307 308 308 307 307 307 307 306 308 307 307 305 304 304 305 306 306 309 309 310 309 309
308 300 302 307 306 304 303 304 303 305 305 306 306 306 305 301 300 302 303 304 306 305 307 308 308 307 308 308 309 308 307 307 308 308 306 307 305 303 303 304 303 304 306 306 309 310 308
308 300 300 307 306 303 304 303 305 306 306 305 305 305 305 300 301 302 303 304 305 305 306 308 308 308 308 308 306 306 305 306 308 307 307 305 305 307 306 304 304 306 306 307 309 310 308
309 303 298 307 305 303 304 302 304 305 306 305 305 305 304 303 300 304 303 304 302 302 302 307 308 308 309 304 304 308 306 307 306 304 305 304 303 305 303 307 307 303 306 306 305 307 305
309 305 297 306 305 302 302 303 303 304 304 305 304 303 304 304 304 303 302 303 305 303 302 304 308 308 308 304 307 305 305 304 305 306 306 305 304 306 305 304 305 303 305 306 308 305 305
310 307 298 301 307 304 302 303 303 304 305 305 304 303 302 303 303 303 304 304 304 305 304 307 304 305 304 305 305 304 303 302 303 302 306 304 304 304 304 306 305 304 305 305 304 307 306
310 308 301 296 306 306 305 304 304 305 304 305 304 305 303 302 303 303 303 304 304 306 308 307 307 305 306 300 301 300 304 300 300 303 299 304 303 303 303 304 303 305 305 307 307 308 308

GFSGBSN_850_thetae_114.txt.gz
Theta_e
309 304 306 305 305 305 305 304 305 305 305 305 304 305 305 306 305 304 307 308 308 308 304 305 311 316 316 312 309 312 311 316 311 307 306 307 306 305 303 304 305 305 305 306 306 306 306
306 305 305 306 305 305 305 305 305 306 305 305 305 304 304 304 303 303 305 307 308 307 304 305 312 313 312 311 313 315 314 313 306 306 306 306 305 306 306 305 304 305 305 305 306 306 306
304 306 306 305 307 306 305 306 304 307 306 304 304 303 303 303 302 303 306 307 307 308 303 303 310 310 311 310 313 314 312 308 307 306 306 306 306 306 306 304 306 306 305 304 305 306 306
305 308 306 306 305 304 306 305 305 306 305 304 303 303 304 303 302 302 307 307 307 305 302 302 307 311 309 310 312 311 311 305 307 307 306 307 306 306 306 305 304 304 302 303 304 307 307
305 305 305 306 304 305 306 305 306 305 304 302 303 303 304 303 302 302 305 305 304 305 308 303 309 308 308 309 309 309 307 306 306 307 306 307 307 306 305 304 299 301 302 303 305 306 307
305 305 304 304 305 305 305 304 304 304 303 303 304 303 304 304 303 303 303 307 305 305 306 305 307 307 306 309 308 306 306 306 307 307 306 306 306 304 305 300 300 305 304 305 305 305 307
305 304 304 303 301 304 304 306 304 304 303 301 302 303 304 304 303 302 305 307 307 305 305 304 306 307 307 308 306 306 306 307 307 308 305 306 300 298 302 302 302 306 306 307 307 306 307
304 304 304 302 300 302 303 305 303 303 302 302 302 303 304 304 304 303 305 305 305 305 305 307 307 307 307 306 306 306 306 307 308 304 306 304 301 303 303 303 304 306 307 306 306 307 307
303 304 303 302 300 300 301 302 302 301 302 303 302 303 303 305 305 303 304 305 305 306 304 305 306 306 306 306 306 306 306 307 305 305 305 302 304 304 305 306 306 306 306 307 309 308 308
298 304 304 300 300 300 301 300 301 302 302 301 301 304 303 303 303 304 304 305 306 306 307 306 307 306 306 306 306 305 306 306 306 304 303 303 303 305 306 306 306 308 307 309 310 312 314
300 302 304 301 300 300 300 300 299 300 303 303 303 303 304 304 303 304 304 305 305 305 304 307 307 306 306 305 305 305 305 306 305 305 303 303 306 309 310 309 307 310 310 310 311 313 313
301 301 303 303 300 299 299 300 300 301 300 301 302 302 303 304 303 304 303 304 305 298 305 305 307 306 306 305 306 306 305 305 306 305 305 303 305 307 306 307 308 308 310 311 311 315 314
305 304 302 303 303 301 299 300 300 301 299 300 302 303 303 304 304 305 305 304 299 303 305 305 306 305 305 305 305 305 305 304 303 300 301 305 307 306 308 310 308 311 314 308 307 314 312
305 304 303 302 303 304 303 300 300 301 300 300 302 304 304 304 304 304 304 300 304 307 307 306 306 306 306 306 303 304 304 303 303 305 306 307 304 308 310 311 311 313 314 314 312 312 314
303 305 304 303 303 303 302 301 300 300 300 300 301 304 305 306 306 305 305 306 305 307 306 307 307 306 307 307 306 304 303 304 306 304 306 310 306 310 310 310 312 314 317 314 316 314 317
296 306 306 304 303 303 302 302 301 300 300 301 303 304 306 306 306 306 303 308 306 307 307 306 307 304 306 306 305 305 306 308 311 307 309 311 313 308 311 311 312 312 313 317 316 318 319
296 306 306 305 304 303 303 302 301 300 302 303 305 305 306 307 308 306 305 305 307 307 307 309 308 305 305 309 308 309 310 309 311 312 311 311 310 310 313 313 314 315 316 316 316 314 317
299 300 307 306 305 303 303 301 301 302 303 305 305 300 306 308 305 299 301 303 305 306 307 306 307 306 306 310 311 313 312 311 311 311 311 311 312 312 312 311 311 312 314 314 313 316 311
307 297 306 307 306 303 301 301 302 303 304 304 304 305 306 307 301 297 301 304 305 306 307 308 309 308 308 309 311 311 310 310 311 310 310 310 307 308 308 308 308 311 311 310 311 309 312
309 298 303 307 306 305 303 302 301 303 304 304 304 299 305 305 302 301 301 303 306 307 308 307 307 308 308 309 308 310 309 310 310 311 311 309 306 307 308 310 308 310 308 308 310 309 312
310 304 299 307 306 305 303 303 302 303 304 304 305 301 302 297 302 300 302 304 307 307 307 308 308 307 307 309 308 308 307 306 309 308 309 306 306 302 305 306 306 308 308 308 307 309 311
310 308 297 306 307 305 302 303 303 303 304 305 305 303 302 301 301 301 300 304 306 306 307 307 307 306 306 308 308 308 307 307 308 306 306 304 305 307 307 306 306 308 308 309 309 309 308
309 309 299 303 307 306 303 303 303 304 304 305 304 304 303 300 299 301 302 304 306 305 307 308 307 306 307 307 307 307 306 306 305 305 306 305 304 304 304 303 305 307 308 309 309 309 308
309 310 302 300 307 305 303 303 304 305 305 305 305 306 304 301 300 302 302 303 305 305 307 307 307 307 308 308 308 306 305 305 305 305 305 306 305 302 303 303 304 303 305 306 308 308 306
310 310 305 299 307 305 304 303 305 306 306 305 305 305 305 300 300 301 301 303 305 304 304 306 308 308 308 308 305 305 303 305 307 305 305 303 303 306 304 303 302 305 305 306 308 309 306
311 309 308 298 306 304 303 303 305 305 306 305 305 305 304 303 300 303 303 303 301 302 302 305 307 308 308 303 304 307 305 306 305 303 304 302 301 304 302 305 304 302 305 306 306 308 305
312 309 309 298 304 303 303 303 304 304 305 305 305 303 303 303 303 303 302 302 304 303 301 304 307 307 307 303 306 304 305 303 305 304 305 304 303 305 305 303 304 301 305 305 308 304 304
312 309 309 302 299 305 303 303 303 303 304 304 305 303 302 302 302 303 303 304 304 304 303 305 304 304 303 304 304 303 302 302 302 301 303 303 302 303 302 304 304 303 304 305 304 305 307
314 310 309 308 296 304 305 303 303 303 304 305 304 304 304 302 303 303 303 303 304 304 305 306 304 304 305 299 300 300 303 298 299 303 298 301 302 302 303 303 302 305 306 307 306 306 307

GFSGBSN_850_thetae_117.txt.gz
Theta_e
307 307 306 306 306 306 306 306 306 306 306 305 305 305 304 305 305 305 305 307 308 309 307 307 304 315 312 312 312 311 315 315 311 306 306 305 305 304 303 304 304 305 305 305 305 305 305
308 306 305 305 305 306 305 306 305 305 305 305 303 303 303 304 304 303 302 305 307 309 307 305 307 314 314 312 311 312 315 313 307 306 306 306 305 304 305 304 304 305 305 305 305 305 305
306 305 306 306 305 305 306 306 305 305 304 303 303 304 303 304 303 302 303 305 307 308 307 303 309 311 312 310 312 312 313 306 306 305 305 305 305 305 305 304 305 305 305 304 305 306 306
305 305 305 306 307 306 306 306 305 305 304 304 304 304 303 303 303 303 306 307 307 307 305 301 310 309 308 311 313 311 307 306 306 306 306 306 306 305 305 304 302 304 302 305 304 306 307
305 303 305 306 306 306 307 306 304 302 302 302 304 305 303 302 302 303 304 307 306 304 306 304 308 307 309 310 308 307 305 306 306 306 307 307 305 305 305 302 302 302 305 305 306 305 306
305 303 304 305 307 307 307 306 306 303 302 303 303 305 304 303 303 305 306 306 308 307 307 308 307 306 308 309 308 306 306 305 306 306 306 306 305 303 303 302 304 306 305 305 306 305 306
306 302 304 305 306 305 304 302 301 302 302 302 303 304 303 304 303 306 305 305 305 305 304 304 306 307 308 306 305 307 306 306 307 306 306 306 303 301 302 302 301 305 305 306 305 306 306
304 303 304 304 304 302 300 302 302 301 301 303 303 303 304 304 304 306 306 305 304 304 303 305 306 306 306 306 305 306 306 307 307 306 305 302 303 303 302 302 304 305 306 306 306 306 307
301 303 303 304 304 301 300 299 300 302 302 302 303 303 303 304 305 305 304 305 305 305 303 304 304 305 305 306 306 306 306 307 305 304 304 303 305 303 305 305 306 305 306 306 307 307 309
303 302 302 303 300 299 300 300 301 301 302 302 302 304 303 304 305 305 305 306 306 306 306 306 307 305 306 305 305 306 306 306 305 303 303 303 303 304 304 305 305 308 305 307 308 312 313
305 302 300 302 302 299 299 300 301 300 302 303 303 304 303 306 306 306 304 304 305 305 303 306 307 305 305 305 304 305 305 306 305 304 302 303 305 307 308 307 305 309 309 309 310 313 313
305 304 302 301 303 304 303 300 300 301 300 303 304 304 304 303 304 304 304 304 304 300 306 306 306 306 305 305 306 305 304 305 305 304 304 303 304 306 305 306 307 307 309 310 310 311 316
299 304 303 302 301 302 304 301 300 300 300 302 305 305 305 305 304 304 305 304 299 305 304 303 306 305 304 304 304 304 304 303 303 301 302 305 306 305 306 308 307 310 312 308 308 315 312
297 306 305 303 302 302 302 300 300 300 300 300 304 305 305 306 305 305 304 300 304 306 304 305 306 306 305 304 302 303 303 303 301 304 303 305 305 307 308 309 310 312 313 311 312 313 313
299 301 306 304 303 302 302 301 301 301 300 301 305 305 306 306 306 305 305 305 307 306 305 306 306 305 305 306 304 304 303 303 305 303 305 310 306 308 309 310 311 314 316 313 316 314 316
306 297 306 306 304 302 302 301 301 303 303 304 305 305 307 307 306 306 304 308 305 306 306 306 305 304 305 304 304 305 305 306 309 305 306 310 310 307 310 311 311 313 312 317 315 317 316
309 298 303 306 305 302 301 301 302 303 304 305 306 306 307 307 307 307 305 306 306 306 306 308 307 305 305 310 308 307 308 308 311 312 310 311 310 309 311 313 315 315 315 315 316 316 317
310 302 299 307 306 304 302 301 303 303 304 305 306 301 307 308 305 299 299 303 305 306 307 306 307 306 308 309 311 313 312 310 310 310 311 311 312 313 312 310 311 312 314 314 315 317 313
310 309 298 305 306 305 303 302 302 303 304 304 305 306 306 307 302 297 301 303 304 306 306 307 308 307 307 308 310 310 310 310 310 310 311 310 309 310 308 308 308 310 311 311 311 309 313
311 310 302 300 307 305 303 303 302 303 304 304 304 299 306 306 302 301 302 304 307 307 307 307 306 307 308 308 307 309 308 309 309 310 311 310 306 308 310 311 308 309 308 307 309 312 312
313 310 309 299 306 306 303 303 303 303 304 304 304 301 301 298 301 300 302 304 306 307 307 307 307 306 307 308 307 307 307 305 307 307 309 306 306 302 305 305 306 306 308 308 307 308 310
312 310 310 303 304 306 304 303 304 304 304 305 304 303 302 301 301 301 302 305 306 306 306 307 307 306 306 308 307 308 307 306 307 305 306 303 305 306 306 305 305 307 307 308 309 309 308
314 312 310 308 302 306 305 302 304 304 305 304 304 303 303 299 299 300 301 303 305 305 307 307 306 306 307 307 307 307 306 306 305 306 305 304 304 305 305 303 304 306 305 308 309 308 307
316 312 311 310 301 306 305 303 304 305 305 305 305 305 303 300 299 301 302 303 304 305 307 307 307 306 307 307 307 305 304 304 303 302 303 305 304 303 305 302 303 304 305 306 308 307 306
317 311 311 310 302 306 304 303 304 305 305 304 304 304 304 300 299 301 301 302 304 304 304 305 307 308 307 307 304 304 302 304 305 303 301 302 303 306 304 302 302 303 303 305 308 308 305
317 315 310 310 304 305 304 303 304 305 305 305 305 305 304 302 299 303 301 302 300 300 301 305 307 307 307 302 303 306 304 305 305 303 302 301 301 304 302 304 304 300 303 305 305 308 305
314 315 311 309 307 302 304 303 304 305 305 305 305 304 302 303 302 303 302 301 303 301 300 303 306 306 306 302 306 304 304 302 304 304 302 303 302 304 305 303 303 300 304 305 308 303 304
315 315 314 309 309 299 305 303 303 304 303 304 304 304 303 302 302 302 303 303 303 303 301 303 303 303 301 304 304 303 301 301 301 300 301 302 301 302 301 303 304 302 303 306 305 304 307
314 314 315 309 309 305 300 304 303 303 303 304 304 304 304 303 304 304 303 303 303 304 305 305 304 303 304 298 299 300 303 297 298 303 298 301 300 300 301 303 301 303 304 307 306 307 307